Date StartTime U_cm/s V_cm/s W_cm/s Ustd_cm/s Vstd_cm/s Wstd_cm/s Uvar_(cm/s)^2 Vvar_(cm/s)^2 Wvar_(cm/s)^2 KE_(m/s)^2 TurbulentKE_(m/s)^2 HorizWindSpeed_cm/s FrictionSpeec_cm/s DragCoef SpeedOfSound_m/s SonicTemperature_C Pressure_mb 
08/30/2014  00:00:00     -211.169      -24.554       -5.673      110.543       84.582       43.587    12219.810     7154.134     1899.837        3.325        1.064      212.591       54.012        0.065      345.547       23.153      860.741
08/30/2014  00:01:00     -298.842      -24.586      -24.815      137.519      117.937       51.931    18911.590    13909.235     2696.873        6.302        1.776      299.852       60.810        0.041      345.561       23.174      860.708
08/30/2014  00:02:00     -221.447      -55.849      -17.688       91.919       99.743       50.761     8449.161     9948.697     2576.671        3.672        1.049      228.381       51.777        0.051      345.551       23.159      860.699
08/30/2014  00:03:00     -315.038      -36.477      -27.474      129.254       86.393       48.271    16706.675     7463.741     2330.074        6.391        1.325      317.143       55.485        0.031      345.583       23.213      860.675
08/30/2014  00:04:00     -323.651      -52.439      -26.490       99.075       91.908       52.966     9815.810     8447.160     2805.349        6.463        1.053      327.872       46.036        0.020      345.563       23.178      860.660
08/30/2014  00:05:00     -311.640     -123.148       -3.512       96.185       78.205       62.061     9251.590     6116.073     3851.566        6.575        0.961      335.090       40.534        0.015      345.536       23.133      860.680
08/30/2014  00:06:00     -307.353      -41.738      -11.851      101.652      102.561       55.872    10333.048    10518.669     3121.638        6.016        1.199      310.174       56.581        0.033      345.540       23.140      860.716
08/30/2014  00:07:00     -392.648      -46.021      -28.199      121.385       96.121       58.299    14734.434     9239.200     3398.799        9.222        1.369      395.336       67.101        0.029      345.595       23.232      860.692
08/30/2014  00:08:00     -289.463      -65.987      -20.177      113.099       89.224       46.698    12791.294     7960.890     2180.667        5.574        1.147      296.889       43.699        0.022      345.559       23.174      860.644
08/30/2014  00:09:00     -319.006      -64.928      -30.346       66.545       83.945       49.990     4428.293     7046.732     2499.049        6.043        0.699      325.546       27.060        0.007      345.549       23.155      860.627
08/30/2014  00:10:00     -215.710     -106.348        1.826      103.170       80.431       48.562    10644.132     6469.161     2358.267        3.865        0.974      240.501       45.614        0.036      345.475       23.029      860.637
08/30/2014  00:11:00     -305.736      -12.568      -22.718      124.332       93.746       62.355    15458.400     8788.245     3888.123        6.114        1.407      305.994       61.399        0.040      345.523       23.111      860.671
08/30/2014  00:12:00     -295.216      -95.481      -13.506      117.146      107.694       58.543    13723.172    11597.923     3427.328        6.259        1.437      310.272       65.152        0.044      345.599       23.240      860.666
08/30/2014  00:13:00     -292.709        7.144      -19.795       89.845       71.310       47.142     8072.163     5085.100     2222.412        5.075        0.769      292.796       45.264        0.024      345.601       23.244      860.650
08/30/2014  00:14:00     -273.683      -37.064      -19.104       84.362       88.255       49.560     7116.909     7788.930     2456.221        4.700        0.868      276.181       45.835        0.028      345.616       23.267      860.647
08/30/2014  00:15:00     -395.892      -34.191      -15.098      145.009      140.794       69.627    21027.615    19822.859     4847.922       10.190        2.285      397.366       75.611        0.036      345.645       23.318      860.644
08/30/2014  00:16:00     -405.048      -41.955      -28.794      152.904       97.974       64.137    23379.721     9598.975     4113.582       10.187        1.855      407.216       72.177        0.031      345.667       23.358      860.658
08/30/2014  00:17:00     -303.715      -70.602       -7.273      129.793       82.051       58.739    16846.238     6732.413     3450.324        6.215        1.351      311.813       59.202        0.036      345.641       23.314      860.657
08/30/2014  00:18:00     -188.148      -21.195       -0.999       82.537       80.135       46.949     6812.375     6421.551     2204.204        2.564        0.772      189.338       45.226        0.057      345.560       23.173      860.646
08/30/2014  00:19:00     -276.445      -74.588       -5.058      106.158       85.687       45.674    11269.430     7342.261     2086.159        5.135        1.035      286.331       53.330        0.035      345.598       23.238      860.654
08/30/2014  00:20:00     -243.205       -1.264      -16.083      106.706       87.400       47.859    11386.249     7638.776     2290.501        4.036        1.066      243.209       42.517        0.031      345.576       23.201      860.632
08/30/2014  00:21:00     -254.429      -37.550      -16.786       81.430       71.421       45.670     6630.848     5100.906     2085.790        4.012        0.691      257.185       44.654        0.030      345.575       23.198      860.624
08/30/2014  00:22:00     -258.070      -57.753       -2.511      103.153       88.147       49.970    10640.569     7769.949     2496.985        4.542        1.045      264.453       51.028        0.037      345.557       23.169      860.625
08/30/2014  00:23:00     -256.064      -29.349      -15.953       98.169       91.104       44.345     9637.135     8299.995     1966.466        4.329        0.995      257.741       48.523        0.035      345.635       23.303      860.622
08/30/2014  00:24:00     -143.936      -13.258       -6.227       53.485       54.863       38.831     2860.685     3009.960     1507.878        1.415        0.369      144.546       35.161        0.059      345.571       23.196      860.622
08/30/2014  00:25:00     -181.874      -66.176       -9.078       94.861       74.556       42.356     8998.588     5558.526     1794.017        2.694        0.818      193.539       39.977        0.043      345.560       23.174      860.639
08/30/2014  00:26:00     -252.333      -80.219        2.101      119.306      112.629       58.482    14233.848    12685.210     3420.151        5.022        1.517      264.777       64.854        0.060      345.563       23.179      860.638
08/30/2014  00:27:00     -229.197      -60.505       -0.649      127.992       83.492       47.012    16381.994     6970.978     2210.149        4.087        1.278      237.049       49.788        0.044      345.550       23.158      860.669
08/30/2014  00:28:00     -162.161      -47.140       -9.862       81.562       70.748       40.547     6652.303     5005.307     1644.054        2.096        0.665      168.874       41.962        0.062      345.564       23.183      860.672
08/30/2014  00:29:00     -254.691      -83.996       -5.742      106.349       83.930       55.230    11310.063     7044.210     3050.377        4.668        1.070      268.184       50.905        0.036      345.675       23.371      860.659
08/30/2014  00:30:00     -214.705      -35.222      -14.969       82.606       76.681       38.356     6823.733     5879.939     1471.182        3.087        0.709      217.575       39.565        0.033      345.669       23.361      860.640
08/30/2014  00:31:00     -106.114      -65.481        9.420       91.598       70.023       52.050     8390.279     4903.248     2709.225        1.582        0.800      124.692       56.141        0.203      345.598       23.241      860.627
08/30/2014  00:32:00     -169.476      -77.148      -10.409       91.784       60.707       39.163     8424.347     3685.320     1533.727        2.421        0.682      186.209       34.010        0.033      345.581       23.211      860.624
08/30/2014  00:33:00     -233.340      -55.191        0.883      117.797       83.014       55.305    13876.060     6891.394     3058.626        4.066        1.191      239.778       55.041        0.053      345.644       23.320      860.608
08/30/2014  00:34:00     -228.403      -81.260       -7.995       94.315       87.291       45.697     8895.238     7619.655     2088.229        3.872        0.930      242.427       45.779        0.036      345.639       23.309      860.585
08/30/2014  00:35:00     -224.597      -13.009      -11.838       81.023       79.606       47.689     6564.803     6337.183     2274.198        3.296        0.759      224.973       44.788        0.040      345.583       23.213      860.581
08/30/2014  00:36:00     -145.528      -49.706        1.321       53.178       58.204       33.986     2827.910     3387.664     1155.079        1.551        0.369      153.783       28.865        0.035      345.514       23.098      860.581
08/30/2014  00:37:00     -139.416      -34.804        7.681       58.729       49.533       38.995     3449.084     2453.479     1520.618        1.406        0.371      143.695       31.907        0.049      345.520       23.107      860.581
08/30/2014  00:38:00     -130.177      -87.771        2.999       89.980       69.307       47.504     8096.432     4803.528     2256.628        1.990        0.758      157.003       52.383        0.111      345.556       23.170      860.588
08/30/2014  00:39:00      -93.214     -106.573        8.030       88.804       68.075       49.210     7886.231     4634.246     2421.673        1.752        0.747      141.586       48.670        0.118      345.542       23.144      860.580
08/30/2014  00:40:00      -74.333      -16.578       13.285       61.327       50.976       36.847     3761.045     2598.557     1357.676        0.685        0.386       76.159       37.035        0.236      345.510       23.092      860.579
08/30/2014  00:41:00     -102.425      -45.780       -0.431       94.052       46.314       32.325     8845.790     2144.978     1044.890        1.231        0.602      112.191       41.689        0.138      345.578       23.206      860.565
08/30/2014  00:42:00     -111.521      -46.412        1.293       81.411       53.787       34.262     6627.832     2893.068     1173.909        1.264        0.535      120.793       43.713        0.131      345.594       23.234      860.562
08/30/2014  00:43:00     -122.965      -74.393       -5.305       54.610       49.279       34.355     2982.220     2428.392     1180.295        1.364        0.330      143.717       20.706        0.021      345.613       23.268      860.572
08/30/2014  00:44:00     -119.906      -52.875        3.667       77.287       56.215       35.011     5973.342     3160.072     1225.771        1.377        0.518      131.047       38.209        0.085      345.633       23.301      860.565
08/30/2014  00:45:00     -108.534      -22.006        1.426       58.089       52.005       29.836     3374.283     2704.540      890.191        0.962        0.348      110.743       30.566        0.076      345.573       23.200      860.537
08/30/2014  00:46:00     -183.200       13.104      -17.617       61.992       49.066       26.331     3842.988     2407.472      693.317        2.049        0.347      183.669       23.734        0.017      345.591       23.227      860.494
08/30/2014  00:47:00     -212.365      -22.344      -16.585       49.612       48.890       33.693     2461.370     2390.235     1135.186        2.593        0.299      213.537       24.095        0.013      345.652       23.333      860.475
08/30/2014  00:48:00     -176.000      -79.055       -3.554       67.855       59.955       34.360     4604.244     3594.617     1180.642        2.331        0.469      192.939       34.542        0.032      345.585       23.217      860.519
08/30/2014  00:49:00     -115.129      -56.064        8.878       82.915       64.372       38.142     6874.933     4143.809     1454.818        1.447        0.624      128.054       38.076        0.088      345.578       23.206      860.570
08/30/2014  00:50:00     -155.312     -113.194        6.827       75.026       47.669       38.393     5628.861     2272.367     1474.051        2.318        0.469      192.184       41.475        0.047      345.626       23.289      860.609
08/30/2014  00:51:00      -73.045      -82.585        1.409       37.794       52.189       25.313     1428.357     2723.682      640.755        0.847        0.240      110.253       22.511        0.042      345.743       23.490      860.614
08/30/2014  00:52:00      -36.831     -116.352       -4.706       42.989       65.604       28.614     1848.018     4303.892      818.754        1.094        0.349      122.042        8.431        0.005      345.719       23.452      860.590
08/30/2014  00:53:00      -17.860      -17.195        0.987       37.911       49.231       26.089     1437.277     2423.701      680.645        0.258        0.227       24.792       13.870        0.313      345.618       23.278      860.558
08/30/2014  00:54:00        6.695      -10.459        8.741       11.552       18.726       16.773      133.445      350.669      281.349        0.050        0.038       12.419       14.073        1.284      345.319       22.764      860.547
08/30/2014  00:55:00       -5.389      -77.368       -1.786       32.382       45.326       19.835     1048.564     2054.443      393.424        0.476        0.175       77.555       10.993        0.020      345.424       22.943      860.549
08/30/2014  00:56:00      -18.048      -91.014       -2.218       20.376       18.072       16.356      415.174      326.605      267.531        0.481        0.050       92.786        9.459        0.010      345.437       22.966      860.561
08/30/2014  00:57:00      -19.018      -50.655        1.123       18.727       21.805       22.948      350.714      475.453      526.623        0.214        0.068       54.107        5.434        0.010      345.338       22.797      860.569
08/30/2014  00:58:00       -8.529      -33.416       -0.776       27.386       34.609       26.903      749.990     1197.811      723.797        0.193        0.134       34.487       19.737        0.328      345.193       22.550      860.583
08/30/2014  00:59:00      -34.582      -12.771        4.277       29.806       20.089       17.085      888.395      403.563      291.898        0.148        0.079       36.865        8.226        0.050      345.199       22.558      860.605
08/30/2014  01:00:00      -34.771      -34.370        6.315       26.170       23.655       14.584      684.867      559.570      212.700        0.194        0.073       48.891       11.916        0.059      345.217       22.590      860.603
08/30/2014  01:01:00       23.618      -14.407       -5.704       11.030       32.996       12.479      121.651     1088.732      155.737        0.108        0.068       27.665       11.424        0.171      345.301       22.732      860.589
08/30/2014  01:02:00       43.719       55.047       -0.459       12.325       14.372       10.609      151.914      206.558      112.541        0.271        0.024       70.296        5.580        0.006      345.093       22.379      860.573
08/30/2014  01:03:00       33.117       31.369       13.135       20.044       18.755       17.616      401.756      351.745      310.330        0.166        0.053       45.616       11.196        0.060      345.085       22.365      860.573
08/30/2014  01:04:00       47.915       31.263        8.946       14.278       16.880       19.240      203.849      284.933      370.194        0.211        0.043       57.212        8.975        0.025      345.055       22.314      860.591
08/30/2014  01:05:00       41.573       22.723        1.545       20.814       20.832       14.055      433.205      433.966      197.556        0.166        0.053       47.378        9.283        0.038      344.965       22.157      860.614
08/30/2014  01:06:00       48.287       29.238        5.840       17.152       16.006       14.706      294.188      256.186      216.252        0.199        0.038       56.449        8.157        0.021      344.874       22.004      860.622
08/30/2014  01:07:00       73.291       45.771        8.908       19.338       20.079       17.033      373.974      403.183      290.123        0.431        0.053       86.410        7.847        0.008      344.820       21.911      860.626
08/30/2014  01:08:00       70.345       49.281       19.166       22.409       16.945       18.018      502.181      287.124      324.646        0.443        0.056       85.889       11.724        0.019      344.785       21.850      860.622
08/30/2014  01:09:00       89.781       57.402       17.409       17.517       16.474       18.591      306.839      271.386      345.637        0.629        0.046      106.563        8.595        0.007      344.731       21.759      860.620
08/30/2014  01:10:00       97.571       63.132       37.484       49.033       30.422       33.495     2404.204      925.495     1121.931        0.968        0.223      116.214       30.919        0.071      344.729       21.753      860.622
08/30/2014  01:11:00      112.427       12.138       20.617       58.127       47.157       40.738     3378.711     2223.750     1659.589        1.024        0.363      113.081       28.789        0.065      344.758       21.804      860.618
08/30/2014  01:12:00      127.011       41.804       27.060       46.218       37.350       32.902     2136.068     1395.021     1082.536        1.161        0.231      133.714       20.167        0.023      344.730       21.756      860.623
08/30/2014  01:13:00      121.927       54.152       25.275       45.666       40.696       29.732     2085.339     1656.135      884.014        1.153        0.231      133.412       19.937        0.022      344.694       21.692      860.621
08/30/2014  01:14:00      124.141       53.528       11.648       49.339       42.629       37.502     2434.310     1817.194     1406.399        1.203        0.283      135.190       27.354        0.041      344.707       21.716      860.608
08/30/2014  01:15:00       61.331       24.574       19.063       60.143       42.985       36.627     3617.231     1847.735     1341.503        0.577        0.340       66.071       38.025        0.331      344.767       21.820      860.625
08/30/2014  01:16:00       -0.982       -6.158       32.220       14.319       21.271       12.307      205.047      452.439      151.471        0.094        0.040        6.236        6.387        1.049      344.823       21.916      860.663
08/30/2014  01:17:00       52.320      -81.336        2.407       45.731       56.071       23.427     2091.314     3143.919      548.846        0.757        0.289       96.710       33.965        0.123      344.833       21.933      860.697
08/30/2014  01:18:00       57.066      -53.156       12.770       51.128       65.909       44.754     2614.061     4343.959     2002.913        0.760        0.448       77.988       49.085        0.396      344.741       21.774      860.690
08/30/2014  01:19:00       65.231      -43.654       18.604       59.774       48.638       46.390     3572.872     2365.627     2152.028        0.730        0.405       78.491       31.748        0.164      344.761       21.808      860.663
08/30/2014  01:20:00       26.504      -12.039       44.294       50.236       47.813       35.112     2523.622     2286.051     1232.862        0.442        0.302       29.110       32.692        1.261      344.768       21.819      860.651
08/30/2014  01:21:00       29.649        3.645       50.278       37.738       50.939       31.719     1424.149     2594.765     1006.115        0.422        0.251       29.872       34.359        1.323      344.801       21.877      860.647
08/30/2014  01:22:00       21.423        4.816       42.608       26.436       28.826       16.562      698.884      830.927      274.315        0.205        0.090       21.958       15.932        0.526      344.779       21.841      860.651
08/30/2014  01:23:00       18.800      -26.264       16.329       22.287       27.375       18.655      496.726      749.381      348.024        0.145        0.080       32.299       15.354        0.226      344.788       21.854      860.659
08/30/2014  01:24:00       48.521      -92.133       -8.832       20.438       20.495       14.792      417.706      420.035      218.797        0.599        0.053      104.129        8.991        0.007      344.870       21.997      860.665
08/30/2014  01:25:00       64.663      -79.836      -17.518       26.827       35.357       15.281      719.685     1250.122      233.502        0.653        0.110      102.738       14.440        0.020      344.839       21.941      860.684
08/30/2014  01:26:00       95.367     -100.559       -6.435       26.338       23.140       17.756      693.690      535.448      315.266        1.040        0.077      138.589       12.394        0.008      344.878       22.009      860.707
08/30/2014  01:27:00       51.531      -34.557       12.316       37.758       42.623       27.155     1425.652     1816.730      737.412        0.399        0.199       62.046       27.742        0.200      344.818       21.906      860.713
08/30/2014  01:28:00        9.716       29.751       42.342       21.092       17.075       18.492      444.876      291.566      341.948        0.193        0.054       31.298       13.619        0.189      344.809       21.891      860.694
08/30/2014  01:29:00       35.945       30.375       19.395       12.666       12.046       11.956      160.423      145.112      142.943        0.152        0.022       47.060        7.157        0.023      344.918       22.077      860.690
08/30/2014  01:30:00       63.229       47.860       26.392       16.376        9.110       13.823      268.161       82.995      191.067        0.376        0.027       79.300       10.949        0.019      344.985       22.190      860.659
08/30/2014  01:31:00       49.540       38.647       28.389       24.846       16.730       16.222      617.339      279.877      263.149        0.296        0.058       62.832        7.189        0.013      344.975       22.178      860.618
08/30/2014  01:32:00       18.468        7.019       29.199       18.824       11.816       16.663      354.353      139.615      277.672        0.101        0.039       19.757       10.296        0.272      344.988       22.198      860.613
08/30/2014  01:33:00       -8.808      -38.756       -8.486       23.316       19.393       12.868      543.654      376.070      165.580        0.137        0.054       39.744       12.075        0.092      344.932       22.103      860.634
08/30/2014  01:34:00       10.786      -16.491       12.341       34.846       20.350       14.975     1214.261      414.111      224.253        0.120        0.093       19.705       16.943        0.739      344.805       21.884      860.659
08/30/2014  01:35:00      -69.441      -68.178        4.704       46.018       41.480       26.139     2117.691     1720.567      683.252        0.701        0.226       97.316       18.859        0.038      344.783       21.847      860.667
08/30/2014  01:36:00      -56.512      -45.377       -6.716       37.602       37.226       23.477     1413.902     1385.743      551.170        0.432        0.168       72.475       22.531        0.097      344.717       21.733      860.659
08/30/2014  01:37:00      -58.300      -40.608       -3.271       46.672       28.506       23.354     2178.306      812.574      545.403        0.430        0.177       71.049       25.476        0.129      344.703       21.710      860.641
08/30/2014  01:38:00      -74.245      -59.648       -1.231       44.570       29.329       20.550     1986.516      860.187      422.300        0.617        0.163       95.237       23.152        0.059      344.783       21.848      860.626
08/30/2014  01:39:00      -54.661      -42.460       -1.021       24.951       21.071       13.675      622.569      443.995      187.018        0.302        0.063       69.215        8.738        0.016      344.810       21.891      860.619
08/30/2014  01:40:00      -46.634      -17.551        1.785       24.279       15.137       12.862      589.490      229.130      165.443        0.173        0.049       49.828       15.325        0.095      344.837       21.940      860.594
08/30/2014  01:41:00      -63.594        6.752       -2.157       20.208       11.555        7.570      408.350      133.520       57.309        0.235        0.030       63.952        8.398        0.017      344.811       21.896      860.577
08/30/2014  01:42:00      -66.907       28.178       -8.357       23.359       33.574       14.633      545.650     1127.214      214.115        0.361        0.094       72.599       11.727        0.026      344.728       21.753      860.562
08/30/2014  01:43:00      -29.701       71.300       -5.234       30.486       27.383       14.964      929.402      749.847      223.913        0.395        0.095       77.239       16.555        0.046      344.898       22.044      860.510
08/30/2014  01:44:00       18.231       53.053      -12.474       12.905       16.833        7.667      166.539      283.365       58.777        0.191        0.025       56.098        7.191        0.016      344.875       22.003      860.473
08/30/2014  01:45:00       -2.297       16.041        8.867       16.125       11.728       10.471      260.007      137.546      109.645        0.042        0.025       16.205        4.507        0.077      344.991       22.200      860.457
08/30/2014  01:46:00       41.419       39.902       18.748       24.891        9.355       11.066      619.539       87.524      122.453        0.224        0.041       57.513        2.304        0.002      344.954       22.139      860.426
08/30/2014  01:47:00       51.338       11.818       20.873       34.913       17.356       21.601     1218.946      301.235      466.606        0.260        0.099       52.681       12.828        0.059      344.703       21.710      860.420
08/30/2014  01:48:00        5.231      -43.784        0.211       31.521       25.207       20.484      993.563      635.404      419.605        0.200        0.102       44.095       16.246        0.136      344.780       21.843      860.455
08/30/2014  01:49:00      -39.261      -42.986       -4.551       24.027       17.033       11.114      577.319      290.108      123.521        0.220        0.050       58.217        9.790        0.028      344.971       22.169      860.479
08/30/2014  01:50:00       28.826       21.429       13.920       23.372       27.061       21.926      546.231      732.287      480.770        0.162        0.088       35.918       19.515        0.295      344.896       22.040      860.475
08/30/2014  01:51:00      -18.592        6.796       27.640       13.016       23.644       16.468      169.424      559.016      271.181        0.108        0.050       19.795       16.168        0.667      344.739       21.771      860.452
08/30/2014  01:52:00       26.142      -15.699       10.694       12.252       13.927       10.135      150.108      193.974      102.709        0.075        0.022       30.493        7.812        0.066      344.775       21.834      860.451
08/30/2014  01:53:00       22.031      -19.766       19.607       24.782       28.172       19.187      614.141      793.646      368.127        0.152        0.089       29.598       14.923        0.254      344.884       22.020      860.432
08/30/2014  01:54:00       10.862       28.899       34.379       34.452       28.464       26.253     1186.959      810.193      689.244        0.241        0.134       30.872       17.109        0.307      344.847       21.956      860.410
08/30/2014  01:55:00      -10.909      -27.876       13.415       14.722       15.423       22.146      216.730      237.854      490.452        0.101        0.047       29.934       11.495        0.147      344.833       21.932      860.421
08/30/2014  01:56:00      -61.777       28.478       -3.067       35.075       33.907       21.949     1230.236     1149.681      481.761        0.375        0.143       68.025       22.338        0.108      344.705       21.714      860.439
08/30/2014  01:57:00     -154.530       58.574      -13.463       46.426       28.004       21.107     2155.399      784.244      445.493        1.544        0.169      165.258       17.214        0.011      344.677       21.664      860.449
08/30/2014  01:58:00      -79.103       22.111       -9.163       20.881       40.546       14.948      436.008     1643.965      223.433        0.457        0.115       82.135       13.725        0.028      344.765       21.817      860.460
08/30/2014  01:59:00      -39.130      -44.529       -7.614       44.371       29.224       21.925     1968.752      854.046      480.696        0.344        0.165       59.279       22.379        0.143      344.735       21.764      860.473
08/30/2014  02:00:00      -67.633      -35.821       -4.434       37.272       21.291       18.261     1389.180      453.289      333.465        0.403        0.109       76.533       13.217        0.030      344.812       21.896      860.464
08/30/2014  02:01:00      -52.071      -14.774        3.419       29.558       29.548       15.907      873.680      873.106      253.027        0.247        0.100       54.126       12.273        0.051      344.793       21.862      860.445
08/30/2014  02:02:00       -7.460      -56.118        0.796       20.753       25.925       14.501      430.677      672.089      210.289        0.226        0.066       56.611       10.792        0.036      344.836       21.936      860.441
08/30/2014  02:03:00       18.271      -44.635       10.386       11.816       17.345       10.983      139.607      300.851      120.617        0.150        0.028       48.230        9.074        0.035      344.828       21.921      860.446
08/30/2014  02:04:00      -39.904      -22.289        1.031       13.707       14.876       11.774      187.890      221.289      138.626        0.132        0.027       45.707        9.948        0.047      344.785       21.849      860.449
08/30/2014  02:05:00      -89.621      -27.638       -3.911       23.465       14.911       12.524      550.588      222.328      156.842        0.487        0.046       93.786       12.231        0.017      344.752       21.793      860.460
08/30/2014  02:06:00     -101.721      -40.039       -3.812       20.669       15.565       10.555      427.223      242.272      111.414        0.637        0.039      109.317        9.376        0.007      344.699       21.701      860.453
08/30/2014  02:07:00      -79.731      -39.413        1.101       31.205       18.521       12.418      973.755      343.023      154.207        0.469        0.074       88.940       14.917        0.028      344.694       21.695      860.441
08/30/2014  02:08:00      -40.641      -27.561        4.677       38.365       21.876       13.842     1471.889      478.562      191.596        0.229        0.107       49.105       17.246        0.123      344.691       21.691      860.435
08/30/2014  02:09:00     -123.250      -57.349       -0.876       19.363       25.576       15.325      374.938      654.152      234.862        0.987        0.063      135.939        8.292        0.004      344.674       21.661      860.460
08/30/2014  02:10:00      -48.105       -8.898       -4.356       32.646       23.004       13.352     1065.753      529.199      178.270        0.209        0.089       48.921       11.433        0.055      344.597       21.530      860.472
08/30/2014  02:11:00        2.671       -3.795        6.244       15.136       14.145        9.842      229.089      200.083       96.864        0.029        0.026        4.641        9.330        4.042      344.626       21.579      860.444
08/30/2014  02:12:00      -44.417       59.388      -12.808       70.248       27.556       24.595     4934.827      759.333      604.911        0.598        0.315       74.160       19.479        0.069      344.783       21.845      860.437
08/30/2014  02:13:00     -126.935       75.376      -15.821       47.772       41.490       28.662     2282.132     1721.443      821.537        1.343        0.241      147.628       27.823        0.036      344.792       21.862      860.426
08/30/2014  02:14:00     -319.680      -57.528      -13.917      205.235      159.646       67.249    42121.514    25486.686     4522.363        8.890        3.607      324.815       70.474        0.047      345.223       22.598      860.380
08/30/2014  02:15:00     -437.400      -65.777      -32.444      131.007      154.010       61.132    17162.796    23719.223     3737.120       12.065        2.231      442.319       55.856        0.016      345.683       23.385      860.379
08/30/2014  02:16:00     -215.648      -39.964      -14.876       89.007       72.827       27.089     7922.269     5303.712      733.817        3.114        0.698      219.320       13.565        0.004      345.112       22.408      860.434
08/30/2014  02:17:00     -122.913        7.505      -19.332       61.494       38.944       18.985     3781.525     1516.609      360.438        1.060        0.283      123.142       18.818        0.023      345.250       22.646      860.402
08/30/2014  02:18:00     -181.705      -52.978       -6.375       52.755       37.597       22.795     2783.082     1413.555      519.595        2.029        0.236      189.270       20.497        0.012      345.261       22.664      860.392
08/30/2014  02:19:00     -134.632       30.750       -0.720       50.059       41.113       27.665     2505.867     1690.316      765.369        1.202        0.248      138.099       24.618        0.032      345.479       23.037      860.394
08/30/2014  02:20:00      -60.379      -73.735        6.507      117.366       51.046       36.608    13774.817     2605.709     1340.124        1.342        0.886       95.302       44.816        0.221      345.252       22.647      860.368
08/30/2014  02:21:00     -139.628      -13.149       -0.837       91.723       85.769       46.764     8413.109     7356.289     2186.900        1.881        0.898      140.245       45.751        0.106      345.231       22.613      860.389
08/30/2014  02:22:00     -163.456      -76.536        5.734       98.142       75.407       50.382     9631.908     5686.233     2538.307        2.523        0.893      180.487       47.363        0.069      345.311       22.748      860.416
08/30/2014  02:23:00     -169.096      -85.431        1.294      113.980       73.779       45.935    12991.491     5443.374     2110.029        2.822        1.027      189.451       48.737        0.066      345.276       22.689      860.418
08/30/2014  02:24:00     -165.248      -75.068       -4.117      104.565       63.147       44.200    10933.828     3987.527     1953.634        2.491        0.844      181.500       45.364        0.062      345.271       22.678      860.412
08/30/2014  02:25:00     -218.245      -72.968       -0.346      127.556       63.241       42.412    16270.455     3999.388     1798.785        3.751        1.103      230.120       52.558        0.052      345.281       22.696      860.416
08/30/2014  02:26:00     -112.017      -79.025       13.428      114.250       98.463       58.966    13053.144     9694.882     3476.963        2.259        1.311      137.087       61.862        0.204      345.557       23.169      860.407
08/30/2014  02:27:00     -155.579        7.214      -13.128       58.520       60.477       35.750     3424.647     3657.423     1278.075        1.639        0.418      155.746       31.810        0.042      345.748       23.501      860.388
08/30/2014  02:28:00     -178.878       -8.072      -10.738       82.274       63.516       41.368     6768.935     4034.238     1711.293        2.234        0.626      179.060       42.852        0.057      345.656       23.339      860.365
08/30/2014  02:29:00     -142.644      -45.564      -10.753       78.701       62.164       53.300     6193.907     3864.418     2840.925        1.772        0.645      149.745       46.124        0.095      345.638       23.310      860.358
08/30/2014  02:30:00     -161.241      -48.480       -5.484       62.879       43.820       31.336     3953.828     1920.210      981.934        1.762        0.343      168.372       34.809        0.043      345.684       23.389      860.336
08/30/2014  02:31:00     -229.474      -63.596        7.190      119.650       76.794       42.378    14316.224     5897.336     1795.900        3.938        1.100      238.124       57.127        0.058      345.778       23.550      860.313
08/30/2014  02:32:00     -135.047      -89.513       19.266      129.091       92.233       68.285    16664.502     8506.934     4662.849        2.822        1.492      162.019       76.639        0.224      345.806       23.598      860.293
08/30/2014  02:33:00     -219.024     -129.071       -8.865      103.028       91.483       49.000    10614.759     8369.135     2401.025        4.304        1.069      254.226       49.260        0.038      345.798       23.584      860.298
08/30/2014  02:34:00     -159.451      -28.314       -2.771      141.847       59.436       49.052    20120.682     3532.604     2406.082        2.614        1.303      161.946       64.920        0.161      345.805       23.596      860.306
08/30/2014  02:35:00     -207.701      -33.060      -16.209      106.774       79.876       40.918    11400.595     6380.101     1674.293        3.197        0.973      210.315       46.523        0.049      345.999       23.927      860.290
08/30/2014  02:36:00     -114.943       41.418        0.331       69.988       58.893       41.016     4898.345     3468.387     1682.279        1.249        0.502      122.178       24.764        0.041      345.912       23.782      860.283
08/30/2014  02:37:00     -278.556      -33.694      -12.747       88.206       88.885       47.761     7780.371     7900.581     2281.158        4.842        0.898      280.586       48.240        0.030      345.840       23.655      860.295
08/30/2014  02:38:00     -213.162     -115.254       -9.415      113.462       98.124       53.839    12873.727     9628.278     2898.653        4.210        1.270      242.325       54.717        0.051      345.749       23.499      860.314
08/30/2014  02:39:00     -354.008      -25.490      -28.565      132.448       77.193       56.044    17542.458     5958.689     3140.899        7.671        1.332      354.924       61.909        0.030      345.804       23.593      860.317
08/30/2014  02:40:00     -141.410       13.785       10.950      140.550      138.147       58.850    19754.250    19084.621     3463.317        3.130        2.115      142.080       73.791        0.270      345.765       23.526      860.325
08/30/2014  02:41:00     -281.552      -81.362      -11.144       86.818       92.589       44.534     7537.320     8572.732     1983.298        5.205        0.905      293.072       47.099        0.026      345.877       23.719      860.340
08/30/2014  02:42:00     -329.877      -27.090      -22.644      108.357      106.461       55.485    11741.253    11333.931     3078.547        6.810        1.308      330.987       55.449        0.028      345.952       23.846      860.350
08/30/2014  02:43:00     -276.159      -81.604       -1.866      142.704      101.171       71.770    20364.375    10235.592     5150.925        5.933        1.788      287.963       72.585        0.064      345.887       23.737      860.355
08/30/2014  02:44:00     -322.874      -78.694       -2.313      140.966      125.081       63.859    19871.409    15645.179     4077.938        7.501        1.980      332.325       62.581        0.035      345.890       23.741      860.362
08/30/2014  02:45:00     -150.263     -158.551        3.032      133.246       79.293       57.749    17754.490     6287.419     3334.937        3.755        1.369      218.443       61.909        0.080      346.002       23.933      860.362
08/30/2014  02:46:00     -112.833      -63.506       15.434       58.123       53.488       37.749     3378.300     2860.933     1425.014        1.233        0.383      129.477       34.447        0.071      345.910       23.777      860.348
08/30/2014  02:47:00     -156.797     -143.465       -8.100       82.536       77.088       42.436     6812.224     5942.635     1800.852        2.989        0.728      212.526       34.972        0.027      345.914       23.783      860.347
08/30/2014  02:48:00     -162.349     -109.610        4.413       81.080       65.374       40.040     6574.024     4273.696     1603.180        2.542        0.623      195.886       44.733        0.052      345.834       23.646      860.337
08/30/2014  02:49:00     -129.045      -59.097        1.779      100.034       53.911       38.695    10006.705     2906.441     1497.301        1.728        0.721      141.933       50.068        0.124      345.711       23.435      860.340
08/30/2014  02:50:00      -77.532       -8.946        0.857       89.447       43.662       36.909     8000.843     1906.346     1362.295        0.868        0.563       78.046       44.727        0.328      345.673       23.371      860.322
08/30/2014  02:51:00     -144.541      -14.456      -17.140       64.486       73.566       32.376     4158.430     5411.949     1048.194        1.600        0.531      145.262       24.373        0.028      345.688       23.395      860.319
08/30/2014  02:52:00     -212.062      -22.680      -11.085       99.925       88.987       52.335     9984.909     7918.663     2738.948        3.312        1.032      213.272       48.641        0.052      345.785       23.562      860.305
08/30/2014  02:53:00     -242.197      -88.536        8.292      137.066      108.836       60.495    18787.073    11845.258     3659.674        5.042        1.715      257.872       71.060        0.076      345.867       23.702      860.293
08/30/2014  02:54:00     -251.578      -90.388        0.025      146.725       99.032       50.375    21528.146     9807.417     2537.666        5.266        1.694      267.323       59.008        0.049      345.937       23.822      860.278
08/30/2014  02:55:00     -183.006      -75.969       -6.990       82.535       72.722       40.775     6811.975     5288.465     1662.596        2.653        0.688      198.148       35.346        0.032      345.888       23.739      860.291
08/30/2014  02:56:00     -230.843       22.552      -24.517       78.597       63.665       40.425     6177.416     4053.295     1634.217        3.313        0.593      231.942       47.490        0.042      345.941       23.828      860.299
08/30/2014  02:57:00     -201.904      -86.625       -5.191       60.006       61.015       35.267     3600.694     3722.798     1243.752        2.843        0.428      219.703       28.022        0.016      345.877       23.719      860.295
08/30/2014  02:58:00     -231.043      -39.358      -21.916      109.377       83.087       56.657    11963.410     6903.400     3209.977        3.874        1.104      234.372       58.465        0.062      345.874       23.712      860.294
08/30/2014  02:59:00     -260.610      -36.737      -16.707      111.443      104.729       55.834    12419.602    10968.178     3117.393        4.802        1.325      263.186       59.674        0.051      345.836       23.647      860.289
08/30/2014  03:00:00     -217.838      -98.032      -14.875       98.652       72.355       53.081     9732.204     5235.310     2817.598        3.753        0.889      238.880       40.913        0.029      345.810       23.604      860.287
08/30/2014  03:01:00     -227.646      -67.647        7.600       91.802       94.196       51.011     8427.531     8872.962     2602.109        3.818        0.995      237.484       46.180        0.038      345.821       23.623      860.290
08/30/2014  03:02:00     -229.019      -46.080        1.360       76.409       63.768       42.221     5838.298     4066.327     1782.633        3.313        0.584      233.608       32.231        0.019      345.927       23.805      860.293
08/30/2014  03:03:00     -143.438      -21.511       -3.395       63.468       49.264       33.464     4028.224     2426.898     1119.811        1.431        0.379      145.042       35.374        0.059      345.894       23.749      860.295
08/30/2014  03:04:00     -234.608       -3.632      -19.238       74.569       53.509       38.584     5560.573     2863.161     1488.695        3.267        0.496      234.636       42.489        0.033      345.922       23.796      860.308
08/30/2014  03:05:00     -212.714      -58.571      -25.825       62.903       62.528       37.003     3956.840     3909.709     1369.197        2.929        0.462      220.631       21.070        0.009      345.880       23.724      860.312
08/30/2014  03:06:00     -118.013      -79.395        1.472      118.703       60.237       41.027    14090.415     3628.535     1683.187        1.981        0.970      142.234       51.030        0.129      345.736       23.479      860.301
08/30/2014  03:07:00     -170.657       -8.580       -4.005      116.585       78.094       39.306    13592.040     6098.729     1544.926        2.522        1.062      170.872       39.933        0.055      345.753       23.506      860.294
08/30/2014  03:08:00     -199.904      -47.265       -9.644       44.753       42.641       29.813     2002.815     1818.272      888.840        2.350        0.235      205.416       27.001        0.017      345.754       23.508      860.252
08/30/2014  03:09:00     -203.563      -25.818       -9.702       46.441       45.781       27.219     2156.802     2095.862      740.858        2.359        0.250      205.193       24.668        0.014      345.805       23.595      860.243
08/30/2014  03:10:00     -211.503      -57.676      -11.643       52.898       35.663       28.451     2798.208     1271.884      809.475        2.654        0.244      219.226       24.439        0.012      345.701       23.416      860.244
08/30/2014  03:11:00     -261.351      -67.362       -6.409       92.457       60.936       38.224     8548.285     3713.227     1461.096        4.330        0.686      269.893       36.596        0.018      345.609       23.257      860.254
08/30/2014  03:12:00     -305.130      -32.558      -27.027      126.732       93.814       55.372    16061.025     8801.152     3066.012        6.141        1.396      306.862       62.178        0.041      345.842       23.659      860.254
08/30/2014  03:13:00     -165.734       34.292       -7.334       79.066       89.505       58.301     6251.398     8011.116     3398.973        2.318        0.883      169.244       54.663        0.104      345.575       23.201      860.270
08/30/2014  03:14:00     -217.049       20.640      -32.464       95.054      101.432       47.339     9035.299    10288.393     2240.967        3.507        1.078      218.029       35.080        0.026      345.380       22.866      860.287
08/30/2014  03:15:00     -331.043      -80.916      -28.393      112.286       72.444       53.812    12608.229     5248.092     2895.776        6.884        1.038      340.789       56.602        0.028      345.297       22.721      860.257
08/30/2014  03:16:00      -57.262      -19.838        7.524       94.143       56.944       43.883     8862.830     3242.668     1925.714        0.888        0.702       60.601       27.951        0.213      345.240       22.628      860.246
08/30/2014  03:17:00     -188.938     -115.924       -7.609       74.258       56.873       38.656     5514.240     3234.562     1494.268        2.972        0.512      221.666       30.267        0.019      345.214       22.582      860.241
08/30/2014  03:18:00     -270.052      -56.492       -5.891       94.845       70.185       44.111     8995.652     4925.986     1945.803        4.601        0.793      275.898       41.851        0.023      345.207       22.568      860.221
08/30/2014  03:19:00     -271.004      -30.827      -17.397       96.509       86.501       55.684     9313.900     7482.377     3100.712        4.729        0.995      272.752       52.565        0.037      345.380       22.864      860.198
08/30/2014  03:20:00     -277.036      -43.053       -6.894      117.883       96.068       54.868    13896.511     9229.037     3010.533        5.239        1.307      280.361       53.234        0.036      345.609       23.258      860.196
08/30/2014  03:21:00     -280.255     -113.461       -9.107       88.590       87.412       49.896     7848.229     7640.784     2489.653        5.474        0.899      302.351       42.617        0.020      345.524       23.110      860.196
08/30/2014  03:22:00     -382.651     -122.247      -16.537      145.666      127.634       68.107    21218.647    16290.356     4638.590       10.189        2.107      401.704       69.119        0.030      345.785       23.559      860.188
08/30/2014  03:23:00     -397.161     -103.434        1.688      161.730      106.176       67.871    26156.532    11273.238     4606.485       10.523        2.102      410.409       77.184        0.035      345.943       23.832      860.208
08/30/2014  03:24:00     -455.150     -135.850      -30.221      127.820      112.388       59.015    16338.047    12630.973     3482.761       12.948        1.623      474.991       63.331        0.018      346.110       24.117      860.257
08/30/2014  03:25:00     -293.054      -31.076      -19.592       91.717       89.738       55.412     8411.992     8052.864     3070.460        5.338        0.977      294.697       43.562        0.022      346.132       24.157      860.249
08/30/2014  03:26:00     -198.512      -84.473       -4.485       81.977       86.185       41.461     6720.190     7427.878     1719.031        3.121        0.793      215.738       43.433        0.041      346.168       24.217      860.221
08/30/2014  03:27:00     -184.378     -111.677       -1.955       90.743       47.129       37.764     8234.376     2221.173     1426.118        2.917        0.594      215.562       39.844        0.034      346.203       24.278      860.201
08/30/2014  03:28:00     -161.998      -70.333        1.836       59.830       49.558       29.079     3579.617     2456.015      845.612        1.904        0.344      176.607       30.138        0.029      346.168       24.221      860.190
08/30/2014  03:29:00     -141.182      -66.675       -9.150       67.621       43.784       31.186     4572.574     1917.058      972.567        1.596        0.373      156.134       30.694        0.039      346.107       24.115      860.183
08/30/2014  03:30:00     -146.918      -66.202        2.718       64.757       39.755       22.536     4193.473     1580.441      507.888        1.613        0.314      161.145       20.395        0.016      345.979       23.897      860.186
08/30/2014  03:31:00     -206.234      -88.652       -5.019       57.990       43.757       30.148     3362.879     1914.660      908.883        2.830        0.309      224.481       26.753        0.014      345.948       23.841      860.197
08/30/2014  03:32:00     -108.942      -42.834        1.486       88.668       69.974       42.041     7861.961     4896.410     1767.443        1.411        0.726      117.060       52.301        0.200      345.896       23.753      860.199
08/30/2014  03:33:00        7.046      -21.677       22.994       34.410       33.963       25.233     1184.048     1153.461      636.682        0.201        0.149       22.794       25.873        1.288      345.824       23.630      860.196
08/30/2014  03:34:00        9.017      -33.791      -18.293       26.092       29.618       23.327      680.795      877.210      544.129        0.183        0.105       34.973       17.551        0.252      345.847       23.670      860.200
08/30/2014  03:35:00        9.351       30.210        7.438       33.631       43.147       32.544     1131.052     1861.692     1059.128        0.255        0.203       31.624       22.571        0.509      345.562       23.181      860.206
08/30/2014  03:36:00       58.057        3.619       42.086       63.642       54.514       52.594     4050.323     2971.778     2766.178        0.747        0.489       58.170       51.905        0.796      344.684       21.676      860.199
08/30/2014  03:37:00       24.848      -18.823       32.151       46.986       46.474       41.965     2207.643     2159.809     1761.088        0.407        0.306       31.173       30.353        0.948      344.640       21.602      860.225
08/30/2014  03:38:00       42.663     -100.016       -9.436       68.831       77.934       37.246     4737.775     6073.766     1387.297        1.205        0.610      108.735       47.104        0.188      344.621       21.569      860.248
08/30/2014  03:39:00       41.935      -45.142       24.143       41.820       56.410       29.081     1748.913     3182.033      845.718        0.508        0.289       61.615       30.532        0.246      344.557       21.460      860.251
08/30/2014  03:40:00       61.775     -101.085        4.940       79.042       82.442       40.719     6247.629     6796.640     1658.073        1.438        0.735      118.466       44.233        0.139      344.551       21.448      860.238
08/30/2014  03:41:00       18.717      -49.985       37.174       66.830       71.854       38.039     4466.221     5162.938     1446.990        0.765        0.554       53.374       44.521        0.696      344.559       21.462      860.245
08/30/2014  03:42:00      -17.076      -26.198       19.811       37.334       44.386       25.672     1393.822     1970.151      659.037        0.270        0.201       31.272       17.421        0.310      344.533       21.422      860.284
08/30/2014  03:43:00      -26.715       22.216       -3.743       37.520       25.678       36.250     1407.754      659.357     1314.054        0.230        0.169       34.745       26.844        0.597      344.542       21.436      860.310
08/30/2014  03:44:00       -9.623       -7.529       16.554       45.059       24.038       22.594     2030.348      577.848      510.475        0.177        0.156       12.218       21.871        3.204      344.457       21.289      860.333
08/30/2014  03:45:00       10.530       18.776       28.178       20.812       23.394       16.783      433.147      547.296      281.658        0.126        0.063       21.527       15.112        0.493      344.489       21.344      860.328
08/30/2014  03:46:00      -38.632      -30.944        4.092       69.144       47.359       28.588     4780.909     2242.915      817.257        0.515        0.392       49.497       27.658        0.312      344.499       21.360      860.345
08/30/2014  03:47:00       13.768      -32.046        5.026       49.610       23.291       25.144     2461.154      542.473      632.238        0.244        0.182       34.878       20.947        0.361      344.510       21.381      860.361
08/30/2014  03:48:00        7.143        8.270       10.264       13.878       13.843       11.272      192.604      191.622      127.061        0.037        0.026       10.928        9.930        0.826      344.472       21.313      860.337
08/30/2014  03:49:00       -0.486       16.326       -0.207       11.757        9.205        7.707      138.219       84.726       59.402        0.027        0.014       16.333        5.873        0.129      344.503       21.367      860.333
08/30/2014  03:50:00       15.382       27.416        4.385        9.098       10.819       12.225       82.765      117.054      149.450        0.068        0.017       31.436        9.349        0.088      344.458       21.291      860.319
08/30/2014  03:51:00       -8.696        0.432       -2.958       27.553       15.531        9.730      759.166      241.201       94.672        0.059        0.055        8.707       13.238        2.312      344.484       21.337      860.309
08/30/2014  03:52:00       67.338       13.210       -0.501       44.225       20.236       11.432     1955.878      409.487      130.700        0.360        0.125       68.621       13.962        0.041      344.620       21.569      860.295
08/30/2014  03:53:00       -2.120        1.460       12.676       26.931       23.159       18.805      725.252      536.349      353.638        0.089        0.081        2.574       15.608       36.763      344.571       21.486      860.282
08/30/2014  03:54:00      -28.150      -35.715        5.519       42.849       32.207       17.455     1836.053     1037.282      304.663        0.264        0.159       45.475       20.311        0.199      344.514       21.386      860.295
08/30/2014  03:55:00       -2.120      -13.520       10.109       43.656       35.062       18.858     1905.832     1229.313      355.638        0.189        0.175       13.686       26.708        3.808      344.471       21.314      860.313
08/30/2014  03:56:00       15.300       11.692       10.923       28.265       17.638       14.474      798.893      311.101      209.496        0.090        0.066       19.256       14.805        0.591      344.472       21.315      860.304
08/30/2014  03:57:00       -3.825     -109.484       13.294       51.795       80.903       35.685     2682.710     6545.289     1273.436        1.134        0.525      109.551       22.300        0.041      345.448       22.985      860.282
08/30/2014  03:58:00        4.979      -60.566        3.942       40.200       43.362       26.409     1616.016     1880.269      697.449        0.395        0.210       60.770       26.598        0.192      345.055       22.311      860.266
08/30/2014  03:59:00       19.889      -14.132       25.633       40.196       45.281       28.306     1615.688     2050.386      801.228        0.286        0.223       24.398       27.870        1.305      344.748       21.786      860.247
08/30/2014  04:00:00       56.379       66.290       17.512       21.746       29.893       22.254      472.892      893.612      495.236        0.487        0.093       87.023       22.597        0.067      344.291       21.004      860.221
08/30/2014  04:01:00       92.674       65.833       21.296       44.250       26.166       29.628     1958.063      684.671      877.806        0.845        0.176      113.677       23.610        0.043      344.198       20.846      860.187
08/30/2014  04:02:00       27.063        9.179       27.261       24.012       16.030       16.461      576.582      256.949      270.960        0.133        0.055       28.578        6.689        0.055      344.126       20.723      860.192
08/30/2014  04:03:00       26.399        1.905       21.855       33.249       17.466       13.748     1105.512      305.075      189.013        0.139        0.080       26.468       12.998        0.241      344.209       20.866      860.189
08/30/2014  04:04:00       15.176      -40.316        1.013       29.839       38.259       19.812      890.358     1463.741      392.516        0.230        0.137       43.078       20.739        0.232      344.361       21.125      860.181
08/30/2014  04:05:00       11.838        2.305       -2.667       19.893       16.412       13.486      395.744      269.365      181.875        0.050        0.042       12.060       11.212        0.864      344.301       21.021      860.177
08/30/2014  04:06:00      -23.524       14.226       -2.984       20.693       18.527       16.780      428.194      343.259      281.565        0.091        0.053       27.491       10.824        0.155      344.110       20.695      860.183
08/30/2014  04:07:00       10.706       15.948        6.695        6.645        8.875        8.171       44.151       78.764       66.761        0.030        0.009       19.208        5.164        0.072      344.066       20.621      860.174
08/30/2014  04:08:00       41.189       17.692        3.506       16.700       12.422        7.780      278.883      154.317       60.531        0.126        0.025       44.828        2.931        0.004      344.202       20.855      860.151
08/30/2014  04:09:00       24.153       45.317       42.010       26.556       18.810       26.179      705.239      353.798      685.332        0.307        0.087       51.351       18.933        0.136      343.977       20.468      860.137
08/30/2014  04:10:00       10.473       85.651       94.073       29.655       41.381       25.325      879.417     1712.424      641.361        0.976        0.162       86.289       25.749        0.089      343.974       20.465      860.108
08/30/2014  04:11:00       39.460      107.043      101.931       31.442       35.647       19.357      988.586     1270.678      374.707        1.302        0.132      114.085       19.223        0.028      344.025       20.551      860.097
08/30/2014  04:12:00       22.019       77.805       89.246       39.015       43.055       22.917     1522.199     1853.775      525.184        0.920        0.195       80.861       22.886        0.080      344.041       20.579      860.119
08/30/2014  04:13:00        5.670       -0.087       49.861       30.495       40.664       26.010      929.957     1653.524      676.517        0.289        0.163        5.671       20.843       13.508      344.036       20.569      860.162
08/30/2014  04:14:00       32.397      -55.891       28.939       40.791       56.596       36.285     1663.908     3203.132     1316.626        0.560        0.309       64.602       29.983        0.215      344.150       20.765      860.193
08/30/2014  04:15:00       18.820       -5.909       43.566       43.209       51.921       38.011     1867.052     2695.807     1444.851        0.415        0.300       19.726       30.668        2.417      344.084       20.652      860.196
08/30/2014  04:16:00       58.961       98.853       90.394       50.204       54.113       30.939     2520.481     2928.260      957.251        1.391        0.320      115.101       23.320        0.041      343.959       20.437      860.158
08/30/2014  04:17:00       92.846      108.595       72.326       42.203       37.113       46.178     1781.114     1377.381     2132.374        1.547        0.265      142.876       20.659        0.021      343.989       20.489      860.132
08/30/2014  04:18:00       55.828       27.552       56.431       51.945       43.312       31.876     2698.252     1875.899     1016.051        0.632        0.280       62.256       29.646        0.227      343.959       20.438      860.125
08/30/2014  04:19:00       46.764        6.628       21.051       31.570       17.832       20.354      996.646      317.968      414.273        0.220        0.086       47.232       18.147        0.148      343.940       20.404      860.125
08/30/2014  04:20:00       26.163       -4.474        7.322       35.890       18.572       15.593     1288.098      344.918      243.149        0.132        0.094       26.542        4.891        0.034      343.872       20.291      860.135
08/30/2014  04:21:00       11.959        1.833        5.437       18.909        7.401       13.663      357.554       54.781      186.688        0.039        0.030       12.099        8.113        0.450      343.860       20.270      860.132
08/30/2014  04:22:00       59.336       21.966       19.341       28.074       33.421       19.356      788.136     1116.964      374.648        0.333        0.114       63.271       13.342        0.044      343.845       20.244      860.132
08/30/2014  04:23:00       56.896       63.536       -2.569       37.175       31.162       29.005     1381.974      971.068      841.307        0.524        0.160       85.288       21.360        0.063      343.777       20.128      860.148
08/30/2014  04:24:00       18.073       18.393        3.798       27.294       21.483       20.280      744.969      461.501      411.298        0.115        0.081       25.787       15.527        0.363      343.620       19.860      860.166
08/30/2014  04:25:00       12.008      102.148      -22.430       36.602       27.268       16.042     1339.706      743.532      257.346        0.671        0.117      102.851        8.294        0.007      343.942       20.409      860.189
08/30/2014  04:26:00      -43.103       10.206      -10.393       23.539       32.051       19.978      554.098     1027.256      399.128        0.202        0.099       44.295       18.705        0.178      343.773       20.120      860.207
08/30/2014  04:27:00      -28.088       -4.425        1.464       10.367       11.521        7.847      107.476      132.726       61.570        0.056        0.015       28.435        5.079        0.032      343.636       19.888      860.196
08/30/2014  04:28:00       11.287        3.011       -4.198       18.486        9.636        6.279      341.722       92.850       39.425        0.031        0.024       11.681        4.679        0.160      343.726       20.041      860.179
08/30/2014  04:29:00       30.828       20.808       10.653       13.998       18.949       10.094      195.947      359.072      101.888        0.108        0.033       37.193        9.473        0.065      343.793       20.156      860.159
08/30/2014  04:30:00       25.342       18.222        3.689       13.390       10.883       11.025      179.300      118.434      121.546        0.070        0.021       31.213        5.628        0.033      343.875       20.294      860.148
08/30/2014  04:31:00        2.768      -13.967        5.684       14.493       21.513       18.868      210.050      462.796      355.983        0.063        0.051       14.238        9.261        0.423      343.847       20.248      860.148
08/30/2014  04:32:00       38.139      -64.863       -5.990       17.200       26.266       19.890      295.840      689.906      395.630        0.354        0.069       75.245        7.196        0.009      344.036       20.570      860.139
08/30/2014  04:33:00       25.018      -11.752       11.532       11.103       33.541       11.272      123.273     1125.028      127.060        0.114        0.069       27.641        8.465        0.094      343.956       20.433      860.145
08/30/2014  04:34:00        8.834        2.670       -3.328       11.669        9.708        7.135      136.168       94.242       50.908        0.019        0.014        9.228        5.867        0.404      343.937       20.401      860.139
08/30/2014  04:35:00       -1.741       13.989        6.138        5.792        7.068        6.172       33.548       49.957       38.098        0.018        0.006       14.097        2.150        0.023      343.925       20.379      860.131
08/30/2014  04:36:00      -27.317       32.752       -7.577       10.844       10.901        6.458      117.596      118.827       41.703        0.108        0.014       42.649        7.765        0.033      343.991       20.492      860.135
08/30/2014  04:37:00      -12.724       73.583       -8.426       11.551       16.138        8.128      133.421      260.439       66.058        0.305        0.023       74.675        7.011        0.009      343.995       20.503      860.135
08/30/2014  04:38:00      -14.103       75.875      -11.281        8.523        9.572        6.273       72.640       91.621       39.354        0.314        0.010       77.175        1.775        0.001      344.020       20.545      860.128
08/30/2014  04:39:00      -19.892       43.255       -3.271       14.907       29.945       11.316      222.218      896.705      128.049        0.176        0.062       47.610       11.559        0.059      343.840       20.233      860.131
08/30/2014  04:40:00      -20.758       -7.976        0.577        9.791        4.404        6.408       95.862       19.392       41.068        0.033        0.008       22.238        6.661        0.090      343.628       19.875      860.146
08/30/2014  04:41:00       11.640       -7.297        3.327        5.864        5.658        6.517       34.388       32.018       42.472        0.015        0.005       13.738        5.270        0.147      343.583       19.797      860.156
08/30/2014  04:42:00       45.355       19.404        9.494       22.119       12.546        8.536      489.233      157.404       72.865        0.162        0.036       49.331        7.832        0.025      343.594       19.814      860.159
08/30/2014  04:43:00       82.262       22.782        9.548       20.394       17.152       16.182      415.905      294.183      261.850        0.417        0.049       85.358       12.525        0.022      343.507       19.667      860.155
08/30/2014  04:44:00       50.015       13.111       27.930       32.892       30.100       20.412     1081.891      906.004      416.655        0.293        0.120       51.705       18.059        0.122      343.521       19.691      860.172
08/30/2014  04:45:00       67.284       51.148       43.037       22.366       20.609       15.758      500.243      424.711      248.330        0.508        0.059       84.518        6.199        0.005      343.757       20.092      860.176
08/30/2014  04:46:00       80.989       55.776       32.361       23.028       14.779       15.869      530.271      218.419      251.821        0.586        0.050       98.337       11.120        0.013      343.762       20.102      860.167
08/30/2014  04:47:00       67.613       43.824       31.281       20.269       17.530       13.760      410.837      307.296      189.343        0.419        0.045       80.573        5.522        0.005      343.664       19.934      860.159
08/30/2014  04:48:00       81.456       38.042        8.743       28.717       19.796       16.591      824.675      391.875      275.274        0.483        0.075       89.902       13.937        0.024      343.732       20.051      860.158
08/30/2014  04:49:00       45.876       11.555        4.369       33.844       18.974       13.868     1145.442      360.007      192.322        0.198        0.085       47.309        6.774        0.020      343.607       19.838      860.168
08/30/2014  04:50:00       10.356       18.203        2.135       16.467       11.144       11.572      271.158      124.195      133.917        0.049        0.026       20.943        8.069        0.148      343.524       19.696      860.183
08/30/2014  04:51:00      -47.931        6.509       -9.606       20.946       17.731        7.352      438.738      314.396       54.047        0.162        0.040       48.371        5.071        0.011      343.481       19.624      860.196
08/30/2014  04:52:00      -63.997       21.064       -9.930       22.271       12.989       12.697      495.978      168.701      161.217        0.273        0.041       67.375        5.629        0.007      343.219       19.176      860.203
08/30/2014  04:53:00      -74.625       35.649      -14.554       22.621       22.737       14.921      511.701      516.983      222.623        0.415        0.063       82.703       14.225        0.030      343.232       19.199      860.200
08/30/2014  04:54:00      -57.910       72.670      -18.087       27.719       33.197       14.855      768.346     1102.024      220.682        0.553        0.105       92.922       15.151        0.027      343.370       19.434      860.186
08/30/2014  04:55:00      -17.636       72.491      -11.533       14.117       22.528       13.793      199.278      507.510      190.247        0.330        0.045       74.605       12.538        0.028      343.647       19.905      860.174
08/30/2014  04:56:00      -30.071       14.491       -5.150       17.108       17.731       13.372      292.678      314.406      178.814        0.096        0.039       33.381       11.532        0.119      343.398       19.481      860.188
08/30/2014  04:57:00      -40.214      -27.299       -5.108       16.690       11.010        8.429      278.543      121.231       71.043        0.143        0.024       48.605        7.997        0.027      343.179       19.108      860.199
08/30/2014  04:58:00      -41.170      -26.114       -3.215       18.371       12.194       10.230      337.499      148.705      104.647        0.149        0.030       48.754        3.397        0.005      343.124       19.014      860.194
08/30/2014  04:59:00      -59.351       -8.939       -8.841        7.608       11.739        5.917       57.875      137.793       35.014        0.196        0.012       60.020        3.921        0.004      343.095       18.964      860.172
08/30/2014  05:00:00      -61.241       15.181      -14.848        9.723        6.338        6.702       94.538       40.168       44.911        0.219        0.009       63.094        3.427        0.003      343.199       19.142      860.159
08/30/2014  05:01:00      -10.211        7.651       -6.821       17.703       12.725        7.506      313.386      161.914       56.337        0.037        0.027       12.759        8.875        0.484      343.473       19.609      860.159
08/30/2014  05:02:00       16.782       19.106       -0.440       20.088       15.732        7.895      403.510      247.487       62.331        0.068        0.036       25.430        8.516        0.112      343.556       19.752      860.167
08/30/2014  05:03:00       64.383       43.517       -2.930        8.682        7.944        6.532       75.381       63.101       42.664        0.311        0.009       77.710        2.829        0.001      343.807       20.180      860.174
08/30/2014  05:04:00        0.482       -5.104        4.251       37.687       27.521        9.476     1420.320      757.397       89.800        0.116        0.113        5.127       14.839        8.377      343.491       19.641      860.193
08/30/2014  05:05:00      -72.563      -17.906      -11.155        8.907       15.141       10.180       79.343      229.250      103.635        0.306        0.021       74.740        9.224        0.015      342.993       18.791      860.217
08/30/2014  05:06:00      -61.949      -11.578      -12.975       11.315        8.636        6.477      128.035       74.582       41.953        0.219        0.012       63.022        6.041        0.009      343.102       18.976      860.228
08/30/2014  05:07:00      -41.354        4.917       -8.618        9.624        7.263        5.993       92.614       52.756       35.920        0.099        0.009       41.645        3.684        0.008      343.354       19.406      860.239
08/30/2014  05:08:00      -70.053        1.036      -10.805        7.956        6.662        7.371       63.304       44.388       54.338        0.259        0.008       70.060        4.372        0.004      343.124       19.013      860.251
08/30/2014  05:09:00     -101.255       -1.566      -16.083       27.113       10.950       10.092      735.115      119.894      101.842        0.574        0.048      101.268        7.748        0.006      342.897       18.628      860.247
08/30/2014  05:10:00      -96.172      -11.566       -7.301       23.411       17.349       15.834      548.064      300.974      250.716        0.527        0.055       96.865        9.878        0.010      342.644       18.197      860.247
08/30/2014  05:11:00      -72.599      -12.044       -6.532       25.612       20.184       15.309      655.976      407.401      234.375        0.338        0.065       73.592       11.516        0.024      342.661       18.226      860.240
08/30/2014  05:12:00      -87.980      -39.121      -11.779       25.733       22.261       14.877      662.210      495.543      221.336        0.539        0.069       96.285       14.201        0.022      342.635       18.182      860.228
08/30/2014  05:13:00      -69.393      -22.218       -7.398       34.373       33.326       21.681     1181.469     1110.616      470.082        0.406        0.138       72.863       14.225        0.038      342.576       18.083      860.227
08/30/2014  05:14:00      -85.715      -12.968       -4.585       49.055       32.789       26.044     2406.413     1075.104      678.296        0.585        0.208       86.690       26.399        0.093      342.652       18.211      860.239
08/30/2014  05:15:00      -88.171      -24.564       -2.772       42.004       33.681       22.056     1764.322     1134.382      486.453        0.588        0.169       91.529       22.593        0.061      342.608       18.137      860.242
08/30/2014  05:16:00     -105.312      -33.321       -1.493       50.910       34.050       19.271     2591.825     1159.381      371.371        0.816        0.206      110.458       17.816        0.026      342.558       18.052      860.219
08/30/2014  05:17:00     -133.026      -10.731      -10.805       30.437       26.075       19.626      926.401      679.910      385.180        0.996        0.100      133.458       18.668        0.020      342.548       18.035      860.215
08/30/2014  05:18:00      -90.871      -16.458       -3.386       36.426       30.277       17.345     1326.844      916.687      300.837        0.554        0.127       92.350       13.594        0.022      342.466       17.895      860.201
08/30/2014  05:19:00      -89.817      -18.668       -3.855       34.389       33.140       19.730     1182.590     1098.253      389.276        0.555        0.134       91.737       14.075        0.024      342.493       17.941      860.183
08/30/2014  05:20:00      -77.596       -9.467       -1.207       39.756       29.987       22.348     1580.508      899.239      499.424        0.455        0.149       78.172       21.054        0.073      342.451       17.871      860.186
08/30/2014  05:21:00      -24.503       -3.847        6.495       22.752       25.835       18.808      517.666      667.470      353.749        0.110        0.077       24.803       12.180        0.241      342.465       17.894      860.189
08/30/2014  05:22:00      -80.523      -27.195       -2.679       29.647       24.103       18.863      878.919      580.960      355.816        0.452        0.091       84.992       11.932        0.020      342.523       17.992      860.185
08/30/2014  05:23:00      -64.170      -34.742        1.254       27.826       25.038       16.887      774.286      626.900      285.186        0.351        0.084       72.971       15.500        0.045      342.504       17.960      860.191
08/30/2014  05:24:00      -34.829        6.796       -5.948       30.238       25.635       14.646      914.358      657.149      214.495        0.154        0.089       35.486        9.663        0.074      342.673       18.246      860.177
08/30/2014  05:25:00      -58.201       13.792       -3.827       23.127       27.904       10.378      534.861      778.654      107.704        0.251        0.071       59.813        8.164        0.019      342.770       18.412      860.173
08/30/2014  05:26:00      -61.941      -17.166       -5.365       14.593       20.759       12.781      212.966      430.947      163.354        0.248        0.040       64.276        7.720        0.014      342.556       18.048      860.185
08/30/2014  05:27:00      -69.284      -29.525      -13.410       19.263       17.646       13.229      371.059      311.391      174.996        0.335        0.043       75.313        7.004        0.009      342.531       18.007      860.180
08/30/2014  05:28:00     -104.011      -13.370      -14.528       29.830       23.865       16.295      889.847      569.559      265.511        0.647        0.086      104.867       10.882        0.011      342.513       17.976      860.182
08/30/2014  05:29:00      -63.345       -7.194      -10.723       22.109       17.617       15.814      488.806      310.355      250.094        0.261        0.052       63.752        7.961        0.016      342.589       18.105      860.167
08/30/2014  05:30:00     -113.969      -40.410      -13.084       30.963       21.190       14.190      958.724      449.011      201.366        0.820        0.080      120.921       10.019        0.007      342.426       17.830      860.138
08/30/2014  05:31:00     -139.427      -22.841      -22.196       51.128       36.186       20.596     2614.112     1309.411      424.182        1.240        0.217      141.286       17.771        0.016      342.203       17.447      860.136
08/30/2014  05:32:00      -74.598       18.356      -10.731       32.438       35.663       21.053     1052.228     1271.868      443.248        0.439        0.138       76.824       13.783        0.032      342.141       17.342      860.130
08/30/2014  05:33:00      -57.926       27.776       -8.987       20.730       23.011       16.028      429.727      529.488      256.909        0.271        0.061       64.241       12.474        0.038      342.686       18.270      860.100
08/30/2014  05:34:00      -56.481       14.326      -12.302       17.527       17.544       13.970      307.211      307.798      195.157        0.218        0.041       58.269       11.850        0.041      342.712       18.313      860.098
08/30/2014  05:35:00      -68.263        2.843      -12.949       14.022       18.014       11.334      196.625      324.508      128.455        0.274        0.032       68.323        9.625        0.020      342.792       18.450      860.101
08/30/2014  05:36:00      -70.778      -12.060      -13.806       19.478       16.908        8.819      379.385      285.877       77.772        0.304        0.037       71.798        8.284        0.013      342.518       17.984      860.102
08/30/2014  05:37:00      -95.474       27.326      -20.033       20.115       21.173       14.127      404.611      448.313      199.586        0.566        0.053       99.308       12.934        0.017      342.586       18.098      860.109
08/30/2014  05:38:00     -108.218       57.027      -22.432       23.447       21.345       17.063      549.751      455.589      291.129        0.838        0.065      122.324       12.324        0.010      343.021       18.839      860.101
08/30/2014  05:39:00      -95.666       44.151      -20.286       31.714       36.644       17.716     1005.796     1342.777      313.850        0.709        0.133      105.363       21.156        0.040      342.994       18.793      860.107
08/30/2014  05:40:00      -74.420       15.986      -12.916       30.642       25.783       20.732      938.962      664.757      429.809        0.400        0.102       76.117       19.151        0.063      342.679       18.259      860.110
08/30/2014  05:41:00      -98.374        6.590      -12.015       47.337       24.137       20.519     2240.750      582.593      421.020        0.655        0.162       98.595       20.902        0.045      342.499       17.949      860.111
08/30/2014  05:42:00     -110.980       -1.644      -13.023       37.252       24.457       22.793     1387.712      598.145      519.533        0.750        0.125      110.992       18.949        0.029      342.491       17.937      860.124
08/30/2014  05:43:00     -139.502       -4.357       -7.402       45.085       31.313       24.471     2032.652      980.526      598.825        1.157        0.181      139.570       24.721        0.031      342.507       17.964      860.131
08/30/2014  05:44:00     -111.302        3.860       -8.117       51.553       32.838       27.993     2657.749     1078.326      783.610        0.849        0.226      111.369       30.389        0.074      342.429       17.833      860.123
08/30/2014  05:45:00     -114.077       30.300      -16.442       45.197       35.522       23.264     2042.753     1261.786      541.232        0.902        0.192      118.032        4.327        0.001      342.489       17.933      860.117
08/30/2014  05:46:00     -101.129       -1.791       -5.843       38.626       29.880       21.046     1491.936      892.786      442.942        0.655        0.141      101.145       18.046        0.032      342.494       17.945      860.112
08/30/2014  05:47:00      -87.186        5.030       -8.855       46.324       38.550       24.369     2145.954     1486.098      593.855        0.596        0.211       87.331       24.786        0.081      342.393       17.772      860.107
08/30/2014  05:48:00     -128.887       16.326      -10.010       40.772       30.666       21.549     1662.350      940.385      464.376        1.002        0.153      129.917       21.007        0.026      342.422       17.820      860.105
08/30/2014  05:49:00     -106.246       11.690      -12.947       33.937       29.578       22.522     1151.722      874.845      507.263        0.706        0.127      106.887       18.086        0.029      342.290       17.597      860.119
08/30/2014  05:50:00     -108.488        2.462      -11.592       34.463       31.332       15.140     1187.705      981.667      229.206        0.715        0.120      108.516       14.241        0.017      342.412       17.803      860.125
08/30/2014  05:51:00      -84.220       13.667       -7.872       30.197       26.519       19.419      911.884      703.239      377.097        0.467        0.100       85.322       16.453        0.037      342.381       17.750      860.141
08/30/2014  05:52:00     -108.934       45.592      -13.086       40.000       38.792       27.182     1600.013     1504.821      738.852        0.898        0.192      118.090       27.256        0.053      342.626       18.169      860.165
08/30/2014  05:53:00     -132.369       82.337      -17.441       45.980       50.966       30.362     2114.166     2597.504      921.875        1.512        0.282      155.888       19.439        0.016      342.827       18.507      860.181
08/30/2014  05:54:00     -168.447      147.483      -32.866       59.097       72.556       51.086     3492.503     5264.377     2609.751        3.128        0.568      223.887       40.118        0.032      343.061       18.905      860.207
08/30/2014  05:55:00     -124.151      117.474      -17.458       58.542       79.322       40.999     3427.191     6291.904     1680.894        2.046        0.570      170.920       34.813        0.041      342.984       18.775      860.232
08/30/2014  05:56:00     -113.084       45.941      -20.943       55.123       59.386       31.526     3038.528     3526.753      993.894        1.145        0.378      122.060       29.006        0.056      342.781       18.429      860.243
08/30/2014  05:57:00     -154.152      175.104      -31.133       63.976       72.659       43.661     4092.933     5279.276     1906.303        3.333        0.564      233.291       36.185        0.024      343.256       19.237      860.253
08/30/2014  05:58:00      -99.165       87.041      -19.220       44.621       54.834       27.661     1991.067     3006.748      765.154        1.177        0.288      131.946       23.137        0.031      343.139       19.042      860.277
08/30/2014  05:59:00     -114.273       42.286       -8.837       60.577       42.139       30.871     3669.588     1775.681      953.016        1.066        0.320      121.846       29.964        0.060      343.120       19.008      860.288
08/30/2014  06:00:00     -112.125      100.574      -17.307       56.500       64.059       34.488     3192.227     4103.514     1189.439        1.573        0.424      150.623       30.260        0.040      343.282       19.283      860.298
08/30/2014  06:01:00     -117.671       83.622      -18.124       51.725      103.653       47.128     2675.507    10743.943     2221.005        1.840        0.782      144.358       37.302        0.067      343.116       18.999      860.297
08/30/2014  06:02:00     -118.423       77.670      -13.192       46.275       64.548       29.413     2141.407     4166.390      865.111        1.370        0.359      141.622       23.607        0.028      343.181       19.110      860.292
08/30/2014  06:03:00     -172.066      110.753      -38.052       43.820       62.599       29.925     1920.155     3918.608      895.535        2.503        0.337      204.629       27.611        0.018      343.350       19.396      860.293
08/30/2014  06:04:00     -149.033       72.214      -16.777       51.911       49.042       27.831     2694.776     2405.088      774.542        1.679        0.294      165.607       16.583        0.010      343.413       19.507      860.316
08/30/2014  06:05:00     -109.189       11.328       -9.182       68.795       54.872       33.053     4732.770     3010.907     1092.493        1.048        0.442      109.775       26.518        0.058      343.320       19.349      860.345
08/30/2014  06:06:00     -148.998      106.599      -35.581       44.139       66.288       30.789     1948.277     4394.094      947.985        2.106        0.365      183.204       28.336        0.024      343.331       19.364      860.355
08/30/2014  06:07:00     -138.595      132.816      -37.891       56.380       69.721       35.442     3178.724     4861.079     1256.148        2.379        0.465      191.961       33.555        0.031      343.308       19.325      860.366
08/30/2014  06:08:00     -169.454      149.615      -42.752       67.208       61.555       39.966     4516.911     3789.051     1597.312        3.141        0.495      226.051       40.512        0.032      343.388       19.461      860.365
08/30/2014  06:09:00     -170.325      129.592      -41.227       53.078       41.166       31.410     2817.251     1694.627      986.619        2.650        0.275      214.020       18.536        0.008      343.377       19.442      860.383
08/30/2014  06:10:00     -149.820      102.816      -19.317       52.540       43.558       37.697     2760.486     1897.275     1421.085        1.973        0.304      181.706       27.412        0.023      343.382       19.452      860.403
08/30/2014  06:11:00     -172.054       96.665      -21.006       97.599       50.824       36.037     9525.551     2583.114     1298.682        2.639        0.670      197.349       39.863        0.041      343.478       19.616      860.415
08/30/2014  06:12:00      -92.985      187.573      -29.437       58.245       85.734       36.047     3392.443     7350.333     1299.357        2.837        0.602      209.356       26.836        0.016      343.373       19.437      860.419
08/30/2014  06:13:00     -127.884      146.639      -19.653       53.597       95.171       43.727     2872.672     9057.457     1912.023        2.604        0.692      194.570       37.283        0.037      343.375       19.440      860.426
08/30/2014  06:14:00     -120.769       93.220      -25.098       48.910       64.959       32.071     2392.148     4219.688     1028.533        1.577        0.382      152.562       34.147        0.050      343.403       19.488      860.448
08/30/2014  06:15:00     -143.217      101.868      -24.988       48.507       72.301       32.470     2352.919     5227.462     1054.272        2.007        0.432      175.751       29.810        0.029      343.430       19.535      860.464
08/30/2014  06:16:00     -141.564       96.581      -19.981       86.539       60.664       38.822     7489.073     3680.072     1507.141        2.122        0.634      171.371       30.987        0.033      343.352       19.402      860.472
08/30/2014  06:17:00     -166.298       58.985      -24.375       70.735       59.148       41.044     5003.493     3498.469     1684.642        2.096        0.509      176.449       39.591        0.050      343.367       19.427      860.489
08/30/2014  06:18:00     -127.972       81.142      -32.893       67.990       66.000       27.061     4622.610     4356.058      732.276        1.687        0.486      151.529       34.788        0.053      343.303       19.317      860.509
08/30/2014  06:19:00     -187.397      119.772      -35.293       56.044       59.514       39.479     3140.918     3541.956     1558.564        2.947        0.412      222.403       28.625        0.017      343.228       19.187      860.522
08/30/2014  06:20:00      -91.600       49.768      -11.971       73.888       55.403       33.393     5459.414     3069.479     1115.091        1.033        0.482      104.247       46.545        0.199      343.158       19.071      860.520
08/30/2014  06:21:00     -143.539       96.569      -38.347       66.705       78.487       46.583     4449.616     6160.192     2169.969        2.209        0.639      173.000       27.725        0.026      343.336       19.372      860.511
08/30/2014  06:22:00     -172.391      154.568      -42.250       83.453       78.382       52.629     6964.361     6143.712     2769.771        3.563        0.794      231.538       60.630        0.069      343.170       19.090      860.503
08/30/2014  06:23:00     -127.912       96.765      -33.763       44.339       59.926       32.506     1965.965     3591.081     1056.663        1.674        0.331      160.389       27.553        0.030      343.191       19.129      860.509
08/30/2014  06:24:00      -35.980      138.673      -21.863       44.696       47.824       19.577     1997.697     2287.124      383.254        1.283        0.233      143.264       15.098        0.011      343.077       18.934      860.497
08/30/2014  06:25:00      -47.024      145.937      -25.678       65.392       87.676       34.141     4276.171     7687.075     1165.604        1.865        0.656      153.326       40.469        0.070      343.051       18.888      860.479
08/30/2014  06:26:00      -39.005      232.248      -30.816       52.398       94.135       36.253     2745.591     8861.310     1314.287        3.466        0.646      235.501       42.224        0.032      343.037       18.863      860.466
08/30/2014  06:27:00      -64.214      230.829      -39.585       60.868       73.334       36.599     3704.971     5377.893     1339.456        3.470        0.521      239.594       37.480        0.024      343.054       18.891      860.470
08/30/2014  06:28:00      -90.657      175.140      -21.478       75.833       60.910       41.584     5750.697     3710.083     1729.231        2.527        0.560      197.213       41.066        0.043      343.023       18.840      860.492
08/30/2014  06:29:00      -73.406      107.968      -19.619       65.100       60.276       32.232     4238.002     3633.198     1038.915        1.317        0.446      130.558       31.352        0.058      343.115       18.999      860.504
08/30/2014  06:30:00      -59.057       21.485      -21.630       50.572      104.598       32.715     2557.491    10940.651     1070.294        0.949        0.728       62.843       38.315        0.372      343.079       18.938      860.531
08/30/2014  06:31:00      -62.409     -109.600        0.222       62.689       56.197       36.436     3929.965     3158.110     1327.617        1.216        0.421      126.123       38.235        0.092      343.084       18.947      860.560
08/30/2014  06:32:00     -117.053     -169.657      -16.069       42.064       49.816       25.087     1769.389     2481.681      629.354        2.381        0.244      206.119       22.326        0.012      343.040       18.869      860.596
08/30/2014  06:33:00     -141.074     -126.678        0.033       66.313       69.475       37.320     4397.416     4826.825     1392.806        2.328        0.531      189.602       30.347        0.026      342.927       18.677      860.626
08/30/2014  06:34:00      -99.895      -69.980        8.705       70.103       54.808       30.425     4914.498     3003.925      925.652        1.190        0.442      121.968       31.529        0.067      342.812       18.481      860.637
08/30/2014  06:35:00      -47.901      -43.572       -8.336       57.287       49.249       21.721     3281.775     2425.432      471.788        0.522        0.309       64.753       19.320        0.089      342.851       18.551      860.623
08/30/2014  06:36:00       20.827       11.925        6.365       43.694       52.643       31.856     1909.147     2771.319     1014.828        0.315        0.285       24.000       29.980        1.560      342.841       18.532      860.611
08/30/2014  06:37:00       -5.839       17.771       14.556       45.069       41.056       29.048     2031.220     1685.594      843.773        0.256        0.228       18.706       29.760        2.531      342.802       18.467      860.588
08/30/2014  06:38:00      -42.428      129.371      -24.864       34.354       59.409       24.005     1180.211     3529.485      576.233        1.222        0.264      136.151       30.013        0.049      342.878       18.595      860.579
08/30/2014  06:39:00       38.478      100.787       -7.978       25.468       32.392       26.726      648.638     1049.222      714.270        0.706        0.121      107.882       13.628        0.016      342.834       18.520      860.557
08/30/2014  06:40:00        8.964      102.325      -18.328       22.039       22.439       12.990      485.723      503.525      168.731        0.602        0.058      102.717        7.075        0.005      342.847       18.544      860.547
08/30/2014  06:41:00      -43.577       73.891      -19.560       47.130       62.859       17.920     2221.283     3951.214      321.123        0.712        0.325       85.783       26.379        0.095      342.939       18.699      860.552
08/30/2014  06:42:00      -68.274      -22.055       -5.722       26.854       32.586       18.397      721.162     1061.858      338.432        0.365        0.106       71.748       17.172        0.057      342.861       18.566      860.569
08/30/2014  06:43:00      -56.663      -10.307       -8.269       32.279       43.257       19.542     1041.932     1871.160      381.887        0.334        0.165       57.593        7.585        0.017      342.804       18.471      860.611
08/30/2014  06:44:00       -8.846      -27.532       -2.742       17.528       13.281       11.679      307.224      176.374      136.390        0.073        0.031       28.919        7.091        0.060      342.793       18.451      860.637
08/30/2014  06:45:00      -12.746      -18.312       -8.046       21.104       11.508        6.493      445.393      132.442       42.160        0.059        0.031       22.311        4.031        0.033      342.822       18.499      860.660
08/30/2014  06:46:00      -14.776      -31.592        3.044       31.737       20.466       13.394     1007.240      418.877      179.401        0.142        0.080       34.877       11.159        0.102      342.900       18.634      860.673
08/30/2014  06:47:00      -75.842      -41.586        1.255       44.431       27.971       23.819     1974.101      782.394      567.360        0.540        0.166       86.495       14.730        0.029      342.791       18.448      860.704
08/30/2014  06:48:00      -16.056      -57.077        5.559       50.163       29.676       19.436     2516.363      880.657      377.766        0.366        0.189       59.292        9.269        0.024      342.705       18.302      860.735
08/30/2014  06:49:00       11.846      -44.126       14.893       35.056       49.410       26.295     1228.898     2441.349      691.451        0.333        0.218       45.688       26.906        0.347      342.788       18.442      860.719
08/30/2014  06:50:00        7.705       59.101       63.338       33.906       44.616       33.640     1149.599     1990.612     1131.678        0.592        0.214       59.601        9.581        0.026      342.784       18.436      860.708
08/30/2014  06:51:00       -7.918       31.085       56.901       35.497       52.588       33.800     1260.038     2765.545     1142.422        0.472        0.258       32.077       29.699        0.857      342.761       18.396      860.700
08/30/2014  06:52:00       33.098      -51.240       11.356       38.929       28.223       23.928     1515.435      796.556      572.552        0.337        0.144       61.000       23.777        0.152      342.744       18.369      860.709
08/30/2014  06:53:00      -43.292       -3.710       -8.514       45.443       30.942       15.410     2065.078      957.432      237.456        0.261        0.163       43.450       12.026        0.077      342.850       18.549      860.717
08/30/2014  06:54:00     -119.369      -45.105       -6.678       49.012       33.586       23.351     2402.198     1128.010      545.260        1.020        0.204      127.606       23.651        0.034      342.585       18.097      860.724
08/30/2014  06:55:00      -84.374      -74.605       11.468       88.593       70.128       35.039     7848.703     4917.875     1227.739        1.340        0.700      112.628       41.645        0.137      342.573       18.075      860.719
08/30/2014  06:56:00     -133.103     -115.613        9.534       99.264       49.140       43.900     9853.383     2414.738     1927.221        2.268        0.710      176.303       52.611        0.089      342.450       17.866      860.708
08/30/2014  06:57:00      -47.568      -45.817       12.210       53.849       59.837       30.279     2899.732     3580.479      916.811        0.595        0.370       66.044       30.258        0.210      342.401       17.784      860.706
08/30/2014  06:58:00       -6.504      -22.131      -10.279       13.084       17.250       10.719      171.200      297.558      114.892        0.061        0.029       23.067        4.534        0.039      342.495       17.945      860.707
08/30/2014  06:59:00      -19.756      -52.388      -14.134       17.057       21.907       13.050      290.928      479.898      170.291        0.214        0.047       55.990       10.316        0.034      342.622       18.160      860.716
08/30/2014  07:00:00      -38.119      -31.610        3.355       38.111       23.855       21.600     1452.422      569.065      466.555        0.248        0.124       49.520       17.955        0.131      342.664       18.232      860.732
08/30/2014  07:01:00      -70.603      -74.966       -1.899       43.024       43.197       21.804     1851.059     1866.006      475.405        0.740        0.210      102.979       23.651        0.053      342.521       17.989      860.729
08/30/2014  07:02:00     -114.537      -84.126       -9.353       22.983       22.642       14.318      528.220      512.678      205.010        1.076        0.062      142.112       13.414        0.009      342.523       17.991      860.704
08/30/2014  07:03:00      -94.253      -66.397       -7.738       16.279       14.013       12.995      265.015      196.365      168.859        0.699        0.032      115.292       11.437        0.010      342.647       18.203      860.674
08/30/2014  07:04:00      -59.772      -43.853       -4.272       13.049       10.504        7.570      170.280      110.341       57.301        0.293        0.017       74.134        4.490        0.004      342.793       18.451      860.648
08/30/2014  07:05:00      -24.363      -25.990        2.484       11.688       15.466       12.924      136.598      239.184      167.031        0.091        0.027       35.623       12.928        0.132      342.985       18.778      860.629
08/30/2014  07:06:00      -10.026      -29.886       -0.029       14.260       11.823       11.825      203.358      139.793      139.834        0.074        0.024       31.522        6.546        0.043      343.049       18.888      860.621
08/30/2014  07:07:00      -39.313      -22.715       -0.525       24.582       13.820       10.067      604.273      191.002      101.335        0.148        0.045       45.403        9.404        0.043      342.921       18.669      860.607
08/30/2014  07:08:00     -142.757      -39.541       -4.969       41.818       18.900       13.064     1748.758      357.206      170.673        1.212        0.114      148.132        9.232        0.004      342.565       18.063      860.598
08/30/2014  07:09:00     -186.934      -52.017       -3.394       44.691       32.234       24.033     1997.290     1039.032      577.566        2.064        0.181      194.036       25.681        0.018      342.531       18.003      860.594
08/30/2014  07:10:00     -111.383      -20.900       -2.087       53.610       27.318       20.627     2874.076      746.269      425.457        0.845        0.202      113.327       23.414        0.043      342.585       18.098      860.575
08/30/2014  07:11:00      -88.996      -15.162      -11.145       30.193       22.084       16.156      911.608      487.725      261.032        0.497        0.083       90.279       13.257        0.022      342.960       18.735      860.564
08/30/2014  07:12:00      -49.219       26.314      -18.630       22.912       17.939       17.872      524.965      321.824      319.400        0.231        0.058       55.811       14.349        0.066      343.261       19.248      860.539
08/30/2014  07:13:00      -30.415        8.289      -12.976       17.531       15.196       11.344      307.345      230.909      128.689        0.091        0.033       31.524        6.726        0.046      343.480       19.620      860.541
08/30/2014  07:14:00      -21.992       11.068       -0.465       17.502       23.925       17.394      306.334      572.398      302.559        0.089        0.059       24.621       19.712        0.641      343.782       20.135      860.542
08/30/2014  07:15:00      -32.232       -0.525        0.122       29.323       15.332       16.844      859.816      235.057      283.729        0.121        0.069       32.236       20.058        0.387      343.634       19.884      860.546
08/30/2014  07:16:00      -72.025      -18.052       -4.229       30.331       20.140       15.717      919.942      405.614      247.039        0.355        0.079       74.253        9.932        0.018      343.005       18.812      860.549
08/30/2014  07:17:00       -0.637        2.205       13.579       15.538       20.678       12.554      241.434      427.599      157.591        0.051        0.041        2.295        7.249        9.976      343.243       19.219      860.550
08/30/2014  07:18:00        5.087       -5.021       18.207        9.688       20.654       11.908       93.852      426.571      141.791        0.052        0.033        7.148       11.068        2.398      343.310       19.332      860.553
08/30/2014  07:19:00      -14.245      -23.693       -0.892       14.592       17.029       12.317      212.925      289.979      151.697        0.071        0.033       27.646        6.461        0.055      343.125       19.017      860.566
08/30/2014  07:20:00      -74.435      -26.192       -4.581       34.637       17.904       17.247     1199.717      320.547      297.458        0.403        0.091       78.908        9.320        0.014      342.883       18.604      860.591
08/30/2014  07:21:00      -98.539      -38.676       -1.389       47.248       33.239       20.382     2232.406     1104.800      415.413        0.748        0.188      105.857       23.117        0.048      342.860       18.565      860.608
08/30/2014  07:22:00      -70.074       43.821       -6.823       50.322       29.653       25.285     2532.315      879.308      639.344        0.546        0.203       82.648       27.953        0.114      343.126       19.018      860.601
08/30/2014  07:23:00     -120.791       28.637      -11.567       47.020       40.632       25.639     2210.877     1650.990      657.336        1.003        0.226      124.139       20.994        0.029      342.886       18.609      860.599
08/30/2014  07:24:00      -85.146       38.697      -13.472       29.575       37.992       21.164      874.682     1443.412      447.935        0.585        0.138       93.527       19.473        0.043      342.964       18.742      860.591
08/30/2014  07:25:00      -67.689       57.925      -14.665       24.823       25.907       18.801      616.179      671.154      353.486        0.490        0.082       89.091       12.466        0.020      343.126       19.020      860.596
08/30/2014  07:26:00      -40.016       20.276       -5.225       17.610       40.236       17.989      310.121     1618.961      323.611        0.215        0.113       44.860       16.455        0.135      343.202       19.148      860.599
08/30/2014  07:27:00      -20.580       -6.949       -7.547       22.028       14.626       13.967      485.225      213.921      195.075        0.071        0.045       21.721        7.717        0.126      343.032       18.858      860.635
08/30/2014  07:28:00      -52.708      -24.579       -7.531       46.935       19.632       12.905     2202.847      385.434      166.544        0.310        0.138       58.157        9.856        0.029      342.911       18.654      860.670
08/30/2014  07:29:00      -93.471       26.416       -3.743       56.613       40.600       25.973     3205.035     1648.346      674.585        0.749        0.276       97.132       32.700        0.113      342.948       18.716      860.679
08/30/2014  07:30:00      -41.864       15.773       -8.105       50.759       34.348       28.287     2576.479     1179.791      800.135        0.331        0.228       44.737       23.888        0.285      342.945       18.709      860.668
08/30/2014  07:31:00       32.434       37.100       18.185       22.674       26.211       20.522      514.120      687.040      421.170        0.219        0.081       49.279       15.475        0.099      343.126       19.019      860.641
08/30/2014  07:32:00       59.684       45.159        1.534       22.155       18.734       16.652      490.831      350.955      277.276        0.336        0.056       74.843        9.906        0.018      343.096       18.967      860.625
08/30/2014  07:33:00       56.261       63.475       48.099       42.457       27.837       37.268     1802.628      774.890     1388.909        0.674        0.198       84.820       26.103        0.095      343.253       19.234      860.606
08/30/2014  07:34:00        6.610       78.426       84.804       19.707       30.308       19.845      388.347      918.597      393.807        0.754        0.085       78.704       18.660        0.056      343.275       19.273      860.604
08/30/2014  07:35:00       35.468      -60.947       -5.714       35.549       74.561       44.901     1263.718     5559.317     2016.078        0.692        0.442       70.516       52.931        0.563      343.353       19.405      860.604
08/30/2014  07:36:00       41.521     -109.361      -22.280       53.529       40.682       27.392     2865.306     1655.055      750.308        0.972        0.264      116.978       21.640        0.034      343.320       19.350      860.618
08/30/2014  07:37:00       17.268       -9.112       26.694       22.477       29.439       24.314      505.200      866.628      591.180        0.153        0.098       19.524       19.011        0.948      343.639       19.893      860.635
08/30/2014  07:38:00      -39.763       -8.169       10.159       23.804       30.336       15.046      566.650      920.262      226.379        0.173        0.086       40.594       17.700        0.190      343.375       19.442      860.641
08/30/2014  07:39:00      -19.319       -4.306        7.646       27.868       24.632       17.323      776.602      606.718      300.070        0.107        0.084       19.793       17.438        0.776      343.527       19.702      860.657
08/30/2014  07:40:00      -30.500       -5.457        4.408       36.541       20.150       16.302     1335.260      406.008      265.767        0.149        0.100       30.984       16.815        0.295      343.466       19.598      860.674
08/30/2014  07:41:00      -45.917      -35.448       -2.480       20.143       17.810       12.299      405.728      317.181      151.253        0.212        0.044       58.008        7.206        0.015      343.243       19.218      860.684
08/30/2014  07:42:00      -16.681      -32.845        1.696       15.373       20.165       14.734      236.324      406.619      217.104        0.111        0.043       36.838       11.056        0.090      343.312       19.336      860.698
08/30/2014  07:43:00      -47.325      -45.519        1.046       28.790       20.714       14.034      828.846      429.069      196.949        0.288        0.073       65.663       15.229        0.054      343.355       19.408      860.708
08/30/2014  07:44:00      -41.999      -27.583        6.216       21.734       14.222       10.378      472.351      202.274      107.700        0.167        0.039       50.246        9.172        0.033      343.338       19.379      860.716
08/30/2014  07:45:00      -68.611      -16.623       -2.281       16.557       29.548       11.597      274.133      873.085      134.480        0.314        0.064       70.596       10.468        0.022      343.350       19.400      860.718
08/30/2014  07:46:00      -53.695      -34.640        0.302       10.033       20.883       14.750      100.663      436.087      217.562        0.242        0.038       63.899        9.293        0.021      343.389       19.465      860.707
08/30/2014  07:47:00      -89.028      -38.520       -5.863       10.991       10.080        6.687      120.792      101.606       44.716        0.486        0.013       97.004        4.520        0.002      343.390       19.467      860.711
08/30/2014  07:48:00      -62.399      -33.944       -1.733       23.608       11.880       12.623      557.318      141.145      159.331        0.295        0.043       71.034       12.999        0.033      343.425       19.526      860.711
08/30/2014  07:49:00      -28.494      -25.081       -3.521       15.168        9.971        7.596      230.076       99.430       57.705        0.092        0.019       37.960        6.769        0.032      343.514       19.679      860.721
08/30/2014  07:50:00       -8.860      -16.096        2.821       10.658        9.832        6.144      113.592       96.664       37.744        0.030        0.012       18.374        4.183        0.052      343.632       19.880      860.717
08/30/2014  07:51:00      -11.627      -24.494       -0.330        9.720       11.396       10.915       94.485      129.880      119.142        0.054        0.017       27.113        7.564        0.078      343.606       19.836      860.739
08/30/2014  07:52:00      -25.186      -14.968       -1.580       15.090        6.456       11.002      227.721       41.681      121.034        0.063        0.020       29.299        9.064        0.096      343.741       20.066      860.754
08/30/2014  07:53:00      -12.883      -19.438       -1.225        8.068        6.509        5.130       65.088       42.368       26.322        0.034        0.007       23.320        2.950        0.016      343.706       20.008      860.770
08/30/2014  07:54:00       -2.059       -8.586        7.221       11.742       12.081       17.499      137.876      145.940      306.199        0.036        0.030        8.829       11.929        1.825      344.115       20.706      860.774
08/30/2014  07:55:00       13.077      -31.560       18.240       18.805       38.138       26.455      353.614     1454.537      699.843        0.200        0.125       34.163       29.398        0.741      344.324       21.062      860.778
08/30/2014  07:56:00       10.336      -39.784        3.933       28.512       29.234       26.726      812.927      854.636      714.268        0.204        0.119       41.104       23.711        0.333      344.243       20.923      860.785
08/30/2014  07:57:00       -2.525       25.586       38.514       17.721       25.607       17.356      314.034      655.703      301.247        0.171        0.064       25.710        7.846        0.093      344.559       21.464      860.784
08/30/2014  07:58:00        8.107       20.671       35.280       30.967       37.170       26.442      958.945     1381.607      699.175        0.239        0.152       22.204       27.655        1.551      344.381       21.161      860.798
08/30/2014  07:59:00       15.035        6.785       44.478       23.350       30.325       20.389      545.210      919.633      415.700        0.207        0.094       16.495       13.060        0.627      344.505       21.372      860.805
08/30/2014  08:00:00       -1.437       45.394       70.544       24.107       34.298       18.178      581.157     1176.370      330.455        0.456        0.104       45.416       20.447        0.203      344.338       21.087      860.804
08/30/2014  08:01:00        6.258       42.157       58.498       23.755       25.656       23.329      564.282      658.234      544.253        0.350        0.088       42.619       14.853        0.121      344.155       20.773      860.807
08/30/2014  08:02:00       70.795       51.601       38.185       27.285       15.712       18.554      744.483      246.870      344.267        0.523        0.067       87.605       13.711        0.024      343.952       20.426      860.808
08/30/2014  08:03:00       11.094       11.531       39.703       18.995       20.073       14.755      360.824      402.930      217.697        0.141        0.049       16.001        6.849        0.183      344.435       21.252      860.808
08/30/2014  08:04:00        1.483       -6.108       38.268       13.717       22.098        9.573      188.166      488.319       91.648        0.114        0.038        6.286        5.498        0.765      344.670       21.653      860.825
08/30/2014  08:05:00        2.629      -12.992       31.206       19.035       27.061       22.733      362.314      732.314      516.802        0.138        0.081       13.255        8.592        0.420      344.716       21.735      860.837
08/30/2014  08:06:00        9.711       19.158       33.464       24.152       25.572       23.364      583.317      653.925      545.881        0.168        0.089       21.479       17.116        0.635      344.730       21.757      860.842
08/30/2014  08:07:00       30.291       57.325       54.274       38.175       39.160       21.918     1457.347     1533.517      480.404        0.531        0.174       64.836       12.646        0.038      344.349       21.104      860.847
08/30/2014  08:08:00        1.417       34.958       53.206       31.342       38.932       22.103      982.332     1515.732      488.551        0.352        0.149       34.987       11.848        0.115      344.493       21.351      860.850
08/30/2014  08:09:00       62.672       52.718       35.669       51.677       28.366       35.663     2670.512      804.648     1271.858        0.636        0.237       81.896       37.583        0.211      344.163       20.789      860.861
08/30/2014  08:10:00       71.731       33.690        1.829       50.254       31.840       26.945     2525.416     1013.792      726.054        0.527        0.213       79.249       16.259        0.042      344.058       20.607      860.869
08/30/2014  08:11:00       38.358       37.053       17.318       32.146       27.286       18.273     1033.366      744.504      333.895        0.263        0.106       53.332        7.725        0.021      344.267       20.964      860.879
08/30/2014  08:12:00       37.258       69.299       -4.043       41.769       33.966       26.817     1744.614     1153.671      719.150        0.491        0.181       78.680       24.249        0.095      344.216       20.878      860.866
08/30/2014  08:13:00       62.738       34.502        6.068       33.214       25.615       19.774     1103.196      656.135      391.016        0.366        0.108       71.599       16.000        0.050      343.983       20.480      860.857
08/30/2014  08:14:00       40.875       26.523       11.515       32.091       26.820       21.994     1029.806      719.331      483.743        0.237        0.112       48.726       22.091        0.206      344.430       21.244      860.852
08/30/2014  08:15:00      111.783       60.699       -2.026       33.466       23.876       23.690     1119.973      570.045      561.209        0.922        0.113      127.200       19.292        0.023      343.947       20.420      860.848
08/30/2014  08:16:00      101.530       63.146       13.045       35.062       33.387       24.758     1229.321     1114.705      612.947        0.871        0.148      119.565       14.068        0.014      344.050       20.594      860.837
08/30/2014  08:17:00       22.639       57.654       56.867       47.920       30.696       41.836     2296.323      942.260     1750.269        0.603        0.249       61.940       39.639        0.410      344.255       20.945      860.817
08/30/2014  08:18:00       24.577       67.376       61.947       32.715       23.363       19.227     1070.299      545.822      369.663        0.548        0.099       71.719       15.083        0.044      344.164       20.789      860.805
08/30/2014  08:19:00       -4.171        8.208       38.626       12.995       20.673       17.584      168.872      427.379      309.184        0.124        0.045        9.207       16.390        3.169      344.650       21.619      860.799
08/30/2014  08:20:00       -3.221       10.870       28.842       16.327       20.234       15.124      266.564      409.414      228.725        0.093        0.045       11.337       12.094        1.138      344.757       21.804      860.789
08/30/2014  08:21:00       15.119        6.065       26.826       14.391       19.740       15.464      207.108      389.669      239.135        0.091        0.042       16.290       11.041        0.459      344.516       21.389      860.774
08/30/2014  08:22:00      -23.224      -23.984       -2.623       22.128       16.965       13.165      489.632      287.800      173.313        0.104        0.048       33.385       10.787        0.104      344.171       20.803      860.768
08/30/2014  08:23:00      -34.276      -21.474       -2.383       24.105       16.391       12.050      581.039      268.653      145.202        0.132        0.050       40.447        9.422        0.054      344.228       20.898      860.776
08/30/2014  08:24:00      -34.752       -8.257        7.121       27.840       26.872       21.615      775.085      722.117      467.204        0.165        0.098       35.719       18.420        0.266      344.579       21.500      860.774
08/30/2014  08:25:00      -28.853      -29.943       -3.766       12.318       18.930       15.275      151.734      358.335      233.327        0.124        0.037       41.582       10.133        0.059      344.414       21.215      860.764
08/30/2014  08:26:00      -15.564      -34.679       22.678       19.017       29.559       20.957      361.644      873.761      439.206        0.182        0.084       38.012       17.374        0.209      344.718       21.736      860.740
08/30/2014  08:27:00      -16.688      -52.985        7.539       23.457       29.017       21.602      550.230      842.001      466.656        0.250        0.093       55.551       14.251        0.066      344.646       21.612      860.720
08/30/2014  08:28:00      -39.974      -22.803        3.297       13.812       12.856        7.357      190.764      165.277       54.125        0.127        0.021       46.021        5.838        0.016      344.373       21.147      860.707
08/30/2014  08:29:00      -13.400      -13.044       13.865       13.969       15.773       16.156      195.143      248.774      261.010        0.062        0.035       18.701       14.136        0.571      345.216       22.591      860.698
08/30/2014  08:30:00      -18.092       -7.092       -0.443        8.969       10.156        7.402       80.444      103.152       54.796        0.031        0.012       19.432        3.473        0.032      344.657       21.631      860.679
08/30/2014  08:31:00      -28.710        5.755        8.572       17.024        9.091       20.937      289.815       82.647      438.344        0.087        0.041       29.282       16.871        0.332      345.056       22.316      860.660
08/30/2014  08:32:00      -31.233       -8.653       -6.860       11.178        5.726        5.325      124.954       32.789       28.360        0.064        0.009       32.410        3.860        0.014      344.703       21.710      860.657
08/30/2014  08:33:00      -21.994      -14.366       -7.508       11.086        9.184        7.052      122.893       84.345       49.735        0.050        0.013       26.271        4.122        0.025      344.860       21.977      860.667
08/30/2014  08:34:00       -7.819       -7.250       -3.535        9.616        6.366        8.028       92.467       40.527       64.446        0.016        0.010       10.663        5.071        0.226      345.008       22.230      860.686
08/30/2014  08:35:00      -25.069      -55.435       13.035       26.430       28.588       29.676      698.564      817.282      880.645        0.313        0.120       60.840       10.979        0.033      344.880       22.014      860.688
08/30/2014  08:36:00      -11.071      -39.439       32.899       31.321       41.790       22.798      980.987     1746.431      519.750        0.300        0.162       40.963       19.785        0.233      345.196       22.553      860.696
08/30/2014  08:37:00        2.609      -37.661       29.405       20.382       34.258       25.092      415.438     1173.642      629.610        0.225        0.111       37.751       22.870        0.367      345.378       22.867      860.708
08/30/2014  08:38:00      -21.324      -45.851       10.335       26.725       24.657       21.171      714.199      607.983      448.206        0.222        0.089       50.567       12.448        0.061      345.038       22.283      860.718
08/30/2014  08:39:00      -19.558      -38.455        4.835       14.810       26.963       20.806      219.327      726.989      432.886        0.163        0.069       43.143       10.385        0.058      344.951       22.134      860.742
08/30/2014  08:40:00      -17.950      -23.157        4.975       31.169       32.204       21.665      971.521     1037.116      469.390        0.168        0.124       29.299       20.860        0.507      345.002       22.221      860.765
08/30/2014  08:41:00      -24.296      -49.851        5.718       30.618       46.225       20.727      937.474     2136.730      429.602        0.331        0.175       55.456       26.098        0.221      344.993       22.208      860.769
08/30/2014  08:42:00      -12.883        8.846       34.402       12.067       26.410       26.052      145.619      697.510      678.684        0.147        0.076       15.628       19.976        1.634      345.591       23.231      860.756
08/30/2014  08:43:00      -11.682        8.267       56.020       24.767       77.599       39.226      613.427     6021.595     1538.713        0.576        0.409       14.312       49.502       11.963      345.279       22.696      860.732
08/30/2014  08:44:00      -24.575      -17.548       11.467       43.844       25.313       25.096     1922.311      640.763      629.828        0.212        0.160       30.197       26.893        0.793      345.079       22.353      860.753
08/30/2014  08:45:00       43.547       61.803       28.689       36.352       50.852       32.095     1321.461     2585.924     1030.100        0.574        0.247       75.604       28.116        0.138      345.475       23.032      860.737
08/30/2014  08:46:00      -15.638      -36.611       -1.698       29.150       54.385       20.923      849.723     2957.746      437.785        0.292        0.212       39.811       10.809        0.074      345.270       22.681      860.743
08/30/2014  08:47:00       -6.473       39.625       61.369       38.987       41.831       28.550     1519.969     1749.826      815.084        0.473        0.204       40.151       20.646        0.264      345.899       23.760      860.717
08/30/2014  08:48:00      -15.321      -29.292        1.694       34.267       58.093       36.337     1174.210     3374.804     1320.376        0.348        0.293       33.056       40.870        1.529      345.321       22.767      860.732
08/30/2014  08:49:00       38.754      -14.094       21.574       50.829       67.834       54.991     2583.579     4601.460     3023.993        0.619        0.510       41.237       49.783        1.457      345.515       23.102      860.748
08/30/2014  08:50:00        6.947       -4.417       53.704       30.650       67.387       35.643      939.420     4541.019     1270.396        0.485        0.338        8.232       35.111       18.191      345.694       23.407      860.731
08/30/2014  08:51:00       18.604      -41.153       31.801       30.061       51.598       33.790      903.687     2662.378     1141.733        0.388        0.235       45.163       28.302        0.393      345.505       23.084      860.730
08/30/2014  08:52:00       46.046      -33.110       22.079       42.097       48.872       31.841     1772.142     2388.513     1013.823        0.444        0.259       56.714       30.784        0.295      345.639       23.312      860.744
08/30/2014  08:53:00       73.157      -31.963        8.893       54.770       44.766       32.545     2999.758     2003.972     1059.207        0.626        0.303       79.835       28.338        0.126      345.338       22.798      860.758
08/30/2014  08:54:00       18.698      -32.490       12.437       37.315       49.570       37.061     1392.377     2457.167     1373.529        0.339        0.261       37.486       32.873        0.769      345.424       22.945      860.756
08/30/2014  08:55:00      -28.644       16.861       15.453       23.496       20.059       18.317      552.082      402.365      335.510        0.132        0.064       33.238       16.302        0.241      345.574       23.201      860.758
08/30/2014  08:56:00      -23.619       16.299        2.638       32.338       16.491       22.040     1045.773      271.966      485.762        0.132        0.090       28.697       21.190        0.545      345.494       23.066      860.751
08/30/2014  08:57:00       88.952       70.019        7.626       45.736       27.588       20.397     2091.794      761.078      416.039        0.807        0.163      113.204       10.721        0.009      345.406       22.914      860.738
08/30/2014  08:58:00       52.948       50.965       -3.287       29.785       33.303       26.654      887.138     1109.078      710.422        0.406        0.135       73.491       18.530        0.064      345.501       23.076      860.731
08/30/2014  08:59:00       24.413       32.839       36.837       34.277       38.275       33.210     1174.890     1465.004     1102.879        0.339        0.187       40.920       25.770        0.397      346.049       24.017      860.741
08/30/2014  09:00:00       25.061       45.710       23.985       31.114       29.186       25.538      968.097      851.828      652.205        0.288        0.124       52.130       13.375        0.066      345.820       23.625      860.736
08/30/2014  09:01:00       -0.746       53.042       19.050       21.295       49.566       28.616      453.497     2456.824      818.884        0.345        0.186       53.048       29.116        0.301      345.889       23.743      860.731
08/30/2014  09:02:00      -49.024       44.988      -10.455       24.596       22.454       22.427      604.952      504.189      502.984        0.307        0.081       66.538       17.358        0.068      345.673       23.370      860.728
08/30/2014  09:03:00      -36.950       45.079       -4.813       37.836       27.561       18.414     1431.537      759.611      339.092        0.297        0.127       58.288        8.052        0.019      345.742       23.489      860.721
08/30/2014  09:04:00      -65.245       41.106       -4.608       38.067       29.680       23.568     1449.113      880.929      555.460        0.443        0.144       77.114        9.042        0.014      345.644       23.322      860.728
08/30/2014  09:05:00     -104.595      136.494       -5.525       74.543       66.824       42.314     5556.629     4465.492     1790.472        2.070        0.591      171.961       29.932        0.030      345.779       23.553      860.692
08/30/2014  09:06:00     -135.868      -34.834      -12.304       82.844      103.794       42.039     6863.107    10773.289     1767.303        1.961        0.970      140.262       36.123        0.066      345.766       23.531      860.683
08/30/2014  09:07:00     -146.045     -100.952        4.820      109.958       66.106       42.973    12090.735     4370.012     1846.670        2.492        0.915      177.540       51.584        0.084      345.801       23.589      860.695
08/30/2014  09:08:00     -156.912      -45.635       -4.103       65.327       48.876       37.451     4267.573     2388.890     1402.549        1.739        0.403      163.414       31.438        0.037      345.839       23.655      860.702
08/30/2014  09:09:00     -160.811      -41.535      -19.470       65.403       57.747       38.349     4277.551     3334.685     1470.666        1.852        0.454      166.088       13.944        0.007      345.845       23.665      860.709
08/30/2014  09:10:00     -158.251      -16.129        2.809       87.117       76.289       47.550     7589.344     5819.964     2261.017        2.049        0.784      159.071       33.421        0.044      346.006       23.942      860.710
08/30/2014  09:11:00      -82.111      -35.762       -3.935       59.550       61.260       28.765     3546.177     3752.807      827.432        0.808        0.406       89.561       28.426        0.101      346.117       24.133      860.734
08/30/2014  09:12:00      -42.980      -47.667       29.252       70.333       62.347       36.213     4946.789     3887.105     1311.385        0.756        0.507       64.183       34.820        0.294      346.232       24.332      860.743
08/30/2014  09:13:00     -165.688     -103.617       -2.813       83.272       83.901       42.269     6934.158     7039.394     1786.704        2.698        0.788      195.420       42.719        0.048      345.942       23.831      860.736
08/30/2014  09:14:00     -331.171     -113.631       -7.451      149.156      117.764       55.405    22247.579    13868.335     3069.663        8.091        1.959      350.123       55.308        0.025      345.909       23.772      860.745
08/30/2014  09:15:00     -387.632      -40.703      -16.270      136.393      101.788       62.841    18603.120    10360.857     3948.989        9.254        1.646      389.763       75.337        0.037      345.939       23.825      860.717
08/30/2014  09:16:00     -209.216      -82.733        6.958      162.164      101.629       51.257    26297.024    10328.526     2627.293        4.495        1.963      224.980       67.215        0.089      346.183       24.245      860.755
08/30/2014  09:17:00     -160.011      -81.441        6.921      145.002       87.450       50.540    21025.654     7647.461     2554.273        3.175        1.561      179.545       50.826        0.080      346.144       24.177      860.779
08/30/2014  09:18:00     -299.425     -108.987      -15.741      142.070      114.709       57.996    20183.792    13158.061     3363.576        6.924        1.835      318.643       64.772        0.041      346.144       24.178      860.803
08/30/2014  09:19:00     -116.125     -131.389        0.162       92.875       79.058       47.124     8625.720     6250.137     2220.651        2.392        0.855      175.351       49.395        0.079      346.162       24.209      860.825
08/30/2014  09:20:00     -106.222      -61.928       13.358      104.474       97.229       43.783    10914.918     9453.486     1916.976        1.879        1.114      122.956       52.854        0.185      346.366       24.560      860.827
08/30/2014  09:21:00      -55.565      -65.803       -6.089       66.431       72.114       48.151     4413.036     5200.477     2318.484        0.969        0.597       86.125       31.204        0.131      346.301       24.449      860.825
08/30/2014  09:22:00      -27.570       20.528       15.734       38.262       30.286       32.652     1463.948      917.231     1066.147        0.244        0.172       34.373       11.872        0.119      346.616       24.991      860.853
08/30/2014  09:23:00      -50.144      -47.232       27.669       64.426       75.880       55.037     4150.679     5757.804     3029.023        0.922        0.647       68.886       60.388        0.768      346.519       24.826      860.833
08/30/2014  09:24:00      -48.484     -120.569      -13.360       42.075       80.391       36.889     1770.326     6462.671     1360.821        1.333        0.480      129.952        7.308        0.003      346.135       24.163      860.825
08/30/2014  09:25:00      -67.262      -96.904       -9.809       38.248       42.902       23.725     1462.889     1840.609      562.882        0.894        0.193      117.960       17.283        0.021      345.908       23.775      860.841
08/30/2014  09:26:00     -117.151      -79.862       -8.131       71.326       42.254       33.025     5087.449     1785.372     1090.673        1.406        0.398      141.783       34.314        0.059      346.017       23.962      860.862
08/30/2014  09:27:00      -93.998      -91.466       -1.378       47.525       56.728       25.148     2258.615     3218.058      632.408        1.166        0.305      131.155       16.130        0.015      346.020       23.967      860.878
08/30/2014  09:28:00      -68.893     -131.297       -4.610       43.701       49.219       26.506     1909.817     2422.501      702.584        1.352        0.252      148.274       17.509        0.014      346.059       24.035      860.856
08/30/2014  09:29:00      -58.572     -140.381       -9.861       66.588       50.921       29.983     4433.977     2592.951      898.969        1.558        0.396      152.111       21.901        0.021      345.938       23.827      860.830
08/30/2014  09:30:00      -98.849      -61.606       -5.062       79.889       42.445       30.068     6382.297     1801.596      904.100        1.134        0.454      116.475        9.556        0.007      346.100       24.106      860.838
08/30/2014  09:31:00      -52.159       19.217        8.749       38.785       46.603       31.999     1504.292     2171.859     1023.926        0.393        0.235       55.586       28.316        0.259      346.373       24.574      860.849
08/30/2014  09:32:00      -63.531        1.057       -9.551       25.617       36.560       20.795      656.255     1336.653      432.445        0.328        0.121       63.540       18.526        0.085      346.399       24.619      860.850
08/30/2014  09:33:00      -88.000        1.999      -23.394       65.137       29.647       17.543     4242.808      878.959      307.774        0.686        0.271       88.023       22.572        0.066      346.403       24.626      860.844
08/30/2014  09:34:00     -173.683      -13.542       -8.228       77.494       63.633       36.417     6005.381     4049.161     1326.208        2.090        0.569      174.211       43.425        0.062      346.404       24.625      860.827
08/30/2014  09:35:00      -54.346      -47.709        4.793       41.907       37.033       22.478     1756.172     1371.425      505.278        0.444        0.182       72.316       16.891        0.055      346.502       24.795      860.853
08/30/2014  09:36:00     -146.208      -21.159      -10.342       45.308       63.878       27.138     2052.852     4080.437      736.484        1.440        0.343      147.731       21.323        0.021      346.221       24.313      860.846
08/30/2014  09:37:00     -111.450       25.572      -14.732       40.002       29.016       17.143     1600.181      841.910      293.889        0.801        0.137      114.346       10.867        0.009      346.252       24.367      860.847
08/30/2014  09:38:00       -8.713      -67.036      -10.762       41.373       63.221       15.231     1711.728     3996.849      231.996        0.531        0.297       67.600        8.405        0.015      346.387       24.598      860.835
08/30/2014  09:39:00       -9.111      -84.831        9.674       47.016       43.788       28.789     2210.507     1917.381      828.789        0.616        0.248       85.319       27.892        0.107      346.368       24.566      860.820
08/30/2014  09:40:00       -6.411      -88.036       16.839       57.129       65.041       43.645     3263.689     4230.268     1904.901        0.874        0.470       88.269       30.737        0.121      346.440       24.689      860.791
08/30/2014  09:41:00      -91.290      -30.714        4.108       37.600       44.391       27.680     1413.730     1970.575      766.186        0.672        0.208       96.319       23.616        0.060      346.255       24.370      860.763
08/30/2014  09:42:00      -45.761      -19.780       -3.620       27.536       29.655       22.890      758.208      879.398      523.962        0.233        0.108       49.853       21.428        0.185      346.481       24.761      860.730
08/30/2014  09:43:00        7.472     -113.802       16.213       80.610       84.643       62.087     6498.020     7164.454     3854.766        1.539        0.876      114.048       53.829        0.223      346.757       25.233      860.703
08/30/2014  09:44:00       69.002     -196.911      -48.999       89.181      111.140       76.615     7953.302    12351.991     5869.851        3.605        1.309      208.651       72.593        0.121      346.690       25.116      860.699
08/30/2014  09:45:00       16.630     -188.654      -20.928       67.464       87.163       58.004     4551.449     7597.439     3364.431        2.591        0.776      189.385       53.564        0.080      346.525       24.832      860.763
08/30/2014  09:46:00      -31.368     -106.519      -12.769       58.276       67.756       39.309     3396.121     4590.852     1545.193        1.101        0.477      111.042       25.689        0.054      346.478       24.754      860.797
08/30/2014  09:47:00      -33.144      -34.617      -25.690       50.280       62.068       41.420     2528.080     3852.485     1715.585        0.552        0.405       47.925       37.635        0.617      346.300       24.448      860.822
08/30/2014  09:48:00     -119.042      -46.505       -5.229       67.922       50.761       32.997     4613.442     2576.695     1088.830        1.232        0.414      127.804       37.989        0.088      346.333       24.505      860.818
08/30/2014  09:49:00     -133.669      -25.406        3.607       66.243       48.672       36.507     4388.185     2368.987     1332.731        1.331        0.404      136.062       34.226        0.063      346.334       24.507      860.839
08/30/2014  09:50:00      -10.753        3.589       34.256       44.069       76.074       51.371     1942.109     5787.318     2639.001        0.583        0.518       11.336       42.229       13.876      346.999       25.651      860.796
08/30/2014  09:51:00       15.974       55.699       95.799       40.758       60.979       43.039     1661.252     3718.439     1852.333        0.988        0.362       57.944       34.761        0.360      346.977       25.614      860.733
08/30/2014  09:52:00       91.460      136.882       -2.762       53.808       78.337       50.156     2895.323     6136.698     2515.663        1.933        0.577      164.626       39.251        0.057      346.847       25.386      860.720
08/30/2014  09:53:00       49.657       39.522       -3.389      160.835      107.225       51.379    25867.989    11497.250     2639.752        2.201        2.000       63.465       37.446        0.348      346.554       24.883      860.704
08/30/2014  09:54:00      -32.708      -73.361       -1.290       65.262       67.892       57.076     4259.103     4609.306     3257.701        0.929        0.606       80.323       55.918        0.485      346.680       25.101      860.657
08/30/2014  09:55:00      -85.318       68.367       -8.858       58.394       62.478       43.428     3409.813     3903.450     1885.976        1.061        0.460      109.331       38.125        0.122      346.641       25.034      860.698
08/30/2014  09:56:00      -71.303      142.004      -18.427       93.708      109.807       56.383     8781.179    12057.479     3179.000        2.480        1.201      158.900       48.298        0.092      346.795       25.298      860.702
08/30/2014  09:57:00      -97.793      -36.000      -12.413       64.759       67.939       37.202     4193.730     4615.734     1383.960        1.060        0.510      104.209       33.285        0.102      346.823       25.347      860.677
08/30/2014  09:58:00       -1.100      -26.236       49.385       73.099      124.742       76.893     5343.392    15560.543     5912.476        1.497        1.341       26.259       63.359        5.822      347.049       25.736      860.674
08/30/2014  09:59:00      -72.158     -138.259        7.158      115.299       84.767       49.136    13293.946     7185.435     2414.375        2.363        1.145      155.956       38.267        0.060      346.971       25.600      860.703
08/30/2014  10:00:00     -156.068     -148.316       -9.956       76.955       88.257       38.576     5922.044     7789.342     1488.071        3.082        0.760      215.302       39.045        0.033      346.526       24.833      860.751
08/30/2014  10:01:00     -202.078     -287.776      -24.566       92.735      141.548       55.635     8599.814    20035.940     3095.270        7.799        1.587      351.640       57.980        0.027      346.403       24.621      860.767
08/30/2014  10:02:00      -49.286     -128.121        8.404       67.549       75.774       33.845     4562.853     5741.712     1145.485        1.518        0.573      137.274       33.226        0.059      346.628       25.010      860.742
08/30/2014  10:03:00      -36.276      -10.048        4.749       30.809       27.380       21.700      949.222      749.683      470.892        0.180        0.108       37.642       22.189        0.347      346.726       25.183      860.703
08/30/2014  10:04:00      -59.789      -29.564        4.453       64.277       36.215       20.397     4131.528     1311.503      416.033        0.516        0.293       66.699       28.880        0.187      346.907       25.494      860.713
08/30/2014  10:05:00      -98.969      -25.287        2.168       72.479       49.793       23.374     5253.243     2479.307      546.352        0.936        0.414      102.148       29.421        0.083      346.830       25.360      860.723
08/30/2014  10:06:00     -104.996      -18.661       -7.818       57.335       23.722       24.945     3287.257      562.738      622.276        0.795        0.224      106.641       31.586        0.088      346.500       24.793      860.753
08/30/2014  10:07:00      -32.444      -95.417       22.016       76.075       93.422       52.072     5787.450     8727.619     2711.459        1.393        0.861      100.782       39.168        0.151      346.812       25.329      860.758
08/30/2014  10:08:00     -116.650       16.099       -9.101       64.909       56.834       26.867     4213.137     3230.120      721.822        1.106        0.408      117.756       29.691        0.064      346.640       25.033      860.673
08/30/2014  10:09:00     -148.363      -84.402       -5.488      119.799      120.964       45.055    14351.683    14632.370     2029.939        3.008        1.551      170.690       48.616        0.081      346.730       25.186      860.684
08/30/2014  10:10:00      -97.036       31.451        3.280       74.916       85.038       38.851     5612.444     7231.445     1509.434        1.238        0.718      102.005       46.821        0.211      346.992       25.637      860.694
08/30/2014  10:11:00     -191.770      -37.079       -0.015      145.513       97.470       66.528    21174.110     9500.453     4425.977        3.662        1.755      195.322       76.484        0.153      346.899       25.475      860.677
08/30/2014  10:12:00     -290.432     -130.344      -18.671       89.754       62.489       52.615     8055.868     3904.877     2768.378        5.821        0.736      318.340       55.496        0.030      346.661       25.065      860.657
08/30/2014  10:13:00     -160.663     -147.913       -0.596      100.951      137.817       53.992    10191.016    18993.596     2915.180        3.989        1.605      218.382       62.505        0.082      346.855       25.401      860.676
08/30/2014  10:14:00     -143.963     -230.167        9.236      142.804      121.687       64.481    20393.109    14807.799     4157.762        5.657        1.968      271.481       68.500        0.064      346.772       25.256      860.681
08/30/2014  10:15:00     -230.939     -352.590       -0.907      182.682      192.201       92.353    33372.693    36941.334     8529.091       12.823        3.942      421.488      100.863        0.057      346.807       25.316      860.668
08/30/2014  10:16:00     -364.116     -152.904        2.700      211.841      149.587       84.693    44876.465    22376.351     7172.985       11.518        3.721      394.918       93.042        0.056      346.988       25.627      860.634
08/30/2014  10:17:00     -342.308     -231.128       -9.494      199.164      174.746       91.730    39666.467    30536.001     8414.463       12.464        3.931      413.032       91.947        0.050      346.790       25.288      860.619
08/30/2014  10:18:00     -339.555     -126.159      -12.010      164.694      146.019       75.126    27124.144    21321.514     5643.968        9.271        2.704      362.234       83.611        0.053      346.841       25.375      860.630
08/30/2014  10:19:00     -259.508      -67.270        4.480      127.058       85.906       62.506    16143.682     7379.891     3907.055        4.965        1.372      268.085       69.378        0.067      346.874       25.431      860.599
08/30/2014  10:20:00     -161.970     -328.203      -14.518      109.449      175.857       58.873    11978.975    30925.777     3466.060        9.026        2.319      365.994       40.807        0.012      346.829       25.354      860.600
08/30/2014  10:21:00     -211.654     -175.360       13.494      127.487      126.025       57.845    16253.052    15882.422     3346.099        5.560        1.774      274.861       44.979        0.027      346.819       25.338      860.569
08/30/2014  10:22:00     -239.091     -128.938        8.339      153.958      151.691       63.705    23702.948    23010.136     4058.271        6.231        2.539      271.642       56.133        0.043      346.836       25.366      860.545
08/30/2014  10:23:00     -192.392     -156.342       14.306      185.684      154.205       71.818    34478.371    23779.212     5157.820        6.253        3.171      247.907       85.709        0.120      346.972       25.602      860.526
08/30/2014  10:24:00     -217.215     -208.238        1.076      146.110      135.854       59.134    21348.112    18456.415     3496.821        6.692        2.165      300.908       65.857        0.048      347.080       25.786      860.510
08/30/2014  10:25:00     -297.662     -342.181      -23.790      227.983      202.775       85.457    51976.433    41117.619     7302.914       15.331        5.020      453.531       73.885        0.027      346.934       25.534      860.505
08/30/2014  10:26:00     -484.458      -69.283      -23.667      197.970      158.866       76.924    39192.018    25238.291     5917.312       15.519        3.517      489.387       90.125        0.034      346.832       25.360      860.486
08/30/2014  10:27:00     -337.495      -60.591      -14.373      142.233      111.563       60.582    20230.097    12446.294     3670.151        7.706        1.817      342.891       68.605        0.040      346.824       25.347      860.477
08/30/2014  10:28:00     -267.192     -143.523       -4.158      195.666      118.086       72.981    38285.009    13944.239     5326.238        7.477        2.878      303.299       68.586        0.051      347.018       25.682      860.499
08/30/2014  10:29:00     -363.372     -251.537       -4.533      189.088      152.847       85.608    35754.394    23362.246     7328.652       13.087        3.322      441.939       96.562        0.048      346.875       25.435      860.490
08/30/2014  10:30:00     -249.767     -201.945       -7.957      159.080      110.092       67.850    25306.368    12120.340     4603.684        7.262        2.102      321.194       71.661        0.050      346.869       25.423      860.494
08/30/2014  10:31:00     -304.810     -249.834       11.662      192.025      151.055       85.477    36873.616    22817.616     7306.248       11.122        3.350      394.115       96.319        0.060      347.021       25.685      860.490
08/30/2014  10:32:00     -296.244     -139.639       -3.071      166.383      118.854       85.760    27683.167    14126.174     7354.698        7.821        2.458      327.505       83.181        0.065      346.967       25.591      860.520
08/30/2014  10:33:00     -329.082     -300.069        4.489      171.756      192.227       76.986    29500.131    36951.084     5926.852       13.535        3.619      445.350       71.187        0.026      346.900       25.476      860.473
08/30/2014  10:34:00     -496.493     -234.467       -9.150      234.865      185.617       82.811    55161.707    34453.721     6857.741       19.900        4.824      549.072       95.939        0.031      346.744       25.208      860.482
08/30/2014  10:35:00     -287.249     -175.697        6.858      197.601      146.807       69.536    39045.963    21552.407     4835.293        8.942        3.272      336.721       62.501        0.034      346.963       25.585      860.470
08/30/2014  10:36:00     -253.369     -200.899        3.518      130.160      158.425       79.012    16941.637    25098.517     6242.892        7.642        2.414      323.351       73.302        0.051      346.843       25.378      860.498
08/30/2014  10:37:00     -297.807     -247.218        0.119      154.546      143.517       75.508    23884.507    20597.250     5701.522        9.998        2.509      387.048       79.379        0.042      346.922       25.515      860.453
08/30/2014  10:38:00     -425.953     -149.495      -14.933      198.842      182.101       91.855    39538.136    33160.884     8437.288       14.256        4.057      451.425       92.028        0.042      347.098       25.820      860.477
08/30/2014  10:39:00     -523.066     -279.305      -14.102      189.167      185.168       91.445    35784.307    34287.083     8362.108       21.511        3.922      592.967       95.232        0.026      346.851       25.392      860.506
08/30/2014  10:40:00     -371.842     -155.878      -19.162      161.905      123.720       72.351    26213.251    15306.745     5234.617       10.483        2.338      403.193       64.241        0.025      346.931       25.529      860.508
08/30/2014  10:41:00     -243.531     -119.922        0.086      162.942      150.722       73.883    26550.216    22716.995     5458.659        6.420        2.736      271.457       71.344        0.069      347.127       25.868      860.496
08/30/2014  10:42:00     -383.842     -212.551      -20.436      168.440      128.530       74.330    28371.895    16519.911     5524.945       12.166        2.521      438.763       86.169        0.039      347.022       25.688      860.457
08/30/2014  10:43:00     -294.481     -217.601       -0.645      172.835      138.115       74.644    29871.781    19075.650     5571.725        9.428        2.726      366.155       77.564        0.045      347.218       26.024      860.459
08/30/2014  10:44:00     -279.630     -143.673       -5.697      114.590      116.183       57.793    13130.757    13498.583     3340.032        6.441        1.498      314.380       54.834        0.030      347.245       26.071      860.428
08/30/2014  10:45:00     -259.573      -53.303        2.059      164.410      109.889       66.933    27030.698    12075.574     4479.989        5.690        2.179      264.990       70.840        0.071      347.250       26.081      860.393
08/30/2014  10:46:00     -165.479     -281.822        9.308      154.117      185.578       81.735    23752.171    34439.345     6680.678        8.587        3.244      326.813       79.374        0.059      347.235       26.054      860.415
08/30/2014  10:47:00     -212.765     -116.024        4.919      161.171      112.236       61.056    25976.119    12596.926     3727.777        5.052        2.115      242.344       57.846        0.057      347.362       26.273      860.405
08/30/2014  10:48:00     -153.542      -83.648       -3.535       92.607       93.248       41.813     8576.016     8695.277     1748.352        2.480        0.951      174.849       37.262        0.045      347.107       25.835      860.393
08/30/2014  10:49:00     -243.526     -110.268       -5.434      118.979       90.487       67.485    14156.079     8187.938     4554.180        4.919        1.345      267.327       61.864        0.054      347.105       25.832      860.343
08/30/2014  10:50:00     -206.755     -136.677       -1.360      153.269      142.955       69.311    23491.246    20436.204     4803.968        5.507        2.437      247.847       74.432        0.090      347.300       26.166      860.327
08/30/2014  10:51:00     -219.095     -143.022       -0.038      142.696      125.210       64.548    20362.024    15677.456     4166.404        5.432        2.010      261.645       60.263        0.053      347.284       26.138      860.320
08/30/2014  10:52:00     -228.807     -175.766       -1.528      104.059      114.151       50.717    10828.259    13030.545     2572.225        5.483        1.322      288.524       42.271        0.021      347.132       25.875      860.324
08/30/2014  10:53:00     -143.203      -84.236       -2.094       73.345       72.026       36.813     5379.477     5187.764     1355.232        1.976        0.596      166.141       32.345        0.038      347.188       25.976      860.282
08/30/2014  10:54:00     -323.746     -160.126       -9.429      151.250       96.543       47.958    22876.539     9320.640     2299.955        8.251        1.725      361.181       47.321        0.017      347.083       25.792      860.258
08/30/2014  10:55:00     -255.457     -160.398      -11.043      101.423      107.905       60.184    10286.567    11643.529     3622.109        5.832        1.278      301.638       58.103        0.037      347.294       26.155      860.291
08/30/2014  10:56:00     -266.765     -196.482        7.493      166.892      123.694       74.741    27852.980    15300.087     5586.261        7.927        2.437      331.314       81.155        0.060      347.166       25.934      860.269
08/30/2014  10:57:00     -325.479     -236.474       -3.447      185.014      127.938       75.065    34230.281    16368.144     5634.714       10.904        2.812      402.314       90.798        0.051      347.172       25.945      860.267
08/30/2014  10:58:00     -279.805     -188.249       23.984      194.490      166.135       95.843    37826.224    27600.973     9185.936        9.444        3.731      337.237      109.881        0.106      347.238       26.061      860.278
08/30/2014  10:59:00     -246.238     -284.006      -12.992      157.424      185.557       65.245    24782.317    34431.523     4256.922       10.245        3.174      375.889       62.635        0.028      347.056       25.744      860.252
08/30/2014  11:00:00     -179.985     -304.104       -2.500      155.892      119.923       76.802    24302.333    14381.602     5898.488        8.472        2.229      353.375       78.605        0.049      347.192       25.978      860.212
08/30/2014  11:01:00     -306.552     -206.549       12.696      166.168      158.140       81.350    27611.791    25008.303     6617.842        9.801        2.962      369.644       90.756        0.060      347.255       26.088      860.197
08/30/2014  11:02:00     -246.753     -142.834       -2.247      141.074       93.376       63.367    19901.987     8719.056     4015.315        5.696        1.632      285.112       72.249        0.064      347.181       25.962      860.200
08/30/2014  11:03:00     -194.665     -135.033       -9.075      157.896      104.724       54.856    24931.246    10967.026     3009.220        4.755        1.945      236.915       70.467        0.088      347.433       26.395      860.220
08/30/2014  11:04:00     -244.001     -188.736      -14.531      157.699      114.682       65.742    24868.824    13151.978     4322.075        6.885        2.117      308.476       71.468        0.054      347.385       26.312      860.239
08/30/2014  11:05:00     -326.545     -285.505        6.025      213.925      198.920       84.208    45763.831    39569.363     7090.995       14.028        4.621      433.756      110.426        0.065      347.372       26.289      860.232
08/30/2014  11:06:00     -265.493     -237.785       13.128      168.429      192.876       72.911    28368.234    37201.032     5315.994        9.903        3.544      356.410       67.260        0.036      347.349       26.249      860.262
08/30/2014  11:07:00     -228.648     -241.419       -8.117      161.456      191.905       75.283    26068.083    36827.364     5667.474        8.958        3.428      332.510       87.202        0.069      347.258       26.094      860.272
08/30/2014  11:08:00     -151.511     -257.491        0.670      141.869      155.745       72.549    20126.839    24256.601     5263.335        6.944        2.482      298.759       64.592        0.047      347.374       26.293      860.243
08/30/2014  11:09:00     -207.556     -173.753        6.852      168.648      124.318       67.061    28442.223    15454.918     4497.214        6.085        2.420      270.684       69.924        0.067      347.443       26.413      860.235
08/30/2014  11:10:00     -319.915     -171.395        9.104      195.282      151.766       92.701    38134.870    23032.797     8593.389       10.077        3.488      362.935      107.148        0.087      347.557       26.611      860.211
08/30/2014  11:11:00     -421.373     -280.405      -24.502      192.347      167.066       79.534    36997.545    27911.134     6325.729       16.399        3.562      506.144       88.027        0.030      347.327       26.213      860.221
08/30/2014  11:12:00     -264.343     -123.712       -2.088      131.744      117.887       63.915    17356.445    13897.425     4085.096        6.026        1.767      291.859       65.484        0.050      347.350       26.250      860.220
08/30/2014  11:13:00     -175.354      -95.034       22.159      168.461      133.506       92.511    28379.070    17823.968     8558.208        4.751        2.738      199.450       91.675        0.211      347.517       26.540      860.186
08/30/2014  11:14:00     -234.613     -108.058       14.837      160.587      105.600       68.672    25788.321    11151.292     4715.785        5.429        2.083      258.301       86.337        0.112      347.679       26.821      860.160
08/30/2014  11:15:00      -87.856      -51.091       27.232      104.924       89.389       59.660    11008.952     7990.403     3559.271        1.681        1.128      101.631       56.432        0.308      347.913       27.226      860.166
08/30/2014  11:16:00     -277.658     -148.570       -8.770      162.399      139.240       64.250    26373.556    19387.858     4128.004        7.456        2.494      314.908       59.106        0.035      347.679       26.820      860.178
08/30/2014  11:17:00     -254.740     -183.929       -4.222      152.200      106.603       64.228    23164.833    11364.292     4125.287        6.869        1.933      314.202       66.622        0.045      347.734       26.914      860.174
08/30/2014  11:18:00     -259.976     -175.376      -18.054       98.384      109.509       54.436     9679.413    11992.270     2963.284        6.165        1.232      313.599       45.521        0.021      347.822       27.067      860.160
08/30/2014  11:19:00     -253.916      -40.950        6.844      152.521      116.122       53.242    23262.519    13484.284     2834.724        5.288        1.979      257.197       58.027        0.051      347.958       27.302      860.135
08/30/2014  11:20:00     -279.958      -72.915        9.102      149.330      122.964       67.805    22299.367    15120.037     4597.563        6.289        2.101      289.298       77.804        0.072      348.022       27.411      860.136
08/30/2014  11:21:00     -263.619      -98.068        4.558      152.155      146.774       71.213    23151.010    21542.596     5071.319        6.444        2.488      281.269       74.468        0.070      347.748       26.939      860.134
08/30/2014  11:22:00     -235.625     -249.969        4.923      184.543      121.829       64.817    34055.936    14842.369     4201.279        8.555        2.655      343.517       64.337        0.035      347.427       26.385      860.117
08/30/2014  11:23:00     -286.670     -203.267       -6.886      158.370      121.751       71.311    25080.921    14823.407     5085.217        8.426        2.249      351.421       79.922        0.052      347.304       26.173      860.082
08/30/2014  11:24:00     -247.958      -91.995        1.221      132.803       87.537       52.616    17636.572     7662.724     2768.449        4.900        1.403      264.473       59.822        0.051      347.437       26.404      860.046
08/30/2014  11:25:00     -275.060      -52.245      -13.700      107.643       84.049       50.516    11586.987     7064.197     2551.831        4.988        1.060      279.978       51.015        0.033      347.315       26.191      860.012
08/30/2014  11:26:00      -63.620     -120.097        7.037       89.670      101.482       51.714     8040.661    10298.680     2674.309        1.976        1.051      135.907       52.022        0.147      347.731       26.910      859.987
08/30/2014  11:27:00     -151.967     -227.940        4.802      140.773      177.316       72.860    19817.150    31440.827     5308.620        6.581        2.828      273.954       84.331        0.095      347.736       26.918      859.977
08/30/2014  11:28:00     -131.969     -326.042       16.268      166.539      177.871       88.716    27735.278    31638.242     7870.572        9.560        3.362      351.737       88.341        0.063      347.516       26.538      859.920
08/30/2014  11:29:00     -398.688     -302.427       -3.816      240.348      154.874      102.770    57767.342    23985.830    10561.739       17.135        4.616      500.414       88.313        0.031      347.704       26.863      859.845
08/30/2014  11:30:00     -435.287     -291.796       -7.834      202.174      143.032       96.665    40874.489    20458.268     9344.026       17.266        3.534      524.042       95.907        0.033      347.711       26.874      859.871
08/30/2014  11:31:00     -233.978     -246.425        5.997      172.083      132.774       68.329    29612.591    17628.927     4668.818        8.370        2.596      339.810       70.638        0.043      347.791       27.013      859.881
08/30/2014  11:32:00     -248.287     -154.497      -10.838      151.782       94.418       56.032    23037.805     8914.800     3139.639        6.036        1.755      292.431       61.518        0.044      347.917       27.228      859.894
08/30/2014  11:33:00     -356.338     -265.930      -21.117      282.316      160.207       81.605    79702.144    25666.361     6659.409       15.506        5.601      444.630       75.887        0.029      347.536       26.573      859.942
08/30/2014  11:34:00     -372.849     -105.539      -16.140      159.088      153.481       75.407    25309.148    23556.362     5686.225       10.247        2.728      387.498       80.090        0.043      347.443       26.411      859.942
08/30/2014  11:35:00     -294.886        5.378       -5.384      117.947       89.857       67.741    13911.459     8074.300     4588.865        5.679        1.329      294.935       63.207        0.046      347.686       26.832      859.915
08/30/2014  11:36:00     -426.136     -106.126       -5.475      154.151      126.843       70.520    23762.622    16089.027     4973.026       11.885        2.241      439.152       78.830        0.032      347.580       26.648      859.891
08/30/2014  11:37:00     -225.404     -106.158        7.605      163.916      151.058       79.731    26868.468    22818.444     6356.993        5.908        2.802      249.151       77.855        0.098      347.734       26.914      859.898
08/30/2014  11:38:00     -331.243     -221.285       -8.850      185.996      180.506       89.017    34594.393    32582.280     7924.026       11.692        3.755      398.358      111.865        0.079      347.622       26.720      859.905
08/30/2014  11:39:00     -386.363     -305.728        0.462      248.500      181.397      100.903    61752.267    32904.968    10181.322       17.377        5.242      492.693      131.922        0.072      347.681       26.823      859.886
08/30/2014  11:40:00     -242.028     -152.928        4.364      242.744      139.651       62.698    58924.866    19502.375     3931.032        8.215        4.118      286.295       76.562        0.072      347.745       26.935      859.889
08/30/2014  11:41:00      -88.161     -209.406      -10.388       73.267      118.326       51.527     5368.017    14000.933     2655.027        3.687        1.101      227.207       49.358        0.047      347.545       26.590      859.897
08/30/2014  11:42:00     -191.167      -62.169       -6.895      134.863      121.814       52.651    18187.957    14838.542     2772.098        3.812        1.790      201.022       54.672        0.074      347.657       26.785      859.852
08/30/2014  11:43:00     -258.751     -247.398       -0.269      182.291      118.575       66.063    33229.926    14060.074     4364.327        8.990        2.583      357.991       61.902        0.030      347.445       26.416      859.902
08/30/2014  11:44:00     -295.072     -174.466        1.585      127.476       88.836       61.839    16250.117     7891.868     3824.029        7.273        1.398      342.792       55.010        0.026      347.593       26.672      859.865
08/30/2014  11:45:00     -256.994     -207.584       -5.294      156.942      128.825       78.724    24630.838    16595.771     6197.399        7.829        2.371      330.359       86.823        0.069      347.678       26.818      859.898
08/30/2014  11:46:00     -273.792     -255.470        2.200      147.176      152.038       73.231    21660.911    23115.464     5362.788        9.518        2.507      374.468       71.914        0.037      347.631       26.736      859.897
08/30/2014  11:47:00     -223.403     -326.743       -9.971      147.088      139.417       67.104    21634.852    19436.980     4502.922       10.116        2.279      395.815       68.290        0.030      347.551       26.598      859.890
08/30/2014  11:48:00     -152.058     -121.550        6.333      129.087      105.647       74.466    16663.379    11161.271     5545.238        3.565        1.668      194.669       72.316        0.138      347.830       27.081      859.869
08/30/2014  11:49:00        8.976      -95.165       21.214      106.993       91.242       65.332    11447.396     8325.043     4268.319        1.681        1.202       95.587       39.762        0.173      347.891       27.188      859.838
08/30/2014  11:50:00     -123.430      -92.062      -13.781       61.539       53.120       38.023     3787.010     2821.715     1445.763        1.598        0.403      153.982       21.935        0.020      347.864       27.143      859.796
08/30/2014  11:51:00     -185.831     -207.783      -20.538       72.654       88.323       38.657     5278.655     7800.992     1494.400        4.635        0.729      278.760       37.860        0.018      347.613       26.704      859.763
08/30/2014  11:52:00     -184.110     -222.831      -14.757       93.387       98.561       63.808     8721.051     9714.181     4071.404        5.313        1.125      289.051       42.342        0.021      347.653       26.775      859.713
08/30/2014  11:53:00     -150.732     -155.490       12.658      108.185      142.856       61.464    11703.977    20407.853     3777.862        4.147        1.794      216.558       58.047        0.072      347.913       27.224      859.688
08/30/2014  11:54:00     -337.649     -326.880      -21.129      170.628      161.242       97.039    29113.787    25998.822     9416.575       14.290        3.226      469.954       90.467        0.037      347.917       27.231      859.708
08/30/2014  11:55:00     -392.297     -299.449       -5.089      180.555      154.576       89.678    32600.166    23893.803     8042.078       15.405        3.227      493.525       80.077        0.026      347.986       27.350      859.688
08/30/2014  11:56:00     -382.376     -212.950       -0.803      179.398      119.848       80.695    32183.541    14363.570     6511.625       12.230        2.653      437.675       76.328        0.030      347.897       27.195      859.691
08/30/2014  11:57:00     -273.349     -233.672        1.603      182.762      149.588       75.418    33401.931    22376.544     5687.807        9.538        3.073      359.614       75.555        0.044      347.934       27.259      859.689
08/30/2014  11:58:00     -194.156     -168.296        5.975      119.465       91.694       69.154    14272.002     8407.839     4782.304        4.675        1.373      256.944       50.016        0.038      347.839       27.096      859.679
08/30/2014  11:59:00     -126.380     -138.458       27.346      149.364      109.577       65.010    22309.484    12007.044     4226.350        3.721        1.927      187.463       57.757        0.095      348.092       27.534      859.679
08/30/2014  12:00:00     -214.731     -227.159       -5.522      184.179      151.144       77.910    33921.908    22844.492     6069.913        8.028        3.142      312.587       81.901        0.069      347.925       27.244      859.669
08/30/2014  12:01:00     -330.519     -192.146        3.484      160.739      140.665       75.186    25836.927    19786.637     5652.952        9.872        2.564      382.313       80.583        0.044      347.864       27.138      859.653
08/30/2014  12:02:00     -230.445     -221.441       -4.074      181.255       90.818       53.935    32853.520     8247.986     2908.985        7.308        2.201      319.595       53.713        0.028      347.763       26.965      859.668
08/30/2014  12:03:00     -162.217     -115.798      -31.149      100.723      101.047       35.946    10145.130    10210.494     1292.084        3.117        1.082      199.307       31.000        0.024      347.905       27.209      859.634
08/30/2014  12:04:00        9.172      -20.756       18.979       29.482       39.620       28.775      869.204     1569.770      828.016        0.207        0.163       22.692       22.135        0.952      348.355       27.990      859.614
08/30/2014  12:05:00     -157.782     -109.284      -11.868      131.379       99.923       40.262    17260.314     9984.699     1620.990        3.292        1.443      191.933       39.547        0.042      348.113       27.571      859.605
08/30/2014  12:06:00     -242.675     -121.808       -1.235      160.767      102.564       55.933    25845.910    10519.464     3128.497        5.660        1.975      271.529       50.860        0.035      348.109       27.563      859.593
08/30/2014  12:07:00     -330.894      -15.592       -2.965      206.382      135.329       82.058    42593.361    18313.932     6733.445        8.868        3.382      331.261      101.786        0.094      348.263       27.828      859.582
08/30/2014  12:08:00     -268.258      -19.729       -5.774      140.594      111.345       69.089    19766.750    12397.696     4773.240        5.465        1.847      268.982       71.960        0.072      348.067       27.490      859.570
08/30/2014  12:09:00     -108.429      -65.274        7.298      110.578       95.439       42.793    12227.572     9108.660     1831.212        1.961        1.158      126.560       45.122        0.127      347.997       27.371      859.584
08/30/2014  12:10:00     -250.998       16.049       11.067      130.117      100.189       64.215    16930.437    10037.826     4123.608        4.723        1.555      251.511       65.467        0.068      348.167       27.662      859.533
08/30/2014  12:11:00     -202.236      -51.753       -8.291      119.481       95.525       54.605    14275.738     9124.972     2981.731        3.501        1.319      208.753       51.798        0.062      348.501       28.240      859.548
08/30/2014  12:12:00     -210.711      -66.181       28.916      200.479      140.270       75.406    40192.015    19675.610     5686.106        5.757        3.278      220.860       82.637        0.140      348.536       28.303      859.563
08/30/2014  12:13:00     -380.767     -173.670        2.689      174.834      161.489       77.259    30567.020    26078.680     5969.027       11.887        3.131      418.503       65.902        0.025      348.006       27.384      859.580
08/30/2014  12:14:00     -397.616     -136.503        9.157      245.725      173.018      105.872    60380.642    29935.388    11208.854       13.915        5.076      420.394      131.833        0.098      348.266       27.833      859.666
08/30/2014  12:15:00     -318.851     -242.413       -6.307      223.104      158.433       92.815    49775.428    25101.009     8614.658       12.196        4.175      400.537      107.761        0.072      348.266       27.831      859.703
08/30/2014  12:16:00     -281.530      -21.888      -15.326      156.684      111.009       56.737    24549.805    12323.042     3219.062        6.002        2.005      282.380       57.424        0.041      348.051       27.462      859.678
08/30/2014  12:17:00     -240.687      -40.355        0.901      126.921       91.399       53.807    16108.938     8353.786     2895.143        4.345        1.368      244.046       57.199        0.055      348.230       27.773      859.643
08/30/2014  12:18:00     -281.891      -98.748      -20.502      103.073      100.892       53.918    10624.102    10179.247     2907.112        5.667        1.186      298.687       55.928        0.035      348.129       27.596      859.592
08/30/2014  12:19:00     -131.479       47.179       -9.764       90.828       95.497       55.882     8249.727     9119.617     3122.765        2.005        1.025      139.688       56.165        0.162      348.526       28.285      859.527
08/30/2014  12:20:00     -171.532      -32.731      -11.616      155.642      104.874       59.638    24224.369    10998.622     3556.700        3.470        1.939      174.627       52.518        0.090      348.393       28.054      859.480
08/30/2014  12:21:00     -433.319      -27.822      -14.115      306.956      136.098       77.544    94222.232    18522.553     6013.091       15.372        5.938      434.211      112.567        0.067      348.458       28.167      859.462
08/30/2014  12:22:00     -275.181     -120.693       -9.678      193.103      138.682       87.138    37288.858    19232.830     7593.076        7.724        3.206      300.485       95.664        0.101      348.352       27.982      859.450
08/30/2014  12:23:00     -198.898      -72.113       -5.476      142.808      114.638       52.452    20394.098    13141.868     2751.184        4.053        1.814      211.568       60.939        0.083      348.325       27.937      859.408
08/30/2014  12:24:00     -237.402      -95.112        2.649      166.713      120.631       67.177    27793.115    14551.861     4512.787        5.613        2.343      255.746       84.941        0.110      348.331       27.945      859.373
08/30/2014  12:25:00     -248.814      -69.082       -9.439      148.559       91.192       54.779    22069.692     8316.051     3000.762        5.007        1.669      258.226       62.762        0.059      348.529       28.289      859.349
08/30/2014  12:26:00     -432.100     -119.761       -4.470      248.726      127.018       80.908    61864.468    16133.574     6546.055       14.279        4.227      448.389      104.474        0.054      348.491       28.223      859.331
08/30/2014  12:27:00     -443.966     -118.026      -23.121      181.831      171.341       83.098    33062.638    29357.772     6905.304       14.043        3.466      459.386       88.681        0.037      348.363       27.999      859.321
08/30/2014  12:28:00     -434.157       15.862      -29.954      174.246      121.023       78.212    30361.689    14646.503     6117.147       12.037        2.556      434.447       89.174        0.042      348.339       27.958      859.306
08/30/2014  12:29:00     -446.525     -151.981      -15.465      143.900      130.083       68.910    20707.311    16921.697     4748.558       13.254        2.119      471.681       77.438        0.027      348.255       27.816      859.286
08/30/2014  12:30:00     -283.031      -91.480       -4.141      130.822       84.179       52.949    17114.479     7086.044     2803.618        5.774        1.350      297.447       51.091        0.030      348.331       27.945      859.280
08/30/2014  12:31:00     -260.918      -33.799       -1.646      137.955      110.287       61.332    19031.536    12163.242     3761.595        5.208        1.748      263.098       67.234        0.065      348.623       28.450      859.263
08/30/2014  12:32:00     -125.794      -76.493       24.096      123.889      114.602       58.689    15348.447    13133.556     3444.411        2.708        1.596      147.225       63.418        0.186      348.729       28.635      859.255
08/30/2014  12:33:00     -283.333     -172.982        2.751      204.485      136.178       80.558    41814.139    18544.388     6489.594        8.851        3.342      331.965       87.926        0.070      348.443       28.139      859.253
08/30/2014  12:34:00     -340.291     -207.398        7.825      192.703      179.116       97.348    37134.549    32082.412     9476.556       11.877        3.935      398.512       88.654        0.049      348.331       27.945      859.191
08/30/2014  12:35:00     -272.579     -187.423        8.921      184.958      153.556       84.410    34209.577    23579.502     7125.094        8.720        3.246      330.796       67.286        0.041      348.456       28.161      859.177
08/30/2014  12:36:00     -392.952     -226.679       -7.484      193.471      158.542       83.254    37431.034    25135.447     6931.241       13.766        3.475      453.646       98.162        0.047      348.419       28.097      859.208
08/30/2014  12:37:00     -355.638      -47.833       -5.241      181.296      116.076       72.625    32868.196    13473.544     5274.375        9.019        2.581      358.840       85.005        0.056      348.546       28.318      859.220
08/30/2014  12:38:00     -388.907     -245.854      -13.162      249.681      178.549       96.250    62340.764    31879.898     9264.102       15.766        5.174      460.100      109.529        0.057      348.564       28.349      859.238
08/30/2014  12:39:00     -311.382     -293.022       -9.420      166.404      152.231       83.178    27690.349    23174.155     6918.636       12.033        2.889      427.575       62.964        0.022      348.289       27.873      859.254
08/30/2014  12:40:00     -423.139     -335.173      -24.648      245.824      195.912      105.281    60429.507    38381.442    11084.114       20.092        5.495      539.803      111.157        0.042      348.246       27.799      859.263
08/30/2014  12:41:00     -362.125     -159.221      -22.070      149.945       92.253       66.868    22483.604     8510.691     4471.333        9.621        1.773      395.583       73.953        0.035      348.238       27.784      859.236
08/30/2014  12:42:00     -280.076     -159.760      -14.170      178.649      120.587       74.967    31915.555    14541.134     5619.980        7.811        2.604      322.437       88.259        0.075      348.237       27.783      859.195
08/30/2014  12:43:00     -229.851     -178.108        8.466      155.806      113.784       77.796    24275.405    12946.844     6052.215        6.394        2.164      290.781       77.817        0.072      348.357       27.991      859.136
08/30/2014  12:44:00     -258.811      -96.193       17.221      212.189      126.906       82.202    45024.253    16105.174     6757.247        7.220        3.394      276.110      101.157        0.134      348.537       28.304      859.110
08/30/2014  12:45:00     -216.328      -31.714      -20.059       96.076       72.515       43.219     9230.530     5258.408     1867.887        3.228        0.818      218.640       41.717        0.036      348.351       27.981      859.090
08/30/2014  12:46:00     -219.419     -109.012        3.219      110.446      119.152       61.914    12198.285    14197.184     3833.377        4.513        1.511      245.006       64.488        0.069      348.368       28.009      859.000
08/30/2014  12:47:00     -285.792      -80.953       -5.282      158.220      148.680       66.048    25033.449    22105.639     4362.398        6.987        2.575      297.036       56.932        0.037      348.448       28.149      858.938
08/30/2014  12:48:00     -191.572       12.370      -11.046      126.801       97.892       59.325    16078.487     9582.766     3519.498        3.307        1.459      191.971       58.363        0.092      348.645       28.490      858.882
08/30/2014  12:49:00     -239.878      -94.044       -4.491      237.528      139.853       79.579    56419.408    19558.764     6332.775        7.434        4.116      257.654       95.640        0.138      348.773       28.709      858.877
08/30/2014  12:50:00     -379.659     -353.152       -5.485      240.116      162.584       91.554    57655.775    26433.538     8382.139       18.066        4.624      518.514       62.554        0.015      348.376       28.023      858.892
08/30/2014  12:51:00     -326.686     -180.402        1.254      173.791      136.296       75.600    30203.143    18576.518     5715.388        9.687        2.725      373.187       86.163        0.053      348.495       28.230      858.881
08/30/2014  12:52:00     -262.823     -128.594       13.045      195.062      150.048       81.720    38049.045    22514.268     6678.234        7.650        3.362      292.596       98.454        0.113      348.481       28.203      858.882
08/30/2014  12:53:00     -248.242     -179.395       22.588      212.917      149.279       96.859    45333.510    22284.080     9381.605        8.564        3.850      306.279      104.064        0.115      348.458       28.166      858.867
08/30/2014  12:54:00     -295.552     -196.572       16.107      206.147      151.440       93.996    42496.680    22934.129     8835.307       10.024        3.713      354.953      102.081        0.083      348.500       28.237      858.873
08/30/2014  12:55:00     -433.053     -207.588       -1.747      247.849      200.611      107.566    61429.291    40244.690    11570.514       17.192        5.662      480.237      124.342        0.067      348.479       28.201      858.879
08/30/2014  12:56:00     -506.596     -330.868       -5.634      223.477      224.867      107.273    49941.795    50565.148    11507.564       23.906        5.601      605.073      111.050        0.034      348.359       27.995      858.860
08/30/2014  12:57:00     -416.629     -211.071       -6.565      236.402      212.922      128.724    55885.879    45335.581    16569.944       16.796        5.890      467.044      141.319        0.092      348.478       28.199      858.887
08/30/2014  12:58:00     -340.696     -113.904      -26.288      231.032      158.608       64.754    53375.935    25156.439     4193.079       10.622        4.136      359.232       84.332        0.055      348.309       27.908      858.913
08/30/2014  12:59:00     -231.551     -126.817        9.112      165.722      122.437       83.111    27463.788    14990.854     6907.379        5.956        2.468      264.005       74.878        0.080      348.465       28.177      858.870
08/30/2014  13:00:00     -198.169     -264.315      -14.333      123.833      145.387       49.867    15334.611    21137.312     2486.755        7.414        1.948      330.353       40.833        0.015      348.278       27.854      858.816
08/30/2014  13:01:00     -166.078     -112.658        2.961      104.327      188.787       60.126    10884.220    35640.374     3615.135        4.520        2.507      200.683       69.623        0.120      348.321       27.929      858.774
08/30/2014  13:02:00     -128.175     -238.043       36.874      186.983      160.010       75.108    34962.529    25603.187     5641.204        7.032        3.310      270.357       68.362        0.064      348.504       28.244      858.708
08/30/2014  13:03:00     -151.589     -260.520      -29.894       89.598      157.461       55.755     8027.737    24794.071     3108.612        6.383        1.797      301.413       18.015        0.004      348.234       27.779      858.702
08/30/2014  13:04:00     -101.609      -75.673        6.844      130.152       74.987       51.408    16939.479     5623.120     2642.743        2.065        1.260      126.692       44.119        0.121      348.655       28.509      858.703
08/30/2014  13:05:00      -38.653     -144.567       -4.921       86.829       83.358       39.994     7539.248     6948.541     1599.538        1.925        0.804      149.645       17.976        0.014      348.462       28.172      858.720
08/30/2014  13:06:00     -177.418     -126.120        4.924      141.065       94.536       50.696    19899.437     8937.084     2570.077        3.940        1.570      217.677       64.231        0.087      348.655       28.509      858.738
08/30/2014  13:07:00     -343.509     -199.125        0.709      175.608      104.480       71.025    30838.153    10916.008     5044.489       10.221        2.340      397.051       81.120        0.042      348.410       28.082      858.769
08/30/2014  13:08:00     -193.666     -189.435       -0.830      121.760      129.120       53.841    14825.613    16672.077     2898.811        5.389        1.720      270.910       63.867        0.056      348.412       28.085      858.786
08/30/2014  13:09:00     -115.476     -121.124       -3.300      147.221      129.929       82.269    21673.918    16881.520     6768.133        3.666        2.266      167.349       47.129        0.079      348.649       28.497      858.726
08/30/2014  13:10:00     -125.726     -107.424        2.798      126.292      104.367       54.785    15949.792    10892.453     3001.412        2.859        1.492      165.370       31.630        0.037      348.632       28.467      858.747
08/30/2014  13:11:00     -308.970     -190.523      -18.060      171.921      125.378       70.163    29556.975    15719.756     4922.896        9.113        2.510      362.990       68.506        0.036      348.642       28.484      858.737
08/30/2014  13:12:00     -479.876     -142.717       -4.828      227.257      200.719       93.970    51645.738    40288.088     8830.454       17.570        5.038      500.649      103.697        0.043      348.689       28.564      858.756
08/30/2014  13:13:00     -343.363     -170.064      -26.690      219.974      143.196       81.736    48388.468    20505.062     6680.810       11.154        3.779      383.170       74.393        0.038      348.459       28.166      858.739
08/30/2014  13:14:00     -203.196      -35.935       18.891      152.350      102.287       70.958    23210.511    10462.677     5035.090        4.081        1.935      206.349       78.938        0.146      348.709       28.601      858.729
08/30/2014  13:15:00     -246.194     -187.790       -9.258      155.733      112.596       68.446    24252.817    12677.835     4684.811        6.878        2.081      309.640       64.384        0.043      348.572       28.362      858.697
08/30/2014  13:16:00     -378.376     -103.336      -12.802      140.330      150.985       72.555    19692.520    22796.439     5264.251       10.087        2.388      392.233       83.510        0.045      348.768       28.701      858.655
08/30/2014  13:17:00     -180.366     -146.418        7.572      127.298      122.465       61.148    16204.893    14997.593     3739.093        4.448        1.747      232.315       60.934        0.069      348.734       28.644      858.671
08/30/2014  13:18:00     -442.779      -73.852       -2.841      178.516      153.540       94.430    31867.885    23574.681     8917.000       13.292        3.218      448.896       91.829        0.042      348.527       28.284      858.678
08/30/2014  13:19:00     -293.806      -25.143      -17.141      169.446       99.430       62.205    28711.968     9886.344     3869.496        6.485        2.123      294.880       75.787        0.066      348.552       28.329      858.658
08/30/2014  13:20:00     -228.836      -53.110      -21.700      171.626       86.043       63.204    29455.555     7403.349     3994.690        4.825        2.043      234.918       80.095        0.116      348.510       28.256      858.613
08/30/2014  13:21:00     -126.689      -50.297        3.691      143.290       79.641       47.430    20531.917     6342.685     2249.606        2.385        1.456      136.308       62.383        0.209      348.891       28.917      858.604
08/30/2014  13:22:00     -135.446      -38.160        2.954      172.616      115.147       53.837    29796.130    13258.923     2898.446        3.287        2.298      140.719       60.831        0.187      348.839       28.827      858.624
08/30/2014  13:23:00     -142.324      -52.528        7.203      119.584       56.982       49.202    14300.301     3246.921     2420.804        2.151        0.998      151.708       59.449        0.154      349.065       29.218      858.597
08/30/2014  13:24:00     -150.328     -166.493        3.501      118.228      178.450       47.730    13977.875    31844.463     2278.108        4.921        2.405      224.318       65.243        0.085      349.105       29.285      858.626
08/30/2014  13:25:00     -296.201     -179.022        3.254      158.403      120.559       74.535    25091.605    14534.531     5555.401        8.248        2.259      346.098       68.910        0.040      348.871       28.880      858.623
08/30/2014  13:26:00     -546.314     -349.100      -16.645      190.886      187.944       94.761    36437.542    35322.781     8979.695       25.066        4.037      648.328       93.868        0.021      348.599       28.409      858.593
08/30/2014  13:27:00     -385.618     -258.106      -10.217      187.651      165.388       83.089    35212.797    27353.182     6903.709       14.243        3.473      464.025       89.820        0.037      348.599       28.410      858.684
08/30/2014  13:28:00     -263.390     -164.739        3.773      148.264      123.942       65.955    21982.117    15361.645     4350.092        6.910        2.085      310.666       70.099        0.051      348.799       28.755      858.685
08/30/2014  13:29:00     -206.107      -84.441        6.111      136.949      108.462       63.383    18755.096    11763.951     4017.425        4.209        1.727      222.734       67.853        0.093      348.896       28.923      858.680
08/30/2014  13:30:00     -463.688      -64.629      -21.094      211.258      167.119       98.398    44630.093    27928.599     9682.086       15.092        4.112      468.170      109.597        0.055      348.716       28.611      858.685
08/30/2014  13:31:00     -426.291     -214.951      -15.835      179.233      198.444       93.502    32124.393    39380.086     8742.586       15.420        4.012      477.418       95.780        0.040      348.608       28.427      858.696
08/30/2014  13:32:00     -221.878       -6.598        8.434      105.233       87.783       47.884    11074.037     7705.937     2292.867        3.520        1.054      221.976       41.784        0.035      348.719       28.618      858.691
08/30/2014  13:33:00     -153.707     -114.765       -3.060      113.705      131.937       51.618    12928.906    17407.410     2664.379        3.490        1.650      191.825       48.100        0.063      348.643       28.485      858.658
08/30/2014  13:34:00     -258.411      -18.978       -2.031      141.256      125.737       68.451    19953.167    15809.915     4685.487        5.379        2.022      259.107       74.746        0.083      348.895       28.922      858.624
08/30/2014  13:35:00     -345.084     -265.071       -8.653      195.419      151.074       77.076    38188.737    22823.238     5940.664       12.817        3.348      435.138       90.260        0.043      348.748       28.666      858.659
08/30/2014  13:36:00     -383.044     -267.743        3.569      181.124      140.436       78.213    32805.844    19722.237     6117.297       13.852        2.932      467.342       86.094        0.034      348.566       28.353      858.649
08/30/2014  13:37:00     -129.760     -188.040        5.538      136.312      136.917       67.709    18581.075    18746.218     4584.521        4.706        2.096      228.466       59.724        0.068      348.757       28.682      858.682
08/30/2014  13:38:00      -92.858     -208.735        2.063       95.979      149.774       52.612     9211.961    22432.294     2768.008        4.330        1.721      228.458       27.148        0.014      348.686       28.561      858.675
08/30/2014  13:39:00     -112.462     -125.530       12.516      141.596       89.601       43.128    20049.393     8028.282     1860.043        2.924        1.497      168.539       44.867        0.071      348.849       28.845      858.641
08/30/2014  13:40:00     -202.490      -76.466        1.909      151.192      102.985       61.574    22859.004    10606.003     3791.329        4.205        1.863      216.447       60.737        0.079      348.872       28.883      858.607
08/30/2014  13:41:00     -262.169     -224.846       -7.049      256.074      187.175       91.474    65573.917    35034.475     8367.533       11.413        5.449      345.381      110.261        0.102      348.875       28.886      858.595
08/30/2014  13:42:00     -638.604      -66.613      -51.861      301.179      177.462       94.520    90708.939    31492.618     8934.089       27.301        6.557      642.069      132.234        0.042      348.573       28.364      858.604
08/30/2014  13:43:00     -443.937      -68.228      -11.166      210.064      119.431       79.877    44126.896    14263.763     6380.354       13.330        3.239      449.150       84.097        0.035      348.598       28.408      858.624
08/30/2014  13:44:00     -340.466     -220.733       -0.683      186.690      161.026       72.610    34853.115    25929.262     5272.229       11.533        3.303      405.759       84.974        0.044      348.632       28.467      858.648
08/30/2014  13:45:00     -261.720     -154.058      -16.882      111.563      120.484       55.652    12446.197    14516.291     3097.150        6.128        1.503      303.695       40.001        0.017      348.602       28.414      858.654
08/30/2014  13:46:00     -362.434     -218.158      -19.026      162.612      131.393       66.973    26442.586    17264.204     4485.433       11.374        2.410      423.027       70.559        0.028      348.570       28.361      858.674
08/30/2014  13:47:00     -278.470     -233.276       -6.891      143.558      120.484       78.484    20608.870    14516.362     6159.805        8.664        2.064      363.268       78.264        0.046      348.596       28.403      858.704
08/30/2014  13:48:00     -101.272     -167.897        3.681       98.947      113.160       40.076     9790.585    12805.265     1606.122        3.133        1.210      196.075       54.696        0.078      348.518       28.269      858.701
08/30/2014  13:49:00       22.149      -83.753       17.942       99.671       70.624       51.142     9934.225     4987.689     2615.551        1.268        0.877       86.632       43.883        0.257      348.776       28.718      858.647
08/30/2014  13:50:00     -180.652      -96.206       -9.965       86.142       55.718       38.581     7420.393     3104.505     1488.515        2.700        0.601      204.672       11.962        0.003      348.702       28.589      858.665
08/30/2014  13:51:00     -195.676      -88.541      -11.313       76.316       85.352       49.642     5824.143     7284.992     2464.303        3.091        0.779      214.776       40.052        0.035      348.748       28.666      858.689
08/30/2014  13:52:00     -214.583      -50.119        2.993      118.100       89.507       57.624    13947.690     8011.543     3320.470        3.692        1.264      220.359       63.335        0.083      348.883       28.901      858.715
08/30/2014  13:53:00     -201.283      -37.779       -2.915      130.576       98.700       66.767    17049.990     9741.673     4457.816        3.659        1.562      204.797       71.346        0.121      348.916       28.959      858.702
08/30/2014  13:54:00     -249.750       26.437      -24.420      136.347      118.372       58.687    18590.619    14011.887     3444.155        4.985        1.802      251.145       69.883        0.077      348.899       28.929      858.700
08/30/2014  13:55:00     -347.247      -72.695       -7.602      120.804       95.414       53.074    14593.631     9103.836     2816.848        7.621        1.326      354.774       51.181        0.021      348.646       28.491      858.701
08/30/2014  13:56:00     -175.385        1.287       14.398      156.576      104.031       66.001    24515.927    10822.416     4356.177        3.532        1.985      175.389       75.841        0.187      349.026       29.149      858.705
08/30/2014  13:57:00     -387.370      -30.107      -40.002      138.094       83.785       57.988    19070.049     7019.851     3362.654        9.100        1.473      388.539       59.792        0.024      348.581       28.378      858.727
08/30/2014  13:58:00     -335.954     -111.358       -3.439      181.744       89.711       60.225    33030.812     8047.987     3627.062        8.498        2.235      353.929       72.762        0.042      348.759       28.688      858.713
08/30/2014  13:59:00      -29.937      -29.627       32.884      114.453       60.735       48.782    13099.516     3688.778     2379.665        1.101        0.958       42.118       57.640        1.873      349.079       29.244      858.676
08/30/2014  14:00:00     -254.244      -67.178       -5.849      139.509       86.908       64.783    19462.873     7553.069     4196.858        5.019        1.561      262.970       72.360        0.076      349.000       29.105      858.676
08/30/2014  14:01:00     -223.927     -256.360        7.344      210.173      186.747       73.556    44172.591    34874.550     5410.490       10.017        4.223      340.388       87.006        0.065      348.742       28.658      858.682
08/30/2014  14:02:00     -352.262     -278.782        2.661      177.052      144.510       87.183    31347.418    20883.088     7600.958       13.081        2.992      449.230       86.113        0.037      348.569       28.356      858.584
08/30/2014  14:03:00     -393.919     -197.941      -16.153      179.044      184.727       80.592    32056.739    34123.997     6495.149       13.363        3.634      440.855       79.016        0.032      348.701       28.585      858.569
08/30/2014  14:04:00     -273.733     -242.651       -8.789      235.177      168.783       96.941    55308.062    28487.628     9397.514       11.352        4.660      365.800      120.942        0.109      348.723       28.624      858.549
08/30/2014  14:05:00     -269.142     -228.770       -6.629      161.383      186.075       96.861    26044.483    34623.938     9382.057        9.742        3.503      353.232       78.361        0.049      348.806       28.767      858.508
08/30/2014  14:06:00     -296.432     -236.226      -12.883      173.035      195.996       94.392    29941.010    38414.463     8909.935       11.054        3.863      379.044       86.709        0.052      348.960       29.034      858.480
08/30/2014  14:07:00     -323.787     -161.494       -1.333      208.433      138.538       78.219    43444.128    19192.739     6118.184        9.982        3.438      361.826       87.022        0.058      349.023       29.142      858.528
08/30/2014  14:08:00     -287.215     -125.165      -17.478      147.554      129.630       68.868    21772.253    16803.854     4742.855        7.088        2.166      313.303       66.558        0.045      348.862       28.863      858.527
08/30/2014  14:09:00     -163.304      -13.157       -1.807      121.116       82.459       52.387    14669.015     6799.491     2744.411        2.552        1.211      163.834       60.490        0.136      349.228       29.500      858.512
08/30/2014  14:10:00     -256.721       48.322      -24.205      150.801       78.777       55.375    22741.010     6205.775     3066.392        5.041        1.601      261.230       59.498        0.052      348.774       28.712      858.461
08/30/2014  14:11:00      -96.691      -39.716       -3.102       74.984       67.463       42.951     5622.597     4551.222     1844.783        1.148        0.601      104.530       27.562        0.070      349.029       29.156      858.431
08/30/2014  14:12:00     -176.957     -192.714       -6.420      145.857       81.307       44.399    21274.134     6610.752     1971.302        4.917        1.493      261.634       50.632        0.037      348.782       28.725      858.406
08/30/2014  14:13:00     -117.817     -117.535        4.188      121.759       81.024       41.959    14825.155     6564.935     1760.557        2.543        1.158      166.419       46.862        0.079      348.972       29.058      858.370
08/30/2014  14:14:00     -284.591     -212.009      -17.482      155.567      145.133       67.763    24200.979    21063.702     4591.800        8.804        2.493      354.880       69.107        0.038      348.986       29.080      858.393
08/30/2014  14:15:00     -364.878     -215.508        9.284      253.459      173.776       98.030    64241.487    30198.162     9609.793       14.184        5.202      423.769      116.485        0.076      348.858       28.859      858.378
08/30/2014  14:16:00     -574.722     -384.176      -15.776      208.298      175.434      114.295    43387.923    30776.999    13063.452       28.267        4.361      691.301      119.881        0.030      348.582       28.381      858.384
08/30/2014  14:17:00     -230.232     -338.960       -0.476      160.239      228.800       87.119    25676.386    52349.621     7589.683       12.674        4.281      409.757       89.431        0.048      348.774       28.712      858.471
08/30/2014  14:18:00     -328.699     -201.949      -27.717      151.914      141.522       67.462    23077.827    20028.555     4551.083        9.862        2.383      385.781       57.303        0.022      348.844       28.834      858.461
08/30/2014  14:19:00      -77.717     -166.662       12.277       88.365      113.420       59.322     7808.288    12864.113     3519.065        2.907        1.210      183.892       43.102        0.055      348.935       28.991      858.420
08/30/2014  14:20:00      -25.748     -137.074       -1.099      189.144      124.332       77.234    35775.450    15458.439     5965.072        3.831        2.860      139.471       56.732        0.165      349.168       29.396      858.363
08/30/2014  14:21:00     -115.791     -287.962      -12.899      135.329      197.349       77.873    18313.856    38946.824     6064.270        7.990        3.166      310.370       52.785        0.029      348.936       28.994      858.378
08/30/2014  14:22:00     -271.351     -315.284       -5.144      157.946      139.874       80.349    24946.899    19564.701     6456.022       11.200        2.548      415.976       61.676        0.022      348.942       29.003      858.407
08/30/2014  14:23:00     -269.965     -123.040       14.590      245.798      132.842       84.635    60416.677    17646.898     7163.030        8.671        4.261      296.681       85.118        0.082      349.059       29.206      858.425
08/30/2014  14:24:00     -434.850     -332.759      -32.565      201.228      183.127       86.307    40492.698    33535.539     7448.979       19.116        4.074      547.561       87.289        0.025      348.724       28.625      858.436
08/30/2014  14:25:00     -348.148     -306.613        3.747      179.753      197.749      104.109    32311.028    39104.663    10838.649       14.873        4.113      463.916      102.012        0.048      348.563       28.348      858.455
08/30/2014  14:26:00     -321.737     -225.993        0.589      196.375      198.115       77.433    38563.079    39249.723     5995.855       11.918        4.190      393.176       84.547        0.046      348.657       28.509      858.423
08/30/2014  14:27:00     -270.674     -193.719        1.332      184.186      121.299       68.189    33924.554    14713.359     4649.747        8.203        2.664      332.854       78.616        0.056      348.816       28.785      858.414
08/30/2014  14:28:00     -257.803     -147.425       -6.067      178.488      103.237       79.419    31858.021    10657.781     6307.366        6.852        2.441      296.979       93.413        0.099      348.934       28.990      858.392
08/30/2014  14:29:00     -160.987     -166.609       12.476      157.606      132.388       75.339    24839.611    17526.630     5675.973        5.093        2.402      231.679       77.338        0.111      348.988       29.085      858.403
08/30/2014  14:30:00     -175.461     -190.471       14.636      188.383      217.278       80.607    35488.045    47209.917     6497.447        7.822        4.460      258.970      100.131        0.149      349.105       29.285      858.368
08/30/2014  14:31:00     -267.221     -294.715        9.822      211.960      182.791       95.716    44926.964    33412.578     9161.597       12.291        4.375      397.824      108.279        0.074      349.026       29.149      858.393
08/30/2014  14:32:00     -366.410      -59.874      -17.087      217.357      164.172       80.672    47244.027    26952.577     6508.038       10.940        4.035      371.269       89.961        0.059      349.015       29.129      858.347
08/30/2014  14:33:00     -139.899     -200.049        5.992      187.706      180.348       70.665    35233.607    32525.502     4993.509        6.618        3.638      244.113       70.924        0.084      349.342       29.697      858.375
08/30/2014  14:34:00     -186.189     -332.237      -32.258      183.254      171.201       80.471    33582.148    29309.669     6475.593       10.771        3.468      380.852       71.097        0.035      348.940       29.000      858.348
08/30/2014  14:35:00     -241.820     -363.784      -15.976      187.509      178.393       89.275    35159.544    31823.972     7970.069       13.300        3.748      436.825       69.775        0.026      348.864       28.867      858.330
08/30/2014  14:36:00     -379.184     -357.150      -13.493      269.710      212.699       92.360    72743.712    45240.800     8530.385       19.899        6.326      520.900      107.294        0.042      348.861       28.862      858.321
08/30/2014  14:37:00     -450.188     -281.130        6.321      252.503      167.023      106.218    63757.955    27896.774    11282.213       19.232        5.147      530.757      121.475        0.052      348.699       28.583      858.271
08/30/2014  14:38:00     -386.208     -100.096       -1.761      191.799      161.616       90.805    36787.012    26119.830     8245.484       11.515        3.558      398.969       87.599        0.048      348.919       28.964      858.268
08/30/2014  14:39:00     -283.686      -94.903        8.944      208.815      193.655      107.698    43603.833    37502.112    11598.758        9.112        4.635      299.139      115.441        0.149      349.125       29.318      858.281
08/30/2014  14:40:00     -208.534     -301.635       24.670      206.965      191.389       90.663    42834.544    36629.779     8219.722       11.136        4.384      366.701       95.233        0.067      349.032       29.158      858.228
08/30/2014  14:41:00     -264.072     -239.036       15.502      178.577      149.570       95.660    31889.746    22371.218     9150.823        9.525        3.171      356.191       86.831        0.059      349.176       29.409      858.268
08/30/2014  14:42:00     -210.765     -103.569       -9.783      137.607      143.943       70.943    18935.762    20719.453     5032.956        4.996        2.234      234.837       64.076        0.074      349.148       29.361      858.278
08/30/2014  14:43:00     -291.790      -77.558      -14.994      186.988      118.173       66.470    34964.328    13964.856     4418.228        7.235        2.667      301.921       63.750        0.045      349.059       29.206      858.264
08/30/2014  14:44:00     -343.141     -102.864      -20.462      186.029      174.867       82.552    34606.733    30578.535     6814.857       10.036        3.600      358.228       85.579        0.057      348.882       28.898      858.255
08/30/2014  14:45:00     -224.425     -150.529       25.634      178.256      170.127       90.439    31775.291    28943.348     8179.194        7.128        3.445      270.233      107.524        0.158      349.100       29.277      858.228
08/30/2014  14:46:00     -173.465      -98.951        4.350      121.292      116.504       76.249    14711.770    13573.223     5813.883        3.699        1.705      199.703       69.779        0.122      349.053       29.195      858.207
08/30/2014  14:47:00     -199.737      -93.628        9.414      156.190      142.956       78.041    24395.276    20436.337     6090.325        4.983        2.546      220.593       89.192        0.163      349.097       29.273      858.176
08/30/2014  14:48:00     -313.602     -130.176       -2.310      144.701      128.820       79.137    20938.318    16594.561     6262.642        7.954        2.190      339.547       76.206        0.050      349.147       29.358      858.207
08/30/2014  14:49:00     -180.708     -137.888       -9.267      121.838      129.756       54.810    14844.485    16836.525     3004.125        4.321        1.734      227.307       52.672        0.054      349.277       29.584      858.202
08/30/2014  14:50:00     -174.058     -109.258       12.362      242.696      184.140      107.192    58901.224    33907.720    11490.085        7.332        5.215      205.508      119.221        0.337      349.189       29.432      858.210
08/30/2014  14:51:00     -357.544     -112.326      -13.263      249.597      181.477       85.547    62298.547    32933.962     7318.259       12.157        5.128      374.773       93.458        0.062      349.177       29.411      858.222
08/30/2014  14:52:00     -464.280     -307.562      -17.310      225.548      195.414       99.294    50871.846    38186.628     9859.348       20.466        4.946      556.911      105.485        0.036      348.916       28.957      858.173
08/30/2014  14:53:00     -435.582     -363.328      -18.663      272.684      178.739      115.761    74356.804    31947.596    13400.505       22.087        5.985      567.220      144.137        0.065      348.860       28.861      858.179
08/30/2014  14:54:00     -233.885     -257.412       20.065      228.154      207.728       90.303    52054.384    43150.725     8154.715       11.234        5.168      347.798       78.599        0.051      348.838       28.823      858.148
08/30/2014  14:55:00     -330.796     -341.093       -2.678      252.630      249.699      107.732    63822.120    62349.783    11606.203       18.175        6.889      475.153      115.887        0.059      348.804       28.764      858.092
08/30/2014  14:56:00     -446.323     -182.726       12.394      326.380      175.649       97.823   106523.741    30852.422     9569.315       18.982        7.347      482.279      136.754        0.080      348.834       28.815      858.136
08/30/2014  14:57:00     -301.856     -206.094       -7.446      196.396      184.149       82.635    38571.201    33910.761     6828.599       10.646        3.966      365.502       93.469        0.065      348.907       28.943      858.100
08/30/2014  14:58:00     -310.509     -291.775       -5.487      151.553      198.009       76.769    22968.263    39207.660     5893.417       12.481        3.403      426.085       67.819        0.025      349.025       29.146      858.102
08/30/2014  14:59:00     -327.647     -476.977      -26.663      204.419      237.421      110.769    41787.096    56368.744    12269.802       22.298        5.521      578.671      107.998        0.035      348.925       28.974      858.113
08/30/2014  15:00:00     -459.918     -377.754        4.195      300.285      259.224      116.318    90171.307    67197.288    13529.799       26.253        8.545      595.165      148.251        0.062      348.790       28.738      858.151
08/30/2014  15:01:00     -359.269     -222.187       12.270      229.547      199.018       99.402    52691.698    39608.160     9880.840       14.037        5.109      422.423      125.084        0.088      348.667       28.527      858.212
08/30/2014  15:02:00     -342.990     -231.201       14.120      255.194      194.906      102.298    65123.768    37988.229    10464.910       14.241        5.679      413.638      124.376        0.090      348.651       28.501      858.186
08/30/2014  15:03:00     -275.142     -180.507       15.673      170.418      137.660       90.773    29042.277    18950.355     8239.655        8.237        2.812      329.068       79.445        0.058      348.784       28.730      858.171
08/30/2014  15:04:00     -223.624     -371.239        3.354      141.763      265.930       84.598    20096.852    70718.904     7156.750       14.289        4.899      433.389       85.999        0.039      348.792       28.743      858.165
08/30/2014  15:05:00     -130.598     -182.069       15.299      120.108      159.449       78.385    14426.050    25423.986     6144.223        4.821        2.300      224.065       72.286        0.104      348.963       29.038      858.158
08/30/2014  15:06:00     -309.162     -260.601        2.332      233.484      164.733       90.637    54514.774    27137.036     8215.077       12.667        4.493      404.344      103.163        0.065      348.896       28.924      858.111
08/30/2014  15:07:00     -516.378     -393.059       -7.254      289.643      221.536      137.286    83892.851    49078.100    18847.381       28.648        7.591      648.954      165.227        0.065      348.572       28.363      858.125
08/30/2014  15:08:00     -245.619     -178.853       22.513      225.842      165.349      114.171    51004.577    27340.175    13035.006        9.208        4.569      303.837      123.689        0.166      348.817       28.785      858.107
08/30/2014  15:09:00     -364.190     -188.232        6.279      200.773      135.232       89.095    40309.986    18287.589     7937.991       11.731        3.327      409.959       98.809        0.058      348.845       28.834      858.119
08/30/2014  15:10:00     -249.624     -211.211       10.936      239.756      142.403       97.514    57482.968    20278.719     9509.027        9.714        4.364      326.989       99.856        0.093      348.897       28.925      858.145
08/30/2014  15:11:00     -221.062     -145.641       19.642      212.816      144.716       89.686    45290.563    20942.732     8043.621        7.236        3.714      264.726      101.576        0.147      348.982       29.072      858.148
08/30/2014  15:12:00     -199.000     -318.453      -10.699      142.640      168.287       76.794    20346.256    28320.378     5897.331        9.783        2.728      375.517       83.877        0.050      348.804       28.764      858.110
08/30/2014  15:13:00     -245.852     -331.447      -24.622      195.508      176.077       87.291    38223.336    31003.073     7619.710       12.386        3.842      412.675       93.402        0.051      348.799       28.753      858.087
08/30/2014  15:14:00     -213.847     -228.782        6.434      242.628      168.471       84.716    58868.401    28382.411     7176.776        9.625        4.721      313.164       67.261        0.046      348.779       28.722      858.084
08/30/2014  15:15:00     -324.402     -136.809      -10.138      193.303      137.418       69.852    37366.171    18883.819     4879.343        9.258        3.056      352.070       53.496        0.023      349.045       29.181      858.127
08/30/2014  15:16:00     -478.180     -240.118      -14.138      256.152      182.950      108.263    65613.797    33470.774    11720.910       19.864        5.540      535.082      130.140        0.059      348.689       28.565      858.138
08/30/2014  15:17:00     -445.321     -275.424       -5.073      182.927      212.948      101.175    33462.282    45346.652    10236.349       18.160        4.452      523.612      100.264        0.037      348.626       28.455      858.125
08/30/2014  15:18:00     -339.074     -222.854      -11.285      250.071      179.368      104.461    62535.391    32172.731    10912.027       13.517        5.281      405.752      125.456        0.096      348.731       28.638      858.152
08/30/2014  15:19:00     -140.318     -160.502       16.173      143.731      167.393       90.940    20658.699    28020.495     8270.009        5.132        2.847      213.190       86.818        0.166      348.855       28.852      858.157
08/30/2014  15:20:00     -162.489     -155.396       26.150      147.381      109.667       81.507    21721.038    12026.828     6643.407        4.580        2.020      224.835       67.327        0.090      348.951       29.019      858.115
08/30/2014  15:21:00     -331.750     -182.317       -6.932      192.916      146.243       84.643    37216.709    21387.126     7164.486       10.454        3.288      378.547       94.810        0.063      348.834       28.817      858.179
08/30/2014  15:22:00     -269.312     -228.589      -20.753      228.535      154.148       78.184    52228.321    23761.542     6112.741       10.364        4.105      353.245       98.051        0.077      348.762       28.691      858.155
08/30/2014  15:23:00     -363.071     -132.662      -13.764      198.425      130.931       77.161    39372.563    17143.005     5953.794       10.603        3.123      386.549       84.992        0.048      348.874       28.886      858.124
08/30/2014  15:24:00     -283.211     -176.362       28.595      208.257      199.809      112.327    43371.117    39923.729    12617.310       10.400        4.796      333.635       95.190        0.081      348.833       28.815      858.069
08/30/2014  15:25:00     -406.255     -239.695       -6.297      196.807      184.270       99.457    38732.969    33955.554     9891.695       15.254        4.129      471.696      107.170        0.052      348.904       28.937      858.020
08/30/2014  15:26:00     -489.760     -340.842        1.651      295.004      217.393      130.198    87027.239    47259.854    16951.453       25.361        7.562      596.690      154.769        0.067      348.701       28.586      858.050
08/30/2014  15:27:00     -417.983     -317.840        3.835      239.585      197.988      104.548    57400.913    39199.086    10930.219       19.162        5.377      525.102      108.435        0.043      348.518       28.270      858.107
08/30/2014  15:28:00     -313.550     -239.900        8.128      184.102      145.926       86.440    33893.645    21294.467     7471.927       10.928        3.133      394.799      104.342        0.070      348.595       28.402      858.108
08/30/2014  15:29:00     -267.937     -153.404        5.206      157.595      129.121       65.317    24836.322    16672.230     4266.341        7.055        2.289      308.744       76.220        0.061      348.855       28.853      858.156
08/30/2014  15:30:00     -220.115     -141.056       13.243      152.676      149.463       63.367    23310.056    22339.218     4015.320        5.908        2.483      261.434       65.030        0.062      349.063       29.213      858.163
08/30/2014  15:31:00     -294.134     -232.500       -6.231      152.532      159.102       77.592    23265.984    25313.316     6020.502        9.759        2.730      374.928       79.727        0.045      349.093       29.265      858.188
08/30/2014  15:32:00     -309.379     -225.963        6.448      191.167      152.057       82.209    36544.804    23121.359     6758.286       10.661        3.321      383.111       68.806        0.032      348.694       28.573      858.202
08/30/2014  15:33:00     -347.071     -460.994       -6.207      213.933      221.938      103.270    45767.463    49256.675    10664.608       21.933        5.284      577.038      102.396        0.031      348.542       28.310      858.175
08/30/2014  15:34:00     -378.919     -295.490      -13.181      201.309      192.544       91.636    40525.242    37073.281     8397.146       15.851        4.300      480.515       81.326        0.029      348.644       28.486      858.184
08/30/2014  15:35:00     -659.004     -425.809       -7.650      332.564      247.758      146.197   110598.623    61384.180    21373.537       40.447        9.668      784.602      174.713        0.050      348.529       28.287      858.157
08/30/2014  15:36:00     -483.611     -289.679       -6.620      220.394      184.726      116.620    48573.680    34123.696    13600.325       20.705        4.815      563.732      121.915        0.047      348.600       28.411      858.188
08/30/2014  15:37:00     -366.255     -287.993       -8.517      291.911      214.246      104.337    85211.789    45901.369    10886.106       17.955        7.100      465.922      132.156        0.080      348.749       28.669      858.265
08/30/2014  15:38:00     -327.897      -95.340       -4.579      256.861      153.255       76.884    65977.545    23487.013     5911.182       10.598        4.769      341.476      101.158        0.088      348.907       28.943      858.340
08/30/2014  15:39:00     -521.556     -168.545       -6.952      222.042      187.467      100.725    49302.770    35143.739    10145.546       19.752        4.730      548.113      111.100        0.041      348.637       28.474      858.336
08/30/2014  15:40:00     -365.511      -85.085      -10.017      161.199      120.283       60.492    25985.134    14468.046     3659.249        9.252        2.206      375.283       60.155        0.026      348.739       28.651      858.366
08/30/2014  15:41:00     -195.156     -116.795       -8.711      126.449      105.676       57.776    15989.283    11167.340     3338.067        4.114        1.525      227.436       57.401        0.064      348.863       28.868      858.359
08/30/2014  15:42:00      -39.994     -189.983        1.746       63.488       87.933       45.561     4030.762     7732.146     2075.774        2.576        0.692      194.147       41.290        0.045      348.772       28.710      858.358
08/30/2014  15:43:00      -73.808     -142.490        1.323       86.772       91.119       34.276     7529.352     8302.604     1174.820        2.138        0.850      160.471       32.817        0.042      348.659       28.515      858.305
08/30/2014  15:44:00      -56.443      -31.671       13.001       74.382       74.185       38.968     5532.713     5503.398     1518.542        0.845        0.628       64.721       33.278        0.264      348.917       28.962      858.281
08/30/2014  15:45:00     -346.250     -136.858      -23.595      183.756       90.050       53.834    33766.447     8109.031     2898.090        9.197        2.239      372.316       46.897        0.016      348.877       28.891      858.273
08/30/2014  15:46:00     -390.511     -239.649       13.276      202.661      142.595       95.763    41071.666    20333.192     9170.537       14.033        3.529      458.182      109.691        0.057      348.867       28.873      858.317
08/30/2014  15:47:00     -472.674     -144.180       -9.424      227.731      164.275       87.854    51861.226    26986.329     7718.400       16.541        4.328      494.174      103.914        0.044      348.757       28.683      858.293
08/30/2014  15:48:00     -302.595     -177.084        9.944      217.098      135.221       97.345    47131.447    18284.747     9476.010        9.894        3.745      350.603      111.369        0.101      348.702       28.589      858.309
08/30/2014  15:49:00     -381.848      -44.482      -11.767      220.645      203.687      107.898    48684.043    41488.259    11642.059       12.485        5.091      384.431      106.152        0.076      348.783       28.728      858.318
08/30/2014  15:50:00     -485.507     -243.981       -7.911      306.144      227.202      120.544    93723.951    51620.926    14530.967       22.756        7.994      543.363      144.589        0.071      348.686       28.558      858.284
08/30/2014  15:51:00     -434.675     -241.581        3.033      218.475      179.287       90.084    47731.154    32143.756     8115.182       16.763        4.400      497.297       95.775        0.037      348.673       28.539      858.280
08/30/2014  15:52:00     -580.151     -260.966      -33.981      249.131      251.353      110.849    62066.088    63178.382    12287.499       27.166        6.877      636.144      113.508        0.032      348.672       28.535      858.304
08/30/2014  15:53:00     -452.981     -185.119       13.683      274.897      251.968      115.038    75568.346    63487.641    13233.653       19.594        7.614      489.348      139.720        0.082      348.672       28.536      858.388
08/30/2014  15:54:00     -391.141      -16.146      -31.636      243.946      128.335       80.382    59509.431    16469.801     6461.240       11.833        4.122      391.474       87.583        0.050      348.711       28.601      858.418
08/30/2014  15:55:00     -279.220     -117.700      -12.281      137.234      128.002       77.204    18833.109    16384.636     5960.457        6.657        2.059      303.014       71.745        0.056      348.692       28.572      858.435
08/30/2014  15:56:00     -311.895      -96.349      -16.476      147.424      121.244       71.677    21733.908    14700.168     5137.564        7.419        2.079      326.438       50.041        0.023      348.642       28.484      858.436
08/30/2014  15:57:00     -394.366     -229.130      -17.712      161.240      144.069       84.927    25998.226    20755.957     7212.572       13.114        2.698      456.097       76.014        0.028      348.607       28.423      858.434
08/30/2014  15:58:00     -512.966       -9.625      -57.247      288.249      145.384       87.035    83087.576    21136.626     7575.031       18.913        5.590      513.056      105.121        0.042      348.550       28.324      858.445
08/30/2014  15:59:00     -478.867      -79.338      -11.005      365.198      246.410      132.990   133369.378    60717.952    17686.397       22.371       10.589      485.394      161.072        0.110      348.708       28.597      858.413
08/30/2014  16:00:00     -569.179     -193.682      -25.525      220.100      202.568       91.926    48443.832    41033.653     8450.412       23.001        4.896      601.230       87.232        0.021      348.592       28.398      858.446
08/30/2014  16:01:00     -529.406      -66.240      -46.774      233.294      141.540       96.305    54426.080    20033.667     9274.618       18.527        4.187      533.534      107.183        0.040      348.604       28.418      858.425
08/30/2014  16:02:00     -282.931      -72.661       10.271      205.562      175.203       94.490    42255.896    30696.264     8928.375        8.364        4.094      292.112       81.455        0.078      348.563       28.347      858.395
08/30/2014  16:03:00     -497.685      -67.470      -24.012      165.568      206.000       81.477    27412.742    42436.195     6638.510       16.464        3.824      502.237       73.151        0.021      348.506       28.248      858.418
08/30/2014  16:04:00     -333.142     -146.356      -32.225      178.996      140.090       83.704    32039.606    19625.326     7006.307        9.605        2.934      363.873       85.340        0.055      348.522       28.277      858.343
08/30/2014  16:05:00     -532.376     -126.778      -31.366      160.670      165.310       91.540    25814.873    27327.548     8379.561       18.099        3.076      547.263       86.948        0.025      348.476       28.196      858.303
08/30/2014  16:06:00     -437.554     -241.522       13.426      343.520      232.117      127.803   118005.847    53878.264    16333.621       21.905        9.411      499.786      157.224        0.099      348.379       28.027      858.299
08/30/2014  16:07:00     -512.454     -196.497       -0.755      240.238      201.402       97.159    57714.168    40562.676     9439.888       20.445        5.386      548.836      109.917        0.040      348.457       28.163      858.248
08/30/2014  16:08:00     -266.729      -82.395        1.683      163.966      122.051       80.619    26884.705    14896.405     6499.433        6.310        2.414      279.166       78.620        0.079      348.630       28.464      858.279
08/30/2014  16:09:00     -593.508     -145.483      -35.348      286.885      204.855      110.637    82303.245    41965.718    12240.450       25.556        6.825      611.078      128.378        0.044      348.426       28.111      858.265
08/30/2014  16:10:00     -468.733     -201.133       -7.254      234.489      201.870       83.757    54984.897    40751.665     7015.277       18.146        5.138      510.064       80.183        0.025      348.531       28.290      858.251
08/30/2014  16:11:00     -578.532     -145.789      -27.018      209.672      171.165       85.887    43962.531    29297.531     7376.566       21.864        4.032      596.619       77.769        0.017      348.559       28.340      858.251
08/30/2014  16:12:00     -345.915      -29.786      -39.531      168.402      112.744       65.797    28359.356    12711.162     4329.200        8.374        2.270      347.195       51.280        0.022      348.775       28.713      858.230
08/30/2014  16:13:00     -487.579      -26.377       -8.803      205.696      173.903       95.944    42310.833    30242.417     9205.155       16.012        4.088      488.292      104.479        0.046      348.699       28.583      858.222
08/30/2014  16:14:00     -442.183      -45.297       -5.180      242.453      181.866       99.792    58783.665    33075.296     9958.350       14.969        5.091      444.497      122.227        0.076      348.675       28.540      858.257
08/30/2014  16:15:00     -369.685      -21.873      -19.476      200.667      138.528       77.932    40267.408    19189.902     6073.464       10.151        3.277      370.332      100.424        0.074      348.635       28.471      858.241
08/30/2014  16:16:00     -272.520      -47.764       -4.775      155.215      120.704       73.674    24091.606    14569.388     5427.797        6.032        2.204      276.674       77.693        0.079      348.625       28.454      858.231
08/30/2014  16:17:00     -445.295     -130.242      -26.582      142.523      125.129       79.179    20312.724    15657.342     6269.237       12.909        2.112      463.951       62.243        0.018      348.476       28.197      858.240
08/30/2014  16:18:00     -213.564      -56.727       10.847      210.148      155.846       81.543    44162.153    24287.954     6649.276        6.201        3.755      220.969       90.665        0.168      348.564       28.350      858.215
08/30/2014  16:19:00     -512.003     -107.925      -37.972      228.926      138.088       74.353    52406.955    19068.343     5528.362       17.610        3.850      523.254       91.635        0.031      348.337       27.957      858.185
08/30/2014  16:20:00     -336.303       21.334      -31.607      169.118      116.829       55.294    28600.900    13649.089     3057.377        7.992        2.265      336.979       65.427        0.038      348.435       28.126      858.159
08/30/2014  16:21:00     -370.751      -86.504       -2.442      192.596      173.476       74.945    37093.190    30093.830     5616.767       10.886        3.640      380.709       92.392        0.059      348.517       28.268      858.140
08/30/2014  16:22:00     -221.245      -85.732      -13.292      117.719      105.038       61.440    13857.769    11032.990     3774.894        4.257        1.433      237.275       47.336        0.040      348.612       28.432      858.140
08/30/2014  16:23:00     -327.331      -90.926      -19.251      205.226      158.330       80.791    42117.817    25068.313     6527.162        9.473        3.686      339.725       87.570        0.066      348.561       28.343      858.120
08/30/2014  16:24:00     -338.981     -238.302        3.789      307.315      261.376      130.282    94442.614    68317.654    16973.279       17.569        8.987      414.363      146.637        0.125      348.469       28.185      858.074
08/30/2014  16:25:00     -430.558     -161.634      -10.385      278.691      234.048      134.038    77668.765    54778.466    17966.260       18.098        7.521      459.898      130.921        0.081      348.496       28.231      858.063
08/30/2014  16:26:00     -124.874        1.656       59.518      244.869      150.287      113.709    59960.730    22586.083    12929.827        5.729        4.774      124.885      119.080        0.909      348.671       28.536      858.089
08/30/2014  16:27:00     -523.845      -97.328      -26.006      246.447      236.570      102.871    60736.074    55965.435    10582.499       20.590        6.364      532.810      111.373        0.044      348.466       28.178      858.172
08/30/2014  16:28:00     -360.273     -100.757      -21.985      201.333      170.547       77.044    40535.050    29086.349     5935.724       10.798        3.778      374.097       79.321        0.045      348.485       28.213      858.197
08/30/2014  16:29:00     -529.388        3.623      -43.807      174.052      176.713       91.568    30294.076    31227.462     8384.635       17.603        3.495      529.401       86.259        0.027      348.426       28.110      858.185
08/30/2014  16:30:00     -337.697      -82.742       -9.938      186.838      143.436       80.741    34908.468    20573.961     6519.143        9.148        3.100      347.686       89.766        0.067      348.469       28.183      858.152
08/30/2014  16:31:00     -631.937      -37.811      -40.838      194.586      154.277       98.489    37863.829    23801.438     9700.174       23.689        3.568      633.067      110.968        0.031      348.378       28.026      858.136
08/30/2014  16:32:00     -240.722     -143.705        3.772      173.890      189.533       89.910    30237.650    35922.678     8083.856        7.641        3.712      280.353       96.524        0.119      348.500       28.240      858.186
08/30/2014  16:33:00     -281.502      -98.936      -18.468      176.318      133.960       64.069    31088.140    17945.207     4104.809        7.124        2.657      298.382       65.966        0.049      348.558       28.339      858.219
08/30/2014  16:34:00     -404.959      -50.167      -20.407      248.223      155.395       84.552    61614.681    24147.502     7148.983       12.990        4.646      408.054      107.085        0.069      348.299       27.890      858.208
08/30/2014  16:35:00     -102.189     -106.526       12.228      137.635      109.847       70.156    18943.402    12066.428     4921.839        2.893        1.797      147.616       71.884        0.237      348.453       28.157      858.182
08/30/2014  16:36:00     -520.135     -147.757       -6.980      253.085      133.660       85.786    64052.238    17864.948     7359.310       19.083        4.464      540.715      105.362        0.038      348.375       28.020      858.186
08/30/2014  16:37:00     -353.467     -191.084      -10.511      197.927      165.849      100.774    39175.203    27505.876    10155.415       11.918        3.842      401.811      101.935        0.064      348.410       28.083      858.180
08/30/2014  16:38:00     -341.589     -111.761      -17.122      163.818      146.885       67.965    26836.193    21575.065     4619.301        9.124        2.652      359.408       64.435        0.032      348.385       28.040      858.217
08/30/2014  16:39:00     -494.391     -158.805      -33.957      195.282      157.179       89.518    38135.179    24705.180     8013.480       17.081        3.543      519.271       78.537        0.023      348.321       27.926      858.203
08/30/2014  16:40:00     -442.611       18.483      -40.618      167.039      153.249       77.323    27902.012    23485.296     5978.801       12.762        2.868      442.996       70.892        0.026      348.439       28.132      858.211
08/30/2014  16:41:00     -573.597     -129.467      -18.640      241.080      167.341       88.781    58119.600    28003.169     7882.083       22.005        4.700      588.027       95.678        0.026      348.373       28.017      858.209
08/30/2014  16:42:00     -426.355     -209.882      -11.712      271.654      189.551       83.337    73795.861    35929.549     6945.115       17.130        5.834      475.214       99.211        0.044      348.292       27.878      858.293
08/30/2014  16:43:00     -209.117      -22.397        7.864      109.264      105.466       75.942    11938.670    11123.113     5767.259        3.656        1.441      210.313       64.201        0.093      348.500       28.237      858.302
08/30/2014  16:44:00     -217.741      -70.577        0.578      160.703      130.731       62.152    25825.614    17090.614     3862.871        4.958        2.339      228.893       56.328        0.061      348.513       28.261      858.309
08/30/2014  16:45:00     -151.773      -93.393        9.741      182.455      120.305       65.801    33289.822    14473.174     4329.761        4.196        2.605      178.206       85.075        0.228      348.343       27.968      858.305
08/30/2014  16:46:00     -156.340       18.089       -4.173      112.472      121.145       50.672    12649.839    14676.108     2567.643        2.733        1.495      157.383       49.188        0.098      348.416       28.094      858.309
08/30/2014  16:47:00     -127.951       -4.198      -17.400       65.036       65.993       44.851     4229.658     4355.135     2011.570        1.364        0.530      128.020       31.173        0.059      348.333       27.953      858.305
08/30/2014  16:48:00     -319.503     -153.941      -20.317      174.620      120.978       69.187    30492.237    14635.736     4786.773        8.804        2.496      354.655       82.751        0.054      348.346       27.972      858.294
08/30/2014  16:49:00     -280.480     -148.624        9.760      179.001      142.269       89.559    32041.245    20240.571     8020.742        8.057        3.015      317.424       93.078        0.086      348.358       27.992      858.293
08/30/2014  16:50:00     -319.203     -103.342        7.391      193.391      167.330       87.008    37400.001    27999.368     7570.445        9.278        3.648      335.515       93.409        0.078      348.398       28.062      858.289
08/30/2014  16:51:00     -419.969     -187.701       -5.066      193.859      155.954       90.640    37581.458    24321.803     8215.646       14.086        3.506      460.006      107.618        0.055      348.371       28.014      858.338
08/30/2014  16:52:00     -174.466     -200.203       22.380      172.539      165.561       79.873    29769.652    27410.316     6379.776        6.728        3.178      265.555       86.396        0.106      348.460       28.169      858.357
08/30/2014  16:53:00     -235.223     -253.415       -7.697      106.861      134.232       69.219    11419.336    18018.311     4791.223        7.691        1.711      345.759       36.657        0.011      348.297       27.886      858.372
08/30/2014  16:54:00     -163.496      -79.071       15.332      138.240      114.514       53.562    19110.339    13113.455     2868.925        3.415        1.755      181.613       55.858        0.095      348.606       28.423      858.394
08/30/2014  16:55:00     -177.583      -38.437       -6.072      125.122       92.911       55.660    15655.544     8632.412     3098.020        3.021        1.369      181.696       60.703        0.112      348.746       28.665      858.423
08/30/2014  16:56:00     -173.947     -164.570       14.558      184.664      170.945       90.507    34100.899    29222.277     8191.576        6.452        3.576      239.459      101.565        0.180      348.537       28.302      858.400
08/30/2014  16:57:00     -263.042     -140.970        1.058      157.077      120.116       72.322    24673.202    14427.946     5230.538        6.669        2.217      298.436       51.782        0.030      348.489       28.219      858.400
08/30/2014  16:58:00     -205.239     -130.706        0.650      118.493       96.263       55.870    14040.585     9266.659     3121.470        4.281        1.321      243.325       56.738        0.054      348.428       28.114      858.407
08/30/2014  16:59:00     -271.613     -159.675      -14.706       92.675       76.001       47.991     8588.710     5776.146     2303.110        5.807        0.833      315.071       40.920        0.017      348.436       28.127      858.401
08/30/2014  17:00:00     -255.987     -145.588        3.218      120.441      104.195       62.323    14505.971    10856.530     3884.161        5.799        1.462      294.491       65.410        0.049      348.472       28.190      858.400
08/30/2014  17:01:00     -180.716      -26.577       21.052      114.773       98.729       61.738    13172.821     9747.335     3811.603        3.026        1.337      182.659       68.878        0.142      348.471       28.190      858.379
08/30/2014  17:02:00     -131.438     -149.121        7.740      116.238      127.026       54.556    13511.338    16135.481     2976.391        3.609        1.631      198.779       50.838        0.065      348.459       28.168      858.357
08/30/2014  17:03:00     -340.366     -182.951       11.634      245.332      175.835       76.466    60187.768    30917.911     5847.051       12.318        4.848      386.419       96.737        0.063      348.349       27.978      858.340
08/30/2014  17:04:00     -539.243     -258.152      -24.693      243.231      194.533      104.277    59161.231    37843.050    10873.596       23.293        5.394      597.850      119.297        0.040      348.154       27.640      858.328
08/30/2014  17:05:00     -282.084     -175.216       11.230      193.981      148.786       89.680    37628.627    22137.127     8042.548        8.909        3.390      332.072       89.009        0.072      348.193       27.704      858.382
08/30/2014  17:06:00     -164.992      -69.488       10.071      199.275      134.895       89.983    39710.332    18196.598     8096.942        4.907        3.300      179.028      103.857        0.337      348.244       27.795      858.380
08/30/2014  17:07:00     -465.174      -86.578      -16.854      176.027      145.519       69.491    30985.341    21175.768     4828.969       14.057        2.850      473.162       75.282        0.025      348.173       27.672      858.406
08/30/2014  17:08:00     -268.769     -135.440       -9.065      172.258      123.480       68.445    29672.978    15247.259     4684.720        7.012        2.480      300.966       61.431        0.042      348.229       27.771      858.415
08/30/2014  17:09:00     -254.466     -190.105        5.004      209.936      163.276       87.103    44072.965    26659.092     7586.973        8.960        3.916      317.636       90.925        0.082      348.190       27.702      858.433
08/30/2014  17:10:00     -505.527     -418.696      -27.048      237.703      205.786      118.843    56502.890    42347.977    14123.709       27.226        5.649      656.402      123.506        0.035      347.897       27.194      858.407
08/30/2014  17:11:00     -468.636     -260.718       -2.905      220.925      145.928       74.109    48808.024    21294.891     5492.164       18.158        3.780      536.277       63.388        0.014      347.950       27.288      858.391
08/30/2014  17:12:00     -240.387     -124.873       -0.323      192.484      122.667       66.793    37050.119    15047.230     4461.240        6.496        2.828      270.886       69.940        0.067      348.069       27.494      858.408
08/30/2014  17:13:00     -466.337     -147.313      -25.822      196.905      139.280       73.166    38771.514    19398.792     5353.208       15.167        3.176      489.052       91.421        0.035      347.989       27.354      858.381
08/30/2014  17:14:00     -415.529     -255.035       -3.187      177.582      153.037       83.122    31535.437    23420.271     6909.189       14.978        3.093      487.552       85.548        0.031      348.036       27.435      858.391
08/30/2014  17:15:00     -205.898     -101.954       17.084      186.408      151.920       82.726    34748.100    23079.732     6843.557        5.886        3.234      229.758      102.152        0.198      348.101       27.548      858.419
08/30/2014  17:16:00     -261.075     -253.198       -2.705      162.773      131.306       72.475    26495.165    17241.147     5252.686        9.062        2.449      363.689       62.814        0.030      348.083       27.516      858.407
08/30/2014  17:17:00     -255.489     -132.085       12.200      210.028      141.847       79.084    44111.901    20120.679     6254.291        7.666        3.524      287.613       97.610        0.115      348.047       27.456      858.441
08/30/2014  17:18:00     -328.401     -181.352        2.686      240.864      183.398       84.347    58015.602    33634.919     7114.377       11.973        4.938      375.148      111.202        0.088      348.003       27.381      858.435
08/30/2014  17:19:00     -435.776     -301.661       -4.254      282.776      199.835       97.182    79962.279    39934.207     9444.317       20.510        6.467      530.000      111.688        0.044      347.897       27.196      858.412
08/30/2014  17:20:00     -398.048     -280.644      -13.498      160.184      156.162       92.563    25658.941    24386.516     8567.885       14.799        2.931      487.035       93.817        0.037      347.825       27.071      858.459
08/30/2014  17:21:00     -179.978     -124.494        2.971      105.493       89.884       39.700    11128.682     8079.154     1576.097        3.434        1.039      218.840       40.320        0.034      347.913       27.224      858.477
08/30/2014  17:22:00     -149.682     -105.576       -8.125      107.129      105.321       43.648    11476.638    11092.474     1905.162        2.904        1.224      183.169       44.689        0.060      347.914       27.224      858.463
08/30/2014  17:23:00     -186.357     -126.841       -3.982      127.919       67.614       47.432    16363.288     4571.635     2249.841        3.700        1.159      225.428       52.036        0.053      347.960       27.304      858.478
08/30/2014  17:24:00     -348.207     -123.813       -9.010      230.478      116.637       74.434    53120.091    13604.084     5540.368       10.445        3.613      369.565       71.840        0.038      347.888       27.181      858.450
08/30/2014  17:25:00     -245.840      -24.115        2.282       91.605       90.026       55.899     8391.407     8104.756     3124.713        4.032        0.981      247.020       52.803        0.046      347.968       27.317      858.473
08/30/2014  17:26:00     -213.497      -74.039       -3.293       79.193       65.133       47.163     6271.535     4242.263     2224.353        3.190        0.637      225.971       43.401        0.037      347.967       27.317      858.497
08/30/2014  17:27:00     -185.010     -248.759       -2.760      175.807      171.953       63.093    30908.250    29567.999     3980.718        8.027        3.223      310.016       60.567        0.038      347.874       27.155      858.507
08/30/2014  17:28:00     -348.059     -186.678       -4.815      158.111      137.381       68.668    24999.159    18873.530     4715.333       10.229        2.429      394.960       69.762        0.031      347.885       27.175      858.530
08/30/2014  17:29:00     -329.863     -100.145        9.065      194.043      158.071       90.682    37652.796    24986.381     8223.170        9.488        3.543      344.730       89.384        0.067      347.841       27.100      858.522
08/30/2014  17:30:00     -348.204      -84.129       -5.664      192.884      122.121       76.752    37204.179    14913.488     5890.939        9.317        2.900      358.223       84.570        0.056      347.844       27.104      858.551
08/30/2014  17:31:00     -265.579     -200.838       -3.482      164.677      128.222       76.512    27118.521    16440.936     5854.121        8.014        2.471      332.968       90.020        0.073      347.822       27.065      858.587
08/30/2014  17:32:00     -358.807     -170.321      -25.394      138.294      122.919       64.609    19125.275    15108.967     4174.340        9.839        1.920      397.179       63.448        0.026      347.751       26.943      858.580
08/30/2014  17:33:00     -274.400      -80.433        0.355      121.755      118.553       55.212    14824.212    14054.831     3048.363        5.684        1.596      285.946       61.070        0.046      347.760       26.959      858.597
08/30/2014  17:34:00     -206.091     -129.440       -6.003      130.435      105.568       57.036    17013.274    11144.575     3253.073        4.533        1.571      243.368       70.376        0.084      347.805       27.037      858.606
08/30/2014  17:35:00     -132.437     -148.244        6.451      119.040      111.009       64.968    14170.557    12322.930     4220.789        3.513        1.536      198.786       64.129        0.104      347.774       26.986      858.585
08/30/2014  17:36:00     -279.903     -280.911       -5.762      198.781      156.987       83.391    39513.762    24644.959     6954.119       11.419        3.556      396.556       90.284        0.052      347.690       26.839      858.607
08/30/2014  17:37:00     -211.181     -306.659        1.508      133.121      181.430       75.074    17721.102    32916.684     5636.121        9.745        2.814      372.340       77.487        0.043      347.726       26.900      858.585
08/30/2014  17:38:00     -401.526     -231.578      -13.325      267.576      219.040      104.627    71597.012    47978.618    10946.727       17.275        6.526      463.521      118.367        0.065      347.670       26.803      858.542
08/30/2014  17:39:00     -494.321     -330.444      -13.837      182.080      171.177       99.353    33152.948    29301.698     9871.102       21.302        3.616      594.598      105.196        0.031      347.646       26.762      858.564
08/30/2014  17:40:00     -366.897     -178.452      -13.196      170.729      121.179       73.481    29148.337    14684.290     5399.494       10.792        2.462      407.993       84.977        0.043      347.637       26.747      858.618
08/30/2014  17:41:00     -222.942     -192.246        6.639      165.900      160.779       77.503    27522.785    25849.930     6006.739        7.303        2.969      294.384      102.127        0.120      347.686       26.832      858.654
08/30/2014  17:42:00     -287.391      -76.629       -3.576      129.483       87.957       58.695    16765.950     7736.412     3445.108        5.821        1.397      297.432       63.838        0.046      347.752       26.944      858.682
08/30/2014  17:43:00     -203.684     -135.218        6.268      149.852      101.371       61.621    22455.704    10276.073     3797.207        4.816        1.826      244.481       72.993        0.089      347.786       27.004      858.716
08/30/2014  17:44:00     -193.824     -115.122       -6.003      155.949      102.319       58.410    24320.169    10469.241     3411.674        4.452        1.910      225.435       73.184        0.105      347.716       26.883      858.711
08/30/2014  17:45:00     -333.783     -172.336       -3.830      246.414      141.421       90.348    60719.736    19999.794     8162.822       11.499        4.444      375.647      120.002        0.102      347.675       26.814      858.682
08/30/2014  17:46:00     -219.643     -133.519        9.445      144.233      116.763       63.922    20803.254    13633.566     4086.024        5.233        1.926      257.041       73.127        0.081      347.780       26.995      858.696
08/30/2014  17:47:00     -362.222     -239.605        9.468      264.543      171.728       89.415    69982.918    29490.516     7994.993       14.807        5.373      434.299      102.831        0.056      347.692       26.842      858.674
08/30/2014  17:48:00     -396.981     -210.849       -8.264      209.767      128.023       74.530    44002.240    16389.895     5554.668       13.402        3.297      449.502       73.027        0.026      347.545       26.587      858.626
08/30/2014  17:49:00     -258.284     -131.973        0.539      144.214       98.608       60.512    20797.684     9723.620     3661.751        5.915        1.709      290.047       65.387        0.051      347.657       26.782      858.588
08/30/2014  17:50:00     -268.929     -238.804       15.144      203.749      140.760       92.328    41513.692    19813.347     8524.477        9.970        3.493      359.653      105.608        0.086      347.670       26.804      858.571
08/30/2014  17:51:00     -310.635     -213.377        9.331      165.350      126.944       70.099    27340.632    16114.710     4913.861        9.523        2.418      376.860       80.017        0.045      347.611       26.703      858.546
08/30/2014  17:52:00     -261.421      -66.109        3.594      104.510      130.062       58.908    10922.308    16916.156     3470.135        5.201        1.565      269.650       57.460        0.045      347.708       26.869      858.544
08/30/2014  17:53:00     -127.284      -91.191       13.222       92.758       76.249       39.061     8604.126     5813.836     1525.770        2.031        0.797      156.579       38.983        0.062      347.722       26.896      858.523
08/30/2014  17:54:00     -197.140      -23.587       -3.255      100.067       86.042       59.798    10013.325     7403.291     3575.782        3.021        1.050      198.546       58.182        0.086      347.772       26.979      858.512
08/30/2014  17:55:00     -278.106      -92.203       -7.890      126.258      100.909       60.212    15941.048    10182.685     3625.465        5.782        1.487      292.992       59.272        0.041      347.785       27.001      858.518
08/30/2014  17:56:00     -300.665      -40.896       -9.282      145.905      115.357       61.537    21288.273    13307.291     3786.856        6.526        1.919      303.433       64.468        0.045      347.729       26.905      858.535
08/30/2014  17:57:00     -152.987     -144.140        1.429       79.829       85.245       50.738     6372.658     7266.664     2574.362        3.020        0.811      210.194       48.115        0.052      347.641       26.756      858.545
08/30/2014  17:58:00     -260.813     -104.067      -18.121       70.073      114.412       40.126     4910.188    13090.171     1610.078        4.939        0.981      280.808       33.943        0.015      347.621       26.718      858.512
08/30/2014  17:59:00     -227.022      -34.647       -9.008      100.304       69.489       48.105    10060.992     4828.710     2314.069        3.501        0.860      229.651       47.631        0.043      347.704       26.862      858.534
08/30/2014  18:00:00     -269.652     -155.412      -17.227      219.293      133.282       69.122    48089.598    17764.202     4777.851        8.388        3.532      311.232       80.361        0.067      347.660       26.787      858.522
08/30/2014  18:01:00     -335.906       -6.900      -33.861       97.731      116.521       50.074     9551.274    13577.161     2507.407        6.983        1.282      335.977       45.583        0.018      347.559       26.611      858.493
08/30/2014  18:02:00     -145.062      -27.095       12.910      116.798      113.167       64.204    13641.814    12806.727     4122.158        2.625        1.529      147.571       62.524        0.180      347.592       26.671      858.481
08/30/2014  18:03:00      -71.244      -19.191       20.734      106.069       86.181       65.740    11250.598     7427.242     4321.761        1.443        1.150       73.783       60.895        0.681      347.594       26.675      858.473
08/30/2014  18:04:00     -115.964       17.943       -5.165      128.337       88.500       51.305    16470.510     7832.314     2632.227        2.036        1.347      117.344       37.419        0.102      347.528       26.559      858.461
08/30/2014  18:05:00     -230.894     -106.896       -1.744      126.263      117.697       70.907    15942.430    13852.537     5027.854        4.978        1.741      254.438       66.023        0.067      347.530       26.560      858.439
08/30/2014  18:06:00     -264.720     -149.880       -8.773      114.967       97.419       53.470    13217.411     9490.447     2859.075        5.909        1.278      304.205       53.435        0.031      347.399       26.337      858.454
08/30/2014  18:07:00     -194.779      -90.149      -15.547       99.416      103.100       43.510     9883.525    10629.686     1893.084        3.435        1.120      214.629       32.779        0.023      347.410       26.356      858.453
08/30/2014  18:08:00     -236.338      -63.753       -7.197      110.346       83.311       44.753    12176.138     6940.723     2002.859        4.054        1.056      244.786       40.206        0.027      347.412       26.358      858.449
08/30/2014  18:09:00     -243.098     -106.821      -14.110      132.599       80.790       53.055    17582.580     6526.968     2814.817        4.881        1.346      265.533       55.177        0.043      347.405       26.346      858.466
08/30/2014  18:10:00     -342.637     -143.608      -27.305      183.291      114.505       50.826    33595.475    13111.334     2583.293        9.402        2.465      371.515       69.579        0.035      347.360       26.271      858.464
08/30/2014  18:11:00     -180.409     -128.609       10.718      163.873      106.498       54.410    26854.374    11341.911     2960.464        4.517        2.058      221.557       56.946        0.066      347.361       26.271      858.462
08/30/2014  18:12:00     -262.282     -147.627        7.056      171.311      148.823       69.336    29347.626    22148.147     4807.542        7.346        2.815      300.974       84.213        0.078      347.341       26.237      858.498
08/30/2014  18:13:00     -152.899     -117.765       11.412      152.096      119.605       87.267    23133.276    14305.279     7615.552        4.121        2.253      192.994       85.625        0.197      347.281       26.133      858.496
08/30/2014  18:14:00     -170.788     -146.055       -6.530       96.169       71.415       52.899     9248.469     5100.088     2798.354        3.384        0.857      224.724       53.016        0.056      347.268       26.110      858.510
08/30/2014  18:15:00     -158.636      -94.294        1.499      125.730       72.106       51.421    15808.086     5199.330     2644.085        2.885        1.183      184.544       59.938        0.105      347.340       26.237      858.533
08/30/2014  18:16:00      -46.451      -90.407       10.908       53.046       64.117       32.025     2813.839     4110.934     1025.625        0.920        0.398      101.642       26.450        0.068      347.393       26.330      858.555
08/30/2014  18:17:00     -142.163      -75.377        1.122       93.002       62.512       41.847     8649.316     3907.755     1751.164        2.010        0.715      160.909       49.133        0.093      347.444       26.416      858.573
08/30/2014  18:18:00     -270.915      -90.684       -4.995      116.337       76.182       47.664    13534.183     5803.706     2271.810        5.162        1.080      285.689       50.256        0.031      347.375       26.296      858.608
08/30/2014  18:19:00     -328.564     -104.073      -13.827      124.784      106.604       50.029    15570.929    11364.401     2502.856        7.420        1.472      344.652       34.527        0.010      347.312       26.187      858.592
08/30/2014  18:20:00     -385.081     -156.616       -6.487      157.052      117.009       62.119    24665.228    13691.156     3858.713       10.753        2.111      415.711       60.059        0.021      347.319       26.198      858.587
08/30/2014  18:21:00     -247.555     -134.858       -6.794      120.886       87.023       53.003    14613.342     7573.084     2809.268        5.225        1.250      281.904       59.370        0.044      347.297       26.162      858.565
08/30/2014  18:22:00     -188.651      -77.573        0.759      108.241       70.057       32.014    11716.171     4907.916     1024.920        2.962        0.882      203.977       27.793        0.019      347.478       26.474      858.571
08/30/2014  18:23:00     -170.836       55.694      -17.535      102.490       95.728       60.715    10504.192     9163.755     3686.320        2.797        1.168      179.685       40.332        0.050      347.462       26.446      858.540
08/30/2014  18:24:00     -400.270     -117.309      -37.530      121.603      114.012       57.703    14787.257    12998.648     3329.590       10.324        1.556      417.106       48.743        0.014      347.293       26.152      858.550
08/30/2014  18:25:00     -228.953     -126.002       -8.709      144.672       85.521       61.813    20929.873     7313.799     3820.903        5.021        1.603      261.335       63.099        0.058      347.414       26.363      858.559
08/30/2014  18:26:00     -118.849      -70.272       11.151       63.090       73.570       37.353     3980.404     5412.615     1395.254        1.499        0.539      138.070       39.178        0.081      347.434       26.400      858.603
08/30/2014  18:27:00     -162.577     -113.588        4.992      106.994       84.923       54.058    11447.660     7211.966     2922.298        3.047        1.079      198.326       41.663        0.044      347.468       26.457      858.647
08/30/2014  18:28:00     -161.650     -189.475      -12.922      101.529      138.862       53.256    10308.119    19282.767     2836.209        4.731        1.621      249.061       52.940        0.045      347.365       26.278      858.677
08/30/2014  18:29:00     -314.514     -165.272      -17.288      147.080      117.090       70.786    21632.637    13710.128     5010.670        8.344        2.018      355.294       53.470        0.023      347.374       26.293      858.681
08/30/2014  18:30:00     -245.836     -222.208       16.085      210.836      148.287       78.066    44451.692    21989.040     6094.363        9.129        3.627      331.379       98.014        0.087      347.289       26.147      858.690
08/30/2014  18:31:00     -220.403     -317.514       -4.279      102.030      126.708       64.733    10410.161    16054.899     4190.416        9.003        1.533      386.513       58.924        0.023      347.297       26.160      858.657
08/30/2014  18:32:00     -370.217     -116.218       -6.488      152.421      155.695       66.307    23232.262    24240.781     4396.623       10.123        2.593      388.030       73.369        0.036      347.356       26.262      858.705
08/30/2014  18:33:00     -181.008      -67.786        7.287      159.005      154.915       68.378    25282.567    23998.808     4675.587        4.567        2.698      193.284       78.294        0.164      347.373       26.293      858.723
08/30/2014  18:34:00     -171.801     -125.776       -1.290      127.630       87.172       56.065    16289.465     7598.999     3143.327        3.618        1.352      212.921       68.082        0.102      347.276       26.125      858.729
08/30/2014  18:35:00     -139.094      -97.255       -2.957      100.310       84.522       42.782    10062.159     7143.892     1830.318        2.392        0.952      169.722       35.131        0.043      347.362       26.274      858.730
08/30/2014  18:36:00     -237.672     -149.901      -10.841      126.281       84.415       57.766    15946.861     7125.948     3336.860        5.274        1.320      280.995       63.729        0.051      347.318       26.197      858.751
08/30/2014  18:37:00     -372.313     -169.347      -29.835      129.884      119.123       62.134    16869.794    14190.309     3860.575       10.155        1.746      409.018       55.125        0.018      347.204       26.001      858.729
08/30/2014  18:38:00     -287.942      -62.414        0.714      117.368      100.714       53.821    13775.264    10143.329     2896.747        5.681        1.341      294.629       47.062        0.026      347.234       26.052      858.746
08/30/2014  18:39:00     -233.341      -21.323      -15.560      108.142       80.732       34.962    11694.697     6517.682     1222.327        3.729        0.972      234.313       24.623        0.011      347.189       25.976      858.745
08/30/2014  18:40:00     -118.180       -9.565       -1.656       59.320       65.613       33.330     3518.815     4305.126     1110.905        1.150        0.447      118.566       23.811        0.040      347.245       26.074      858.756
08/30/2014  18:41:00      -45.799       -7.562       10.675       58.255       60.919       27.120     3393.638     3711.180      735.500        0.505        0.392       46.419       30.324        0.427      347.295       26.160      858.754
08/30/2014  18:42:00     -106.526      -31.298       -4.506       52.583       39.529       29.015     2765.002     1562.571      841.864        0.876        0.258      111.029       23.860        0.046      347.175       25.954      858.725
08/30/2014  18:43:00     -188.483       -5.140      -23.842       65.352       47.476       30.687     4270.911     2253.968      941.703        2.179        0.373      188.553       23.019        0.015      347.181       25.963      858.704
08/30/2014  18:44:00     -190.320      -20.969      -20.405       69.738       85.665       32.139     4863.391     7338.437     1032.907        2.515        0.662      191.471       19.115        0.010      347.177       25.956      858.695
08/30/2014  18:45:00     -253.064      -43.954      -25.725       42.895       67.515       36.024     1839.998     4558.330     1297.704        3.716        0.385      256.853       20.980        0.007      347.146       25.898      858.699
08/30/2014  18:46:00     -225.398      -13.668      -19.067       89.206       56.801       37.044     7957.737     3226.344     1372.266        3.195        0.628      225.812       45.333        0.040      347.139       25.888      858.723
08/30/2014  18:47:00     -164.618      -44.313       -4.654       45.183       42.785       30.548     2041.474     1830.537      933.193        1.694        0.240      170.477       26.240        0.024      347.144       25.898      858.706
08/30/2014  18:48:00     -137.763       19.001      -12.705       57.259       61.154       27.145     3278.639     3739.758      736.871        1.363        0.388      139.067       28.582        0.042      347.160       25.927      858.695
08/30/2014  18:49:00      -53.318       45.191      -15.956       68.591       39.113       25.438     4704.695     1529.819      647.106        0.601        0.344       69.893       18.407        0.069      347.143       25.898      858.682
08/30/2014  18:50:00     -148.676       63.503       -7.612      153.223       52.862       40.661    23477.226     2794.393     1653.332        2.705        1.396      161.670       69.024        0.182      347.118       25.854      858.645
08/30/2014  18:51:00     -177.419       60.059      -10.705      107.737       88.219       46.353    11607.260     7782.654     2148.584        2.836        1.077      187.309       49.821        0.071      347.075       25.779      858.676
08/30/2014  18:52:00     -169.002      -65.766       -8.943      132.134      123.187       71.225    17459.394    15175.104     5073.003        3.533        1.885      181.348       64.462        0.126      347.106       25.833      858.710
08/30/2014  18:53:00      -36.374     -292.008       -3.077      116.773      125.490       42.900    13635.832    15747.672     1840.444        5.891        1.561      294.265       13.056        0.002      347.006       25.661      858.680
08/30/2014  18:54:00     -270.893      -73.884      -10.774      196.066      102.907       66.401    38441.694    10589.862     4409.140        6.619        2.672      280.788       79.931        0.081      347.052       25.738      858.634
08/30/2014  18:55:00     -336.255     -158.164      -13.687      180.644      122.793       65.168    32632.379    15078.133     4246.826        9.510        2.598      371.595       85.876        0.053      346.996       25.641      858.686
08/30/2014  18:56:00     -105.948     -110.290        5.119      103.027       60.026       42.196    10614.476     3603.090     1780.500        1.970        0.800      152.934       42.920        0.079      346.987       25.628      858.703
08/30/2014  18:57:00     -118.826      -66.742       10.307       99.023       81.933       44.516     9805.486     6713.003     1981.693        1.859        0.925      136.287       50.186        0.136      346.955       25.573      858.709
08/30/2014  18:58:00     -174.516      -38.160      -14.180       93.280       63.140       37.534     8701.178     3986.693     1408.805        2.310        0.705      178.639       35.085        0.039      347.005       25.661      858.725
08/30/2014  18:59:00     -214.109      -53.533      -17.644       75.815       83.744       38.543     5747.981     7013.020     1485.564        3.163        0.712      220.700       33.015        0.022      346.994       25.637      858.721
08/30/2014  19:00:00     -146.687      -24.483      -12.925      101.833       89.752       48.017    10369.952     8055.495     2305.670        2.150        1.037      148.716       44.977        0.091      347.061       25.756      858.727
08/30/2014  19:01:00     -173.203     -142.813        1.991      118.309       96.479       57.074    13996.957     9308.197     3257.498        3.848        1.328      224.488       69.946        0.097      346.965       25.590      858.746
08/30/2014  19:02:00     -111.738     -123.819       22.175       67.792       86.488       52.732     4595.693     7480.199     2780.667        2.158        0.743      166.783       38.643        0.054      346.930       25.530      858.771
08/30/2014  19:03:00     -129.611        4.885       -7.438       67.587       65.309       33.467     4567.959     4265.307     1120.020        1.341        0.498      129.703       31.715        0.060      347.005       25.661      858.795
08/30/2014  19:04:00      -88.098        2.098      -10.764       47.919       39.564       22.020     2296.233     1565.349      484.866        0.611        0.217       88.123       19.514        0.049      346.961       25.585      858.813
08/30/2014  19:05:00      -32.836      -24.172       -3.554       47.324       23.038       24.558     2239.568      530.734      603.088        0.252        0.169       40.774       24.012        0.347      346.978       25.615      858.837
08/30/2014  19:06:00       -8.923      -19.315       12.373       39.260       31.639       30.155     1541.347     1001.048      909.353        0.203        0.173       21.276       28.660        1.815      346.903       25.484      858.830
08/30/2014  19:07:00      -28.549      -84.094        3.518       42.282       67.648       40.373     1787.754     4576.251     1630.005        0.795        0.400       88.808       17.345        0.038      347.028       25.700      858.848
08/30/2014  19:08:00      -62.781      -58.236       11.330       57.395       75.310       40.123     3294.190     5671.590     1609.866        0.902        0.529       85.632       37.778        0.195      346.887       25.459      858.834
08/30/2014  19:09:00      -79.184       44.260       -2.420       54.194       66.348       35.096     2936.990     4402.063     1231.761        0.840        0.429       90.714       34.024        0.141      346.801       25.310      858.842
08/30/2014  19:10:00      -72.304      117.596      -17.268       44.863       34.415       31.340     2012.650     1184.378      982.198        1.177        0.209      138.046       18.800        0.019      346.790       25.291      858.848
08/30/2014  19:11:00      -68.902       70.384      -11.745       44.243       51.720       30.826     1957.467     2674.998      950.217        0.771        0.279       98.496       28.041        0.081      346.758       25.235      858.847
08/30/2014  19:12:00     -172.326      -12.138       -9.597       81.985       72.619       36.256     6721.547     5273.549     1314.473        2.162        0.665      172.752       35.440        0.042      346.791       25.290      858.841
08/30/2014  19:13:00     -160.108       29.546      -15.127       68.465       48.319       25.962     4687.519     2334.703      674.037        1.721        0.385      162.812       30.394        0.035      346.785       25.281      858.848
08/30/2014  19:14:00      -95.090        8.327       -2.902       62.470       68.824       33.623     3902.554     4736.743     1130.523        0.944        0.488       95.454       34.300        0.129      346.671       25.086      858.850
08/30/2014  19:15:00     -135.294       -8.255      -12.835       29.531       43.492       27.134      872.055     1891.531      736.265        1.102        0.175      135.545       12.021        0.008      346.659       25.065      858.866
08/30/2014  19:16:00     -234.011       53.018      -25.328       53.727       51.174       34.868     2886.593     2618.805     1215.779        3.247        0.336      239.942       31.683        0.017      346.565       24.900      858.870
08/30/2014  19:17:00     -188.364      -60.281      -18.312       61.429       53.598       42.886     3773.581     2872.718     1839.178        2.397        0.424      197.775       25.806        0.017      346.570       24.911      858.861
08/30/2014  19:18:00     -265.318      -38.787      -10.059       82.900       68.255       44.565     6872.440     4658.700     1986.012        4.276        0.676      268.138       46.154        0.030      346.562       24.895      858.866
08/30/2014  19:19:00     -126.854      -28.198       -4.097       98.528       36.434       27.170     9707.800     1327.425      738.207        1.434        0.589      129.950       36.732        0.080      346.544       24.865      858.855
08/30/2014  19:20:00     -166.033      -25.234       -6.762       83.458       37.594       31.649     6965.287     1413.314     1001.655        1.881        0.469      167.940       34.905        0.043      346.537       24.855      858.847
08/30/2014  19:21:00     -207.116      -78.871       -4.919       59.997       46.044       30.483     3599.619     2120.095      929.196        2.789        0.332      221.625       31.764        0.021      346.504       24.794      858.886
08/30/2014  19:22:00     -206.306      -67.164       -6.403       96.213       68.904       37.940     9257.036     4747.709     1439.448        3.128        0.772      216.964       37.777        0.030      346.449       24.701      858.880
08/30/2014  19:23:00     -175.045     -138.955        8.474      177.526      124.791       81.824    31515.408    15572.670     6695.114        5.189        2.689      223.493       94.545        0.179      346.494       24.780      858.878
08/30/2014  19:24:00     -156.921      -23.950       -8.129       69.864       69.983       33.802     4881.006     4897.685     1142.572        1.809        0.546      158.738       35.993        0.051      346.480       24.757      858.889
08/30/2014  19:25:00      -76.528       -8.779       19.299      125.510       85.293       63.458    15752.866     7274.930     4026.862        1.667        1.353       77.030       66.312        0.741      346.447       24.698      858.862
08/30/2014  19:26:00     -112.408       -9.800       -8.603       67.327       63.247       41.038     4532.924     4000.191     1684.125        1.151        0.511      112.835       37.629        0.111      346.446       24.698      858.900
08/30/2014  19:27:00     -327.049      -31.912      -34.393       90.443       74.793       49.564     8179.922     5593.943     2456.584        6.269        0.812      328.602       47.171        0.021      346.412       24.637      858.928
08/30/2014  19:28:00     -253.661      -18.644      -38.097       81.695       99.352       48.148     6674.084     9870.774     2318.195        4.250        0.943      254.345       44.535        0.031      346.427       24.663      858.936
08/30/2014  19:29:00     -309.329      -13.156      -27.982      115.012       95.880       57.397    13227.785     9192.985     3294.412        6.117        1.286      309.608       47.434        0.023      346.377       24.578      858.940
08/30/2014  19:30:00     -371.042     -135.685       -6.116      129.947      106.013       55.860    16886.293    11238.687     3120.329        9.368        1.562      395.073       56.900        0.021      346.385       24.590      858.958
08/30/2014  19:31:00     -215.037      -64.385       -1.943      105.749       84.767       47.789    11182.896     7185.497     2283.765        3.552        1.033      224.469       50.141        0.050      346.347       24.526      858.968
08/30/2014  19:32:00     -203.166       -9.839      -19.351      141.336       76.708       49.679    19975.802     5884.135     2467.972        3.503        1.416      203.404       71.909        0.125      346.339       24.512      858.972
08/30/2014  19:33:00     -234.358      -42.066      -20.527       88.288       94.686       55.539     7794.738     8965.523     3084.628        3.848        0.992      238.103       51.976        0.048      346.360       24.548      858.985
08/30/2014  19:34:00     -219.541      -64.301      -18.965       85.896       88.155       52.263     7378.206     7771.257     2731.393        3.528        0.894      228.764       46.229        0.041      346.324       24.487      859.001
08/30/2014  19:35:00     -209.917      -13.183        7.794      143.186       97.980       60.502    20502.345     9600.008     3660.508        3.902        1.688      210.331       72.544        0.119      346.268       24.390      859.028
08/30/2014  19:36:00     -233.568      -67.434        0.974      122.443      101.259       52.843    14992.191    10253.473     2792.368        4.356        1.402      243.107       57.270        0.055      346.275       24.402      859.046
08/30/2014  19:37:00     -295.657      -70.942      -23.783      137.910       82.779       47.560    19019.210     6852.434     2261.945        6.057        1.407      304.049       51.327        0.028      346.307       24.458      859.050
08/30/2014  19:38:00     -172.245      -32.311       11.000      101.082       93.818       47.399    10217.624     8801.885     2246.644        2.605        1.063      175.249       58.336        0.111      346.294       24.436      859.041
08/30/2014  19:39:00     -176.706      -55.848       -4.777       86.076       68.051       40.087     7409.036     4630.997     1606.968        2.400        0.682      185.321       43.404        0.055      346.226       24.321      859.058
08/30/2014  19:40:00     -237.347      -32.178      -12.549       97.363       63.834       42.550     9479.609     4074.839     1810.543        3.644        0.768      239.518       46.638        0.038      346.240       24.342      859.055
08/30/2014  19:41:00     -259.914       46.343       -9.550      137.316       94.158       54.754    18855.686     8865.665     2997.980        5.025        1.536      264.013       65.605        0.062      346.270       24.393      859.042
08/30/2014  19:42:00     -167.597       -2.446      -16.626      119.711       70.329       41.109    14330.685     4946.128     1689.938        2.466        1.048      167.615       50.620        0.091      346.234       24.333      859.056
08/30/2014  19:43:00     -158.804        5.539       -5.560       70.421       75.496       29.569     4959.053     5699.601      874.345        1.840        0.577      158.901       22.875        0.021      346.191       24.258      859.063
08/30/2014  19:44:00     -137.864      -60.596       -0.065       68.277       63.994       31.543     4661.773     4095.233      994.968        1.621        0.488      150.594       35.352        0.055      346.181       24.241      859.058
08/30/2014  19:45:00     -200.050      -63.593        0.890       60.982       49.567       39.255     3718.854     2456.876     1540.949        2.589        0.386      209.915       29.627        0.020      346.162       24.209      859.032
08/30/2014  19:46:00     -190.620      -37.444        3.845       85.058       74.919       38.826     7234.864     5612.894     1507.445        2.605        0.718      194.263       37.562        0.037      346.175       24.230      859.056
08/30/2014  19:47:00     -236.250      -52.333       -1.435      105.595       78.160       45.764    11150.284     6108.948     2094.345        3.895        0.968      241.977       55.683        0.053      346.153       24.193      859.084
08/30/2014  19:48:00     -226.379     -101.429       10.232      187.703      124.364       71.781    35232.539    15466.342     5152.494        5.873        2.793      248.063       93.891        0.143      346.165       24.211      859.101
08/30/2014  19:49:00     -360.468      -72.211      -16.488      117.931       75.946       48.264    13907.751     5767.826     2329.400        7.871        1.100      367.630       46.729        0.016      346.271       24.393      859.124
08/30/2014  19:50:00     -326.932      -27.198      -15.201      103.033      108.561       67.321    10615.797    11785.437     4532.066        6.739        1.347      328.062       62.178        0.036      346.216       24.300      859.134
08/30/2014  19:51:00     -282.169      -39.506      -32.015       82.482       72.702       45.093     6803.311     5285.537     2033.392        4.816        0.706      284.921       46.648        0.027      346.228       24.320      859.122
08/30/2014  19:52:00     -211.493      -58.430      -18.435       61.976       66.396       32.532     3841.037     4408.456     1058.314        2.889        0.465      219.416       21.745        0.010      346.146       24.180      859.132
08/30/2014  19:53:00     -220.741      -26.016      -18.422       82.231       82.355       44.902     6762.016     6782.386     2016.194        3.265        0.778      222.268       37.677        0.029      346.149       24.186      859.145
08/30/2014  19:54:00     -182.704      -66.523       -6.260      102.839       70.167       41.859    10575.774     4923.475     1752.205        2.754        0.863      194.438       46.328        0.057      346.143       24.176      859.159
08/30/2014  19:55:00     -340.737      -42.872       -7.714      116.396       86.170       56.477    13548.061     7425.308     3189.699        7.108        1.208      343.424       60.394        0.031      346.096       24.095      859.211
08/30/2014  19:56:00     -296.221       17.484      -28.330      102.136      102.899       50.163    10431.707    10588.301     2516.316        5.619        1.177      296.736       48.137        0.026      346.184       24.244      859.212
08/30/2014  19:57:00     -268.668      -47.661      -13.536      119.085       92.086       54.411    14181.263     8479.824     2960.573        5.012        1.281      272.863       50.562        0.034      346.120       24.135      859.230
08/30/2014  19:58:00     -322.894      -17.393      -27.578       98.810      107.574       48.920     9763.401    11572.237     2393.154        6.452        1.186      323.362       17.754        0.003      346.093       24.088      859.258
08/30/2014  19:59:00     -466.289      -89.320      -36.228      156.392      135.593       69.255    24458.515    18385.404     4796.240       13.717        2.382      474.767       77.112        0.026      346.063       24.037      859.277
08/30/2014  20:00:00     -386.296     -154.340      -36.818      133.032      110.157       70.592    17697.410    12134.525     4983.242       10.460        1.741      415.987       69.876        0.028      346.086       24.075      859.286
08/30/2014  20:01:00     -269.641     -100.597       -5.150       94.578      107.261       56.820     8944.920    11504.890     3228.526        5.326        1.184      287.796       50.621        0.031      346.031       23.981      859.317
08/30/2014  20:02:00     -356.776      -82.638      -29.101      141.902      103.095       60.609    20136.078    10628.640     3673.398        8.469        1.722      366.222       62.535        0.029      346.037       23.993      859.362
08/30/2014  20:03:00     -349.026      -64.849      -21.752      119.475      115.209       63.262    14274.387    13273.175     4002.018        7.902        1.577      354.999       55.148        0.024      346.040       23.998      859.372
08/30/2014  20:04:00     -388.657      -79.917       -4.521      138.735      105.083       69.392    19247.284    11042.453     4815.261        9.628        1.755      396.789       72.297        0.033      346.078       24.063      859.386
08/30/2014  20:05:00     -221.684      -33.516        6.168      133.328      113.909       77.751    17776.433    12975.191     6045.160        4.354        1.840      224.203       75.795        0.114      346.066       24.042      859.359
08/30/2014  20:06:00     -246.241      -64.507      -23.729       89.473       81.020       44.117     8005.479     6564.241     1946.320        4.093        0.826      254.550       24.105        0.009      346.039       23.995      859.358
08/30/2014  20:07:00     -385.489      -68.980      -29.157      168.134      156.248       65.887    28269.113    24413.441     4341.081       10.561        2.851      391.612       53.222        0.018      346.044       24.006      859.354
08/30/2014  20:08:00     -245.130      -51.099       -6.325      132.923      127.268       57.708    17668.399    16197.096     3330.201        4.996        1.860      250.399       50.213        0.040      346.038       23.993      859.380
08/30/2014  20:09:00     -395.116      -35.880      -14.429      135.007      118.982       72.798    18226.763    14156.775     5299.556        9.764        1.884      396.741       71.891        0.033      346.013       23.953      859.389
08/30/2014  20:10:00     -349.424      -68.789      -13.592      154.709      111.342       64.753    23934.781    12397.082     4192.959        8.376        2.026      356.130       70.662        0.039      345.999       23.926      859.393
08/30/2014  20:11:00     -452.477      -55.697      -22.910      147.362      109.680       68.935    21715.675    12029.794     4752.085       12.342        1.925      455.892       66.050        0.021      345.969       23.875      859.418
08/30/2014  20:12:00     -304.151      -47.966       -6.874      181.737      172.808       90.400    33028.157    29862.752     8172.148        8.295        3.553      307.910       89.827        0.085      345.956       23.855      859.407
08/30/2014  20:13:00     -254.839      -63.727       28.366      236.263      129.878       87.093    55820.241    16868.374     7585.260        7.503        4.014      262.686      103.938        0.157      345.961       23.864      859.379
08/30/2014  20:14:00     -319.362      -52.288      -18.270      148.620      109.984       60.784    22088.008    12096.446     3694.715        7.146        1.894      323.614       68.677        0.045      345.923       23.797      859.415
08/30/2014  20:15:00     -312.832      -20.858       -8.729      149.458       89.929       63.674    22337.697     8087.274     4054.366        6.642        1.724      313.526       75.450        0.058      345.884       23.729      859.403
08/30/2014  20:16:00     -335.983      -32.345      -18.841      151.392      139.604       67.996    22919.634    19489.244     4623.415        8.065        2.352      337.536       60.570        0.032      345.873       23.711      859.415
08/30/2014  20:17:00     -366.364      -67.861       -7.361      188.960      127.426       84.191    35705.718    16237.511     7088.100        9.895        2.952      372.596       79.220        0.045      345.878       23.719      859.385
08/30/2014  20:18:00     -474.577      -82.214      -18.708      172.697      143.339       80.222    29824.337    20545.998     6435.617       14.456        2.840      481.646       81.704        0.029      345.878       23.720      859.382
08/30/2014  20:19:00     -422.243      -54.983      -21.597      166.862      161.491       85.469    27842.996    26079.338     7305.005       12.149        3.061      425.808       70.989        0.028      345.858       23.686      859.379
08/30/2014  20:20:00     -463.324     -120.231      -25.183      178.598      123.547       63.615    31897.286    15263.927     4046.917       14.047        2.560      478.670       57.528        0.014      345.877       23.719      859.365
08/30/2014  20:21:00     -339.879      -39.406      -17.892      138.215      117.680       74.750    19103.459    13848.597     5587.564        7.796        1.927      342.156       81.093        0.056      345.827       23.632      859.376
08/30/2014  20:22:00     -390.306      -45.138      -14.504      118.229      131.878       50.553    13978.019    17391.727     2555.647        9.425        1.696      392.908       32.640        0.007      345.833       23.642      859.365
08/30/2014  20:23:00     -390.451      -67.835       -6.589      257.421      146.345       91.689    66265.564    21416.984     8406.956       12.657        4.804      396.300      124.332        0.098      345.842       23.660      859.332
08/30/2014  20:24:00     -422.728     -138.418      -34.275      204.464      159.175       76.189    41805.422    25336.730     5804.714       13.598        3.647      444.813       86.132        0.037      345.858       23.687      859.312
08/30/2014  20:25:00     -469.187      -28.409      -38.333      188.521      192.755       85.147    35540.268    37154.679     7250.009       15.116        3.997      470.047       88.708        0.036      345.817       23.616      859.303
08/30/2014  20:26:00     -323.831       -2.702       -9.027      176.989      112.876       71.228    31325.229    12740.976     5073.456        7.704        2.457      323.842       81.115        0.063      345.820       23.619      859.280
08/30/2014  20:27:00     -319.340      -71.079       -1.289      175.858      143.085       95.846    30925.973    20473.397     9186.424        8.380        3.029      327.155       93.143        0.081      345.786       23.562      859.276
08/30/2014  20:28:00     -573.451     -163.484      -25.533      226.328      176.549      106.557    51224.175    31169.536    11354.488       22.497        4.687      596.299      108.074        0.033      345.794       23.576      859.281
08/30/2014  20:29:00     -551.271      -70.790      -17.308      208.574      180.198      101.629    43503.090    32471.388    10328.449       19.774        4.315      555.797      110.842        0.040      345.788       23.566      859.258
08/30/2014  20:30:00     -259.893      -69.874       23.044      224.637      178.147       92.646    50461.780    31736.286     8583.293        8.185        4.539      269.122      110.228        0.168      345.776       23.545      859.240
08/30/2014  20:31:00     -446.818      -98.055      -18.941      181.744      178.090       76.515    33030.732    31716.060     5854.522       14.010        3.530      457.450       76.416        0.028      345.776       23.545      859.243
08/30/2014  20:32:00     -406.852      -91.662      -16.835      199.999      120.895       80.409    39999.473    14615.604     6465.611       11.763        3.054      417.049       93.505        0.050      345.730       23.467      859.252
08/30/2014  20:33:00     -339.037      -89.119        1.890      150.454      131.223       69.663    22636.338    17219.488     4852.992        8.379        2.235      350.554       70.128        0.040      345.710       23.432      859.251
08/30/2014  20:34:00     -317.219      -63.967        3.355      201.552      158.074       97.453    40623.223    24987.285     9497.168        8.990        3.755      323.604      104.397        0.104      345.696       23.409      859.227
08/30/2014  20:35:00     -516.743      -90.804      -13.272      314.323      203.998      116.290    98798.826    41615.084    13523.464       21.466        7.697      524.660      143.650        0.075      345.697       23.410      859.206
08/30/2014  20:36:00     -372.734      -49.648      -28.724      158.361      128.975       75.280    25078.078    16634.481     5667.035        9.479        2.369      376.026       68.307        0.033      345.683       23.385      859.231
08/30/2014  20:37:00     -431.339      -76.822       -9.319      264.849      201.875      116.564    70145.101    40753.637    13587.130       15.824        6.224      438.127      141.134        0.104      345.668       23.361      859.231
08/30/2014  20:38:00     -472.830      -42.926      -35.229      198.110      197.147      100.323    39247.669    38867.105    10064.670       15.740        4.409      474.775       84.525        0.032      345.682       23.384      859.265
08/30/2014  20:39:00     -441.245     -162.528      -14.174      193.988      189.301       99.034    37631.405    35834.986     9807.713       15.228        4.164      470.226      106.657        0.051      345.673       23.366      859.278
08/30/2014  20:40:00     -271.551      -59.660        5.175      175.385      144.476       60.377    30759.809    20873.331     3645.404        6.629        2.764      278.027       61.886        0.050      345.665       23.356      859.302
08/30/2014  20:41:00     -293.603      -44.572       -3.245      150.929      141.053       75.962    22779.623    19896.089     5770.207        6.831        2.422      296.967       67.525        0.052      345.644       23.317      859.324
08/30/2014  20:42:00     -320.726      -59.579      -24.232       95.084      113.613       53.189     9041.013    12907.978     2829.113        6.589        1.239      326.213       40.030        0.015      345.639       23.307      859.337
08/30/2014  20:43:00     -456.964       10.297      -35.362      214.879      181.341       64.281    46172.774    32884.521     4132.060       14.666        4.159      457.080       60.829        0.018      345.608       23.256      859.331
08/30/2014  20:44:00     -599.927       53.190      -47.764      189.454      139.903       87.199    35892.970    19572.962     7603.598       21.403        3.153      602.280       89.005        0.022      345.595       23.235      859.328
08/30/2014  20:45:00     -494.320      -74.311      -24.158      248.694      156.658       96.359    61848.941    24541.613     9284.991       17.305        4.784      499.875      112.285        0.050      345.597       23.237      859.328
08/30/2014  20:46:00     -463.578     -106.610       -9.082      194.832      186.387      103.829    37959.396    34740.027    10780.546       15.490        4.174      475.679      108.126        0.052      345.606       23.253      859.315
08/30/2014  20:47:00     -393.923      -66.609      -10.122      190.428      171.877       76.133    36262.714    29541.740     5796.267       11.564        3.580      399.514       91.741        0.053      345.585       23.215      859.345
08/30/2014  20:48:00     -290.626      -11.022       -9.088      143.765      111.745       73.203    20668.408    12486.966     5358.609        6.158        1.926      290.835       71.200        0.060      345.552       23.159      859.345
08/30/2014  20:49:00     -310.776      -85.163        0.051      158.457      134.824       78.638    25108.490    18177.558     6183.969        7.664        2.474      322.233       78.762        0.060      345.537       23.134      859.353
08/30/2014  20:50:00     -205.953      -44.270      -14.449      167.716      125.847       64.893    28128.730    15837.508     4211.112        4.637        2.409      210.657       82.763        0.154      345.511       23.092      859.351
08/30/2014  20:51:00     -258.914      -49.440      -14.018       85.867      102.783       53.602     7373.157    10564.427     2873.214        4.524        1.041      263.592       51.403        0.038      345.500       23.070      859.348
08/30/2014  20:52:00     -363.453      -62.995      -11.168      161.958      126.594       74.509    26230.509    16026.131     5551.591        9.199        2.390      368.872       83.969        0.052      345.484       23.044      859.353
08/30/2014  20:53:00     -325.711     -100.187      -11.438      123.837      132.563       65.648    15335.608    17572.973     4309.650        7.673        1.861      340.771       57.168        0.028      345.468       23.015      859.373
08/30/2014  20:54:00     -270.537      -18.241       -4.601      151.362      124.386       66.908    22910.471    15471.772     4476.651        5.819        2.143      271.151       69.102        0.065      345.428       22.947      859.394
08/30/2014  20:55:00     -408.464     -104.783      -19.437      157.401      121.161       73.925    24775.098    14680.081     5464.929       11.155        2.246      421.690       75.934        0.032      345.457       22.996      859.402
08/30/2014  20:56:00     -357.962     -110.941      -22.697      156.726       80.589       64.624    24562.995     6494.518     4176.272        8.809        1.762      374.760       69.811        0.035      345.454       22.990      859.421
08/30/2014  20:57:00     -340.313       11.199      -10.712      173.071      118.202       78.561    29953.663    13971.693     6171.844        8.307        2.505      340.497       89.012        0.068      345.441       22.970      859.441
08/30/2014  20:58:00     -231.963      -80.070       16.226      179.884      132.797       74.676    32358.124    17634.954     5576.497        5.801        2.778      245.394       97.657        0.158      345.424       22.940      859.463
08/30/2014  20:59:00     -440.917       -7.925      -45.859      142.470      118.659       63.070    20297.720    14080.029     3977.790       11.746        1.918      440.989       52.499        0.014      345.402       22.901      859.465
08/30/2014  21:00:00     -298.376      -27.555        1.813      167.240      114.197       71.208    27969.188    13040.987     5070.570        6.793        2.304      299.646       85.720        0.082      345.364       22.840      859.484
08/30/2014  21:01:00     -412.349        0.674      -33.427      106.995      126.014       58.677    11448.015    15879.409     3442.946       10.095        1.539      412.349       54.892        0.018      345.336       22.789      859.505
08/30/2014  21:02:00     -338.484      -68.765      -14.714      175.563      123.864       75.644    30822.343    15342.364     5722.037        8.569        2.594      345.398       81.650        0.056      345.376       22.857      859.525
08/30/2014  21:03:00     -367.197     -166.396       -7.685      168.048      124.676       82.129    28240.237    15544.180     6745.221       10.654        2.526      403.139       77.427        0.037      345.408       22.912      859.541
08/30/2014  21:04:00     -285.803      -52.869      -13.920      127.291       96.301       63.939    16202.907     9273.943     4088.162        5.711        1.478      290.651       65.552        0.051      345.380       22.865      859.572
08/30/2014  21:05:00     -365.034      -83.628      -10.853      107.596      104.072       58.345    11576.962    10830.922     3404.187        8.308        1.291      374.491       51.586        0.019      345.361       22.832      859.577
08/30/2014  21:06:00     -287.213      -73.238       -9.368      116.978       88.816       49.322    13683.844     7888.298     2432.671        5.597        1.200      296.404       53.510        0.033      345.317       22.756      859.587
08/30/2014  21:07:00     -184.912      -59.039        6.785      102.166      101.322       52.937    10437.888    10266.208     2802.335        3.061        1.175      194.108       53.464        0.076      345.259       22.659      859.589
08/30/2014  21:08:00     -220.842      -55.557        5.014      119.302       72.873       49.207    14232.871     5310.402     2421.300        3.692        1.098      227.723       57.267        0.063      345.245       22.636      859.585
08/30/2014  21:09:00     -229.244      -57.846       -5.064       94.018       78.404       42.635     8839.301     6147.236     1817.782        3.636        0.840      236.430       37.188        0.025      345.247       22.639      859.583
08/30/2014  21:10:00     -174.213      -26.505       -7.724       90.362       66.302       41.620     8165.367     4395.930     1732.185        2.270        0.715      176.217       42.881        0.059      345.217       22.589      859.579
08/30/2014  21:11:00     -273.608       51.663      -10.110      102.681       84.351       46.099    10543.320     7115.056     2125.116        4.870        0.989      278.442       43.757        0.025      345.214       22.580      859.594
08/30/2014  21:12:00     -223.589        6.518       -1.895       89.499       99.240       46.558     8010.044     9848.574     2167.650        3.503        1.001      223.684       46.243        0.043      345.175       22.515      859.604
08/30/2014  21:13:00     -208.814       31.932      -15.880       64.609       54.601       35.494     4174.376     2981.316     1259.792        2.664        0.421      211.242       33.631        0.025      345.158       22.484      859.603
08/30/2014  21:14:00     -228.975      -28.488      -11.551      109.754       63.849       42.121    12045.935     4076.695     1774.163        3.563        0.895      230.740       50.461        0.048      345.140       22.455      859.626
08/30/2014  21:15:00     -256.276      -34.740      -16.435       75.319       60.479       41.562     5672.911     3657.711     1727.392        3.910        0.553      258.620       43.101        0.028      345.153       22.476      859.649
08/30/2014  21:16:00     -192.871      -58.385       -0.041       85.904       83.221       38.825     7379.473     6925.749     1507.381        2.821        0.791      201.514       36.970        0.034      345.132       22.442      859.656
08/30/2014  21:17:00     -189.112      -35.364      -18.512       94.464       59.930       36.103     8923.410     3591.571     1303.434        2.558        0.691      192.391       45.135        0.055      345.136       22.449      859.683
08/30/2014  21:18:00     -258.265       28.979      -18.868       81.171       52.024       34.904     6588.802     2706.459     1218.308        3.920        0.526      259.886       36.022        0.019      345.097       22.382      859.699
08/30/2014  21:19:00     -222.027       -5.636      -42.183       86.719       47.584       40.001     7520.264     2264.199     1600.107        3.124        0.569      222.099       22.626        0.010      345.108       22.401      859.709
08/30/2014  21:20:00     -233.145      -31.495      -15.660       73.925       80.478       37.230     5464.916     6476.675     1386.041        3.446        0.666      235.263       31.322        0.018      345.058       22.314      859.720
08/30/2014  21:21:00     -211.557      -45.983      -22.390       63.449       56.774       31.359     4025.725     3223.252      983.363        2.780        0.412      216.497       26.891        0.015      345.058       22.316      859.721
08/30/2014  21:22:00     -161.850      -89.010        0.683       59.725       57.219       39.230     3567.118     3274.045     1538.962        2.125        0.419      184.711       28.254        0.023      344.979       22.182      859.728
08/30/2014  21:23:00     -134.205       -5.097      -23.597       39.889       51.003       29.876     1591.160     2601.317      892.592        1.184        0.254      134.302       18.580        0.019      345.017       22.246      859.731
08/30/2014  21:24:00     -122.843       62.250      -16.572       68.321       49.497       33.272     4667.757     2449.936     1107.025        1.373        0.411      137.715       21.037        0.023      344.989       22.200      859.730
08/30/2014  21:25:00     -150.530      -66.744      -10.771       94.092       68.434       48.565     8853.395     4683.173     2358.566        2.156        0.795      164.663       48.381        0.086      344.939       22.112      859.738
08/30/2014  21:26:00      -92.381        0.602       -2.339       71.802       50.939       44.417     5155.462     2594.819     1972.871        0.913        0.486       92.383       39.394        0.182      344.976       22.178      859.748
08/30/2014  21:27:00     -105.697       18.986       -0.010      106.473       49.690       40.038    11336.579     2469.131     1603.041        1.347        0.770      107.389       49.344        0.211      344.898       22.042      859.747
08/30/2014  21:28:00     -211.847       14.597      -20.034       68.436       73.746       51.163     4683.525     5438.524     2617.642        2.911        0.637      212.349       49.472        0.054      344.914       22.068      859.763
08/30/2014  21:29:00     -169.375      -18.560      -31.836       61.860       92.737       28.707     3826.662     8600.098      824.092        2.165        0.663      170.389       16.235        0.009      344.852       21.965      859.773
08/30/2014  21:30:00     -171.380      -36.127      -33.215       72.678       91.111       45.953     5282.126     8301.252     2111.702        2.373        0.785      175.147       32.270        0.034      344.831       21.927      859.774
08/30/2014  21:31:00     -141.152      -25.554       -6.084       54.400       60.655       40.990     2959.340     3679.086     1680.207        1.446        0.416      143.447       33.728        0.055      344.805       21.883      859.783
08/30/2014  21:32:00     -158.518      -43.773      -21.549       70.857       45.499       33.615     5020.698     2070.144     1129.988        1.786        0.411      164.451       23.701        0.021      344.804       21.881      859.798
08/30/2014  21:33:00     -162.236      -54.862      -21.694       54.865       61.215       41.145     3010.188     3747.236     1692.875        1.912        0.423      171.261       32.416        0.036      344.772       21.827      859.787
08/30/2014  21:34:00     -166.980       43.577      -20.169       75.387      104.730       45.467     5683.254    10968.355     2067.266        2.445        0.936      172.573       41.497        0.058      344.764       21.812      859.792
08/30/2014  21:35:00     -102.304       -6.267       -2.586       92.438       86.766       45.259     8544.734     7528.253     2048.418        1.431        0.906      102.495       39.021        0.145      344.763       21.811      859.809
08/30/2014  21:36:00     -196.664      -84.971      -13.523       90.053       82.569       47.867     8109.571     6817.601     2291.229        3.165        0.861      214.235       40.222        0.035      344.756       21.797      859.827
08/30/2014  21:37:00     -206.501      -85.709       -5.957      102.837       89.747       48.262    10575.419     8054.590     2329.256        3.549        1.048      223.582       40.289        0.032      344.708       21.714      859.825
08/30/2014  21:38:00     -145.255      -33.946       -4.487      116.703       86.065       46.463    13619.600     7407.131     2158.811        2.272        1.159      149.169       44.507        0.089      344.685       21.678      859.817
08/30/2014  21:39:00     -296.376     -107.661       -7.459       94.538       85.107       46.713     8937.446     7243.132     2182.086        5.892        0.918      315.324       49.125        0.024      344.703       21.706      859.825
08/30/2014  21:40:00     -358.723      -54.893      -35.449       96.215       70.982       53.453     9257.355     5038.483     2857.224        7.505        0.858      362.898       45.362        0.016      344.767       21.815      859.810
08/30/2014  21:41:00     -264.002      -56.685      -10.199      105.544       75.618       53.937    11139.447     5718.052     2909.182        4.639        0.988      270.019       58.362        0.047      344.700       21.701      859.807
08/30/2014  21:42:00     -278.921      -30.332      -25.714       96.178       81.270       49.204     9250.171     6604.772     2421.013        4.882        0.914      280.565       53.089        0.036      344.739       21.767      859.824
08/30/2014  21:43:00     -319.651      -51.980      -23.256      113.873       97.738       48.367    12967.071     9552.763     2339.373        6.513        1.243      323.849       33.164        0.010      344.809       21.887      859.818
08/30/2014  21:44:00     -237.924      -93.299       -8.601       89.471       75.684       40.683     8005.059     5728.043     1655.074        4.038        0.769      255.563       35.794        0.020      344.724       21.741      859.826
08/30/2014  21:45:00     -275.780      -78.776      -23.282       65.594       70.926       47.234     4302.619     5030.567     2231.036        4.718        0.578      286.810       31.358        0.012      344.729       21.750      859.807
08/30/2014  21:46:00     -184.196      -82.225       -5.796       76.106       79.213       50.573     5792.100     6274.759     2557.611        2.767        0.731      201.715       44.650        0.049      344.718       21.732      859.795
08/30/2014  21:47:00     -222.570      -80.930      -24.869       76.669       61.190       32.067     5878.133     3744.236     1028.302        3.368        0.533      236.827       19.231        0.007      344.708       21.715      859.805
08/30/2014  21:48:00     -262.415      -69.265      -27.338       73.305       77.667       39.645     5373.647     6032.212     1571.753        4.369        0.649      271.402       31.496        0.013      344.663       21.637      859.809
08/30/2014  21:49:00     -224.208      -69.564      -15.285       79.105       73.895       47.288     6257.666     5460.447     2236.115        3.465        0.698      234.752       37.121        0.025      344.661       21.634      859.830
08/30/2014  21:50:00     -146.888       20.059      -11.276       95.192       85.550       43.169     9061.444     7318.850     1863.605        2.017        0.912      148.252       53.606        0.131      344.638       21.598      859.820
08/30/2014  21:51:00     -200.443      -85.165      -17.438       83.275       55.908       45.281     6934.742     3125.664     2050.413        2.992        0.606      217.785       39.276        0.033      344.688       21.681      859.821
08/30/2014  21:52:00     -219.531      -32.459      -16.397      103.989       79.874       47.688    10813.655     6379.801     2274.153        3.449        0.973      221.917       48.656        0.048      344.650       21.615      859.836
08/30/2014  21:53:00     -169.822      -39.484        2.132       86.200       84.577       43.496     7430.425     7153.334     1891.942        2.344        0.824      174.351       44.810        0.066      344.609       21.545      859.840
08/30/2014  21:54:00     -149.995      -30.565       -2.360       87.598       79.889       36.804     7673.408     6382.281     1354.538        1.942        0.771      153.077       35.335        0.053      344.661       21.636      859.841
08/30/2014  21:55:00     -117.801      -24.019      -17.709       48.877       44.384       33.113     2388.959     1969.903     1096.471        1.011        0.273      120.224       26.943        0.050      344.624       21.575      859.867
08/30/2014  21:56:00      -50.660      -24.181       -0.642       73.034       41.838       36.666     5334.000     1750.450     1344.405        0.579        0.421       56.135       40.186        0.512      344.567       21.477      859.885
08/30/2014  21:57:00      -81.769      -26.875      -18.965       69.236       57.659       32.660     4793.601     3324.569     1066.695        0.847        0.459       86.073       24.592        0.082      344.582       21.503      859.895
08/30/2014  21:58:00     -129.653      -48.891      -11.827       51.194       46.972       32.549     2620.800     2206.407     1059.440        1.261        0.294      138.565       21.602        0.024      344.599       21.533      859.902
08/30/2014  21:59:00      -91.542        3.345      -26.715       68.950       43.134       30.494     4754.107     1860.505      929.874        0.832        0.377       91.604       19.043        0.043      344.558       21.463      859.903
08/30/2014  22:00:00     -124.455      -28.234      -13.497       53.113       46.298       29.627     2820.954     2143.533      877.758        1.115        0.292      127.617       20.838        0.027      344.580       21.499      859.911
08/30/2014  22:01:00      -78.386      -39.830        5.996       91.275       93.789       40.095     8331.172     8796.427     1607.573        1.325        0.937       87.924       41.964        0.228      344.474       21.317      859.912
08/30/2014  22:02:00     -176.152      -35.885      -15.780       66.479       64.294       44.091     4419.507     4133.699     1944.025        2.153        0.525      179.770       35.363        0.039      344.622       21.570      859.917
08/30/2014  22:03:00     -111.520       11.690      -25.868       44.482       55.469       35.705     1978.656     3076.798     1274.819        0.979        0.317      112.131       16.165        0.021      344.628       21.583      859.922
08/30/2014  22:04:00     -160.885      -48.182       -7.307       71.518       71.707       34.302     5114.775     5141.957     1176.636        1.984        0.572      167.945       34.298        0.042      344.615       21.558      859.937
08/30/2014  22:05:00     -180.756      -75.951      -16.264       48.848       67.278       34.276     2386.145     4526.378     1174.835        2.339        0.404      196.064       20.642        0.011      344.631       21.584      859.959
08/30/2014  22:06:00     -191.454      -22.933      -27.974       64.707       68.746       46.284     4187.054     4725.986     2142.222        2.451        0.553      192.822       33.450        0.030      344.642       21.603      859.973
08/30/2014  22:07:00     -231.315      -87.217      -10.231      114.655       84.674       56.128    13145.672     7169.620     3150.399        4.234        1.173      247.211       56.797        0.053      344.576       21.489      860.003
08/30/2014  22:08:00     -201.245      -63.699       -9.072       72.312       59.580       43.431     5228.992     3549.785     1886.284        2.765        0.533      211.085       27.394        0.017      344.616       21.558      860.015
08/30/2014  22:09:00     -144.752       13.835      -26.048       77.740       57.499       45.363     6043.508     3306.128     2057.783        1.661        0.570      145.412       37.173        0.065      344.632       21.589      860.025
08/30/2014  22:10:00     -115.249      -12.423       -1.347       74.644       48.742       40.209     5571.707     2375.766     1616.801        1.150        0.478      115.917       33.406        0.083      344.606       21.543      860.030
08/30/2014  22:11:00     -242.050      -54.063      -17.398       68.681       58.312       37.194     4717.040     3400.260     1383.379        3.566        0.475      248.015        8.739        0.001      344.636       21.592      860.037
08/30/2014  22:12:00     -209.184      -44.569      -13.028       79.638       72.148       35.555     6342.158     5205.274     1264.150        2.936        0.641      213.879       30.849        0.021      344.608       21.543      860.034
08/30/2014  22:13:00     -268.724      -52.407      -28.344       72.622       63.707       34.359     5273.911     4058.573     1180.517        4.314        0.526      273.786       22.921        0.007      344.595       21.521      860.034
08/30/2014  22:14:00     -196.716        9.261      -21.467       78.937       60.692       44.813     6231.096     3683.486     2008.220        2.558        0.596      196.934       45.708        0.054      344.601       21.534      860.049
08/30/2014  22:15:00     -157.035      -12.015      -15.773       44.053       72.758       38.036     1940.698     5293.735     1446.739        1.687        0.434      157.494       25.572        0.026      344.632       21.588      860.043
08/30/2014  22:16:00     -209.282      -54.344      -18.225       59.079       48.209       32.331     3490.359     2324.100     1045.272        2.697        0.343      216.223       26.456        0.015      344.602       21.534      860.052
08/30/2014  22:17:00     -208.285      -28.122      -26.574       76.176       55.823       31.372     5802.832     3116.220      984.230        2.739        0.495      210.175       27.351        0.017      344.589       21.513      860.064
08/30/2014  22:18:00     -223.445      -51.124      -14.594       76.528       48.188       38.183     5856.490     2322.078     1457.952        3.119        0.482      229.219       34.536        0.023      344.657       21.628      860.079
08/30/2014  22:19:00     -270.548      -23.694      -24.215       57.796       53.815       35.444     3340.368     2896.078     1256.243        4.092        0.375      271.584       29.110        0.011      344.713       21.721      860.077
08/30/2014  22:20:00     -318.555      -56.972      -24.793       74.619       71.301       46.878     5567.929     5083.891     2197.525        5.909        0.642      323.610       39.366        0.015      344.670       21.649      860.080
08/30/2014  22:21:00     -332.004      -77.506      -27.263       81.556       68.885       37.962     6651.444     4745.118     1441.085        6.490        0.642      340.931       31.133        0.008      344.748       21.783      860.075
08/30/2014  22:22:00     -200.718      -54.477      -27.057      102.191       80.338       47.751    10443.006     6454.154     2280.198        3.158        0.959      207.979       26.845        0.017      344.690       21.684      860.058
08/30/2014  22:23:00     -196.884      -75.905       -1.289       99.570       74.758       38.908     9914.128     5588.706     1513.810        3.077        0.851      211.009       45.321        0.046      344.597       21.525      860.051
08/30/2014  22:24:00     -207.432      -50.911       -9.744       74.585      102.251       45.105     5562.883    10455.294     2034.421        3.188        0.903      213.588       37.569        0.031      344.678       21.665      860.053
08/30/2014  22:25:00     -259.779      -81.159      -14.899      102.029       79.445       49.318    10409.847     6311.483     2432.278        4.672        0.958      272.162       49.310        0.033      344.799       21.869      860.033
08/30/2014  22:26:00     -277.170       -3.450      -13.610       92.800      104.772       52.352     8611.854    10977.183     2740.697        4.967        1.116      277.191       54.763        0.039      344.770       21.822      860.030
08/30/2014  22:27:00     -243.398      -37.571      -14.644       93.598      104.372       36.415     8760.537    10893.445     1326.060        4.092        1.049      246.281       35.980        0.021      344.717       21.730      860.039
08/30/2014  22:28:00     -372.686      -53.731      -27.875       98.822      106.779       57.164     9765.850    11401.729     3267.727        8.349        1.222      376.539       41.705        0.012      344.787       21.850      860.049
08/30/2014  22:29:00     -224.149     -113.675       -2.350      130.284      152.065       67.979    16973.899    23123.778     4621.105        5.394        2.236      251.326       76.527        0.093      344.839       21.939      860.037
08/30/2014  22:30:00     -236.717      -57.013       -6.298       92.938       61.835       39.557     8637.546     3823.627     1564.760        3.667        0.701      243.486       42.920        0.031      344.681       21.668      860.064
08/30/2014  22:31:00     -363.132     -124.609      -20.214      116.575       86.010       55.311    13589.784     7397.789     3059.284        8.592        1.202      383.917       44.824        0.014      344.743       21.773      860.067
08/30/2014  22:32:00     -301.943      -31.332      -17.572      134.798      102.325       60.982    18170.587    10470.452     3718.845        6.240        1.618      303.565       61.385        0.041      344.723       21.741      860.057
08/30/2014  22:33:00     -320.749     -108.942      -11.477      146.472      119.324       63.019    21454.042    14238.240     3971.438        7.726        1.983      338.746       70.539        0.043      344.817       21.902      860.054
08/30/2014  22:34:00     -382.208     -107.729      -11.213      113.663       90.790       57.970    12919.252     8242.786     3360.471        9.116        1.226      397.100       52.637        0.018      344.879       22.009      860.065
08/30/2014  22:35:00     -263.266      -60.672      -20.285       85.921       99.341       47.107     7382.408     9868.564     2219.085        4.643        0.974      270.166       36.718        0.018      344.795       21.863      860.054
08/30/2014  22:36:00     -326.660      -44.022      -10.312      143.296      107.297       62.203    20533.816    11512.628     3869.256        7.233        1.796      329.613       56.306        0.029      344.780       21.838      860.045
08/30/2014  22:37:00     -158.601      -70.121       -5.815      107.208       79.818       53.295    11493.490     6370.888     2840.407        2.540        1.035      173.411       42.970        0.061      344.720       21.736      860.036
08/30/2014  22:38:00     -237.328      -98.375      -15.367      114.539       96.269       61.122    13119.181     9267.634     3735.931        4.618        1.306      256.909       50.324        0.038      344.761       21.805      860.037
08/30/2014  22:39:00     -194.271      -79.377       -7.416      109.606       82.153       52.248    12013.555     6749.100     2729.828        3.279        1.075      209.861       46.682        0.049      344.750       21.787      860.031
08/30/2014  22:40:00     -213.307     -143.005      -15.322       89.734       59.213       41.859     8052.187     3506.143     1752.193        3.975        0.666      256.808       30.012        0.014      344.743       21.775      860.030
08/30/2014  22:41:00     -274.161      -46.295      -13.970      112.206       84.169       52.615    12590.134     7084.478     2768.311        4.997        1.122      278.042       51.424        0.034      344.723       21.741      860.051
08/30/2014  22:42:00     -264.140      -97.737      -25.302      124.921       97.143       45.652    15605.164     9436.771     2084.115        5.354        1.356      281.642       25.633        0.008      344.787       21.849      860.052
08/30/2014  22:43:00     -239.473      -34.056      -12.691      111.331       88.073       63.032    12394.612     7756.905     3973.001        4.139        1.206      241.883       50.889        0.044      344.741       21.771      860.052
08/30/2014  22:44:00     -213.564      -84.740      -16.778       89.986       80.221       45.299     8097.408     6435.450     2051.968        3.483        0.829      229.762       27.707        0.015      344.725       21.744      860.051
08/30/2014  22:45:00     -260.401      -73.821       -5.275       89.310       95.030       46.998     7976.254     9030.793     2208.839        4.625        0.961      270.663       40.568        0.022      344.665       21.640      860.072
08/30/2014  22:46:00     -283.553      -74.033      -13.788      127.168      102.255       45.997    16171.710    10456.150     2115.689        5.740        1.437      293.058       50.237        0.029      344.645       21.604      860.071
08/30/2014  22:47:00     -295.724     -103.010      -23.307      101.270       74.804       51.456    10255.570     5595.642     2647.755        5.855        0.925      313.151       51.387        0.027      344.671       21.651      860.060
08/30/2014  22:48:00     -319.776      -96.062       -6.648      101.956       84.689       59.069    10395.113     7172.208     3489.146        6.629        1.053      333.893       59.127        0.031      344.656       21.624      860.042
08/30/2014  22:49:00     -267.369     -132.422      -12.933      106.751       94.974       51.980    11395.680     9020.022     2701.889        5.615        1.156      298.366       49.907        0.028      344.661       21.633      860.052
08/30/2014  22:50:00     -249.152     -127.423        7.211      142.878      103.475       69.287    20413.986    10707.091     4800.735        5.714        1.796      279.846       69.252        0.061      344.637       21.595      860.071
08/30/2014  22:51:00     -374.174     -201.539      -23.283      194.654      139.352       80.982    37890.061    19418.879     6558.056       12.250        3.193      424.999       90.048        0.045      344.809       21.888      860.062
08/30/2014  22:52:00     -102.236      -32.601       19.812      125.889       89.202       60.675    15847.978     7956.948     3681.410        1.969        1.374      107.308       66.165        0.380      344.710       21.720      860.060
08/30/2014  22:53:00     -172.961      -48.255       10.238      106.684       86.748       55.574    11381.381     7525.211     3088.435        2.717        1.100      179.566       46.680        0.068      344.709       21.716      860.089
08/30/2014  22:54:00     -181.405     -117.950        5.645      174.422      124.545       80.402    30423.093    15511.444     6464.457        4.961        2.620      216.379       87.579        0.164      344.725       21.744      860.092
08/30/2014  22:55:00     -230.202     -106.904       -8.047       96.425       86.603       55.844     9297.690     7500.123     3118.528        4.220        0.996      253.814       34.348        0.018      344.709       21.716      860.085
08/30/2014  22:56:00     -140.331      -95.134       14.194      127.572       91.624       54.262    16274.612     8395.029     2944.341        2.827        1.381      169.538       45.748        0.073      344.682       21.672      860.093
08/30/2014  22:57:00     -487.437      -49.250      -23.075      180.755      113.415       71.380    32672.340    12863.028     5095.102       14.558        2.532      489.919       83.964        0.029      344.773       21.826      860.106
08/30/2014  22:58:00     -257.341      -88.847       -7.032      108.692       64.777       48.855    11813.866     4196.115     2386.781        4.628        0.920      272.247       50.530        0.034      344.790       21.855      860.101
08/30/2014  22:59:00     -308.287      -48.091       -3.302      164.763      118.334       65.338    27146.893    14002.845     4269.004        7.138        2.271      312.015       84.330        0.073      344.740       21.770      860.095
08/30/2014  23:00:00     -335.858      -58.998       -8.718      195.082      111.174       78.183    38057.025    12359.599     6112.549        8.643        2.826      341.000       99.649        0.085      344.758       21.802      860.121
08/30/2014  23:01:00     -322.191      -62.764      -15.276      133.191       91.498       57.202    17739.910     8371.898     3272.016        6.868        1.469      328.248       64.411        0.039      344.727       21.748      860.095
08/30/2014  23:02:00     -335.727     -120.718       -1.626      172.285      118.206       64.475    29682.033    13972.728     4157.031        8.754        2.391      356.771       82.335        0.053      344.792       21.859      860.081
08/30/2014  23:03:00     -286.233     -103.815       -2.864      112.600       98.188       61.441    12678.786     9640.842     3774.990        5.940        1.305      304.478       66.302        0.047      344.701       21.704      860.096
08/30/2014  23:04:00     -265.320      -66.014        6.198      118.140      102.477       60.882    13956.948    10501.579     3706.673        5.147        1.408      273.409       54.070        0.039      344.685       21.675      860.117
08/30/2014  23:05:00     -337.576      -86.315      -19.236      169.358      144.919       69.332    28681.981    21001.557     4806.968        8.812        2.725      348.437       66.134        0.036      344.715       21.726      860.112
08/30/2014  23:06:00     -271.719      -32.468       -9.527      170.031      105.079       67.328    28910.576    11041.606     4533.068        5.972        2.224      273.652       76.433        0.078      344.676       21.661      860.110
08/30/2014  23:07:00     -398.828      -63.976      -16.597      127.140       93.443       53.184    16164.454     8731.621     2828.511        9.557        1.386      403.926       50.085        0.015      344.737       21.764      860.109
08/30/2014  23:08:00     -380.359      -51.889      -13.878      125.361       98.424       61.283    15715.410     9687.350     3755.589        8.835        1.458      383.882       67.032        0.030      344.638       21.596      860.109
08/30/2014  23:09:00     -408.207     -130.100      -36.171      150.069      154.466       75.397    22520.631    23859.594     5684.684       11.846        2.603      428.438       75.093        0.031      344.673       21.655      860.117
08/30/2014  23:10:00     -430.891      -74.138      -18.923      140.724      103.343       65.822    19803.183    10679.758     4332.579       11.316        1.741      437.222       68.634        0.025      344.673       21.653      860.102
08/30/2014  23:11:00     -332.839      -25.306       -8.962      126.492      104.969       68.053    16000.308    11018.580     4631.165        7.157        1.583      333.800       70.546        0.045      344.587       21.509      860.079
08/30/2014  23:12:00     -375.696      -45.482       -3.415      177.756      115.549       66.926    31597.329    13351.610     4479.085        9.632        2.471      378.439       69.610        0.034      344.602       21.535      860.070
08/30/2014  23:13:00     -323.961      -56.837      -10.067      162.637      101.793       64.844    26450.699    10361.916     4204.737        7.464        2.051      328.909       74.821        0.052      344.562       21.466      860.068
08/30/2014  23:14:00     -304.571      -85.667       -8.146      129.857       90.582       60.753    16862.968     8205.059     3690.876        6.446        1.438      316.390       59.306        0.035      344.552       21.449      860.066
08/30/2014  23:15:00     -279.512      -74.160       -3.783      147.361       82.090       60.857    21715.406     6738.837     3703.518        5.789        1.608      289.183       71.103        0.060      344.516       21.386      860.060
08/30/2014  23:16:00     -363.415      -81.476      -16.815      125.115       79.690       52.835    15653.676     6350.432     2791.574        8.189        1.240      372.436       55.219        0.022      344.506       21.368      860.064
08/30/2014  23:17:00     -280.391      -57.197      -16.430      125.315      105.513       58.694    15703.861    11132.915     3444.978        5.622        1.514      286.166       57.560        0.040      344.458       21.288      860.054
08/30/2014  23:18:00     -337.096      -74.199      -18.134      140.350      111.914       60.459    19697.996    12524.756     3655.316        7.767        1.794      345.165       55.648        0.026      344.463       21.298      860.065
08/30/2014  23:19:00     -418.386      -22.592      -13.306      139.694      111.003       62.839    19514.528    12321.664     3948.782       10.575        1.789      418.996       62.467        0.022      344.510       21.376      860.064
08/30/2014  23:20:00     -296.545      -31.396      -15.926      147.282      122.861       61.559    21691.981    15094.775     3789.516        6.487        2.029      298.202       68.129        0.052      344.472       21.313      860.042
08/30/2014  23:21:00     -484.534      -83.909      -35.602      151.524      128.525       74.367    22959.656    16518.737     5530.405       14.404        2.250      491.746       83.771        0.029      344.513       21.383      860.046
08/30/2014  23:22:00     -470.196     -112.927      -36.102      170.440      141.507       72.331    29049.770    20024.180     5231.725       14.471        2.715      483.566       79.349        0.027      344.554       21.452      860.061
08/30/2014  23:23:00     -360.208      -55.508       -2.035      157.599      120.748       76.544    24837.318    14579.964     5859.015        8.905        2.264      364.460       84.278        0.053      344.503       21.364      860.063
08/30/2014  23:24:00     -383.753     -112.601      -13.093      167.730      155.393       76.556    28133.399    24146.843     5860.777       10.912        2.907      399.931       69.911        0.031      344.559       21.461      860.042
08/30/2014  23:25:00     -402.249      -26.896      -15.350      178.074       94.022       84.976    31710.310     8840.077     7221.001       10.526        2.389      403.147      100.265        0.062      344.555       21.454      860.059
08/30/2014  23:26:00     -331.736      -45.742      -18.542      138.097      117.905       66.960    19070.707    13901.599     4483.599        7.496        1.873      334.874       66.766        0.040      344.505       21.368      860.064
08/30/2014  23:27:00     -410.820     -138.255      -14.704      147.323      152.505       62.925    21704.126    23257.843     3959.611       11.850        2.446      433.460       66.181        0.023      344.558       21.459      860.064
08/30/2014  23:28:00     -402.390      -80.147       -2.065      183.587      114.415       77.018    33704.018    13090.875     5931.832       11.053        2.636      410.294       91.981        0.050      344.538       21.425      860.053
08/30/2014  23:29:00     -375.872      -88.881      -12.477      146.556      122.282       77.004    21478.578    14952.938     5929.643        9.584        2.118      386.238       69.896        0.033      344.568       21.475      860.039
08/30/2014  23:30:00     -422.200      -77.565      -20.724      177.193      164.568       79.465    31397.211    27082.504     6314.609       12.473        3.240      429.266       79.855        0.035      344.571       21.483      860.022
08/30/2014  23:31:00     -276.062      -84.546       -8.893      153.272      123.474       72.012    23492.273    15245.821     5185.765        6.367        2.196      288.718       74.867        0.067      344.525       21.402      860.021
08/30/2014  23:32:00     -294.954     -106.660      -14.044      155.251      116.115       62.553    24102.785    13482.606     3912.862        7.003        2.075      313.647       74.923        0.057      344.538       21.425      860.033
08/30/2014  23:33:00     -481.703      -53.686      -28.879      188.683      122.011       81.194    35601.349    14886.781     6592.495       14.641        2.854      484.686       87.339        0.032      344.566       21.472      860.041
08/30/2014  23:34:00     -280.163      -23.570       -8.672      140.680      103.786       65.363    19790.892    10771.442     4272.266        5.697        1.742      281.153       66.353        0.056      344.504       21.367      860.044
08/30/2014  23:35:00     -367.510     -118.797      -17.081      148.724      109.957       69.470    22118.697    12090.497     4826.125        9.424        1.952      386.233       75.826        0.039      344.497       21.354      860.037
08/30/2014  23:36:00     -303.170      -50.258      -15.669      148.656      119.480       65.665    22098.699    14275.485     4311.952        6.768        2.034      307.307       45.948        0.022      344.521       21.396      860.022
08/30/2014  23:37:00     -196.064      -29.046        8.465      149.777       96.661       64.162    22433.055     9343.401     4116.786        3.762        1.795      198.204       78.668        0.158      344.498       21.357      860.038
08/30/2014  23:38:00     -271.746      -47.556      -16.129      120.489      101.835       65.005    14517.589    10370.366     4225.683        5.273        1.456      275.876       66.841        0.059      344.526       21.404      860.043
08/30/2014  23:39:00     -281.389       -1.218       -8.829      196.469       92.875       71.586    38600.004     8625.840     5124.510        6.579        2.618      281.391       96.617        0.118      344.520       21.395      860.050
08/30/2014  23:40:00     -258.959     -101.832      -11.834      161.566      109.149       55.010    26103.584    11913.558     3026.055        5.930        2.052      278.262       58.479        0.044      344.519       21.393      860.059
08/30/2014  23:41:00     -341.121     -102.366       -7.673      180.312      128.943       80.013    32512.580    16626.287     6402.144        9.121        2.777      356.150       68.703        0.037      344.572       21.482      860.059
08/30/2014  23:42:00     -129.266      -86.296       13.671      151.283      116.993       68.295    22886.613    13687.350     4664.223        3.278        2.062      155.424       78.457        0.255      344.517       21.389      860.056
08/30/2014  23:43:00     -204.483      -19.095       17.259      180.688      138.103       77.903    32648.127    19072.322     6068.889        5.012        2.889      205.373       73.397        0.128      344.483       21.331      860.046
08/30/2014  23:44:00     -267.088       -3.114       15.798      196.659       92.956       79.288    38674.944     8640.853     6286.612        6.259        2.680      267.107       96.779        0.131      344.484       21.332      860.043
08/30/2014  23:45:00     -352.359     -178.483       -2.139      207.463      160.340       88.514    43040.701    25708.927     7834.776       11.629        3.829      394.985       97.074        0.060      344.595       21.522      860.048
08/30/2014  23:46:00     -208.348     -115.966       -1.592      153.848      120.626       66.789    23669.153    14550.719     4460.819        4.976        2.134      238.447       81.816        0.118      344.524       21.402      860.052
08/30/2014  23:47:00     -396.660     -103.954      -16.153      148.624      144.227       81.018    22089.095    20801.322     6563.836       10.892        2.473      410.056       78.512        0.037      344.532       21.413      860.044
08/30/2014  23:48:00     -496.605     -213.477      -22.955      180.048      132.186       77.463    32417.313    17473.027     6000.467       17.429        2.795      540.545       75.871        0.020      344.590       21.512      860.015
08/30/2014  23:49:00     -402.849     -120.644       -3.913      209.985      139.525       74.683    44093.869    19467.194     5577.564       12.298        3.457      420.526       80.891        0.037      344.609       21.546      860.007
08/30/2014  23:50:00     -275.799     -103.654       -6.961      153.604      126.590       71.415    23594.062    16025.128     5100.049        6.578        2.236      294.634       74.905        0.065      344.565       21.471      860.012
08/30/2014  23:51:00     -312.247     -150.192       -0.209      194.756      136.052       85.327    37929.879    18510.183     7280.689        9.188        3.186      346.491       91.265        0.069      344.528       21.408      859.996
08/30/2014  23:52:00     -285.304     -101.653       -4.519      147.887      111.148       68.283    21870.541    12353.865     4662.534        6.531        1.944      302.872       57.926        0.037      344.573       21.484      859.997
08/30/2014  23:53:00     -358.584     -125.017       -7.331      138.453      136.720       79.277    19169.190    18692.391     6284.874        9.420        2.207      379.752       74.334        0.038      344.549       21.442      860.011
08/30/2014  23:54:00     -310.439     -149.509       -4.320      180.963      139.324       80.368    32747.698    19411.084     6459.053        8.867        2.931      344.566       75.191        0.048      344.542       21.431      860.002
08/30/2014  23:55:00     -340.928     -131.302      -20.985      167.765      130.811       78.595    28145.253    17111.593     6177.133        9.266        2.572      365.338       64.782        0.031      344.558       21.459      859.995
08/30/2014  23:56:00     -374.909     -101.620      -27.669      128.611      118.999       60.122    16540.678    14160.777     3614.657        9.298        1.716      388.437       55.824        0.021      344.544       21.435      859.986
08/30/2014  23:57:00     -234.336      -80.191        0.759      161.771      112.554       57.696    26169.740    12668.392     3328.871        5.175        2.108      247.677       59.511        0.058      344.501       21.361      859.988
08/30/2014  23:58:00     -212.917      -74.056       21.123      238.146      135.589       96.377    56713.367    18384.372     9288.515        6.781        4.219      225.428      116.837        0.269      344.490       21.343      859.987
08/30/2014  23:59:00     -323.318     -207.140      -20.912      108.255      118.659       70.988    11719.159    14079.955     5039.253        8.935        1.542      383.981       63.776        0.028      344.487       21.338      859.993
